<?xml version="1.0" encoding="UTF-8" standalone="no" ?><gpx xmlns="http://www.topografix.com/GPX/1/1" xmlns:gpxx="http://www.garmin.com/xmlschemas/GpxExtensions/v3" xmlns:wptx1="http://www.garmin.com/xmlschemas/WaypointExtension/v1" xmlns:gpxtpx="http://www.garmin.com/xmlschemas/TrackPointExtension/v1" creator="GuideVTT.com" version="1.1" xmlns:xsi="http://www.w3.org/2001/XMLSchema-instance" xsi:schemaLocation="http://www.topografix.com/GPX/1/1 http://www.topografix.com/GPX/1/1/gpx.xsd http://www.garmin.com/xmlschemas/GpxExtensions/v3 http://www8.garmin.com/xmlschemas/GpxExtensionsv3.xsd http://www.garmin.com/xmlschemas/WaypointExtension/v1 http://www8.garmin.com/xmlschemas/WaypointExtensionv1.xsd http://www.garmin.com/xmlschemas/TrackPointExtension/v1 http://www.garmin.com/xmlschemas/TrackPointExtensionv1.xsd">
<metadata><link href="http://www.garmin.com"><text>Garmin International</text></link><time>2013-06-22T15:13:50Z</time></metadata>
<trk><name>00000_20110102.gpx</name><extensions><gpxx:TrackExtension><gpxx:DisplayColor>Cyan</gpxx:DisplayColor></gpxx:TrackExtension></extensions><trkseg>
<trkpt lat="42.290473" lon="3.280542"><ele>-50.5</ele><time>2011-01-02T09:15:01Z</time></trkpt>
<trkpt lat="42.290452" lon="3.280507"><ele>-50.5</ele><time>2011-01-02T09:15:05Z</time></trkpt>
<trkpt lat="42.290405" lon="3.280435"><ele>-50.5</ele><time>2011-01-02T09:15:11Z</time></trkpt>
<trkpt lat="42.290318" lon="3.280543"><ele>-50.5</ele><time>2011-01-02T09:15:16Z</time></trkpt>
<trkpt lat="42.290135" lon="3.280578"><ele>-50.5</ele><time>2011-01-02T09:15:21Z</time></trkpt>
<trkpt lat="42.290085" lon="3.280782"><ele>-50.5</ele><time>2011-01-02T09:15:26Z</time></trkpt>
<trkpt lat="42.289932" lon="3.280472"><ele>-50.5</ele><time>2011-01-02T09:15:34Z</time></trkpt>
<trkpt lat="42.289748" lon="3.280477"><ele>-50.5</ele><time>2011-01-02T09:15:40Z</time></trkpt>
<trkpt lat="42.289593" lon="3.280425"><ele>-50.5</ele><time>2011-01-02T09:15:45Z</time></trkpt>
<trkpt lat="42.289523" lon="3.280328"><ele>-50.5</ele><time>2011-01-02T09:15:50Z</time></trkpt>
<trkpt lat="42.289523" lon="3.280175"><ele>-50.5</ele><time>2011-01-02T09:15:55Z</time></trkpt>
<trkpt lat="42.289528" lon="3.279997"><ele>-50.5</ele><time>2011-01-02T09:16:00Z</time></trkpt>
<trkpt lat="42.289017" lon="3.279040"><ele>4.9</ele><time>2011-01-02T09:16:05Z</time></trkpt>
<trkpt lat="42.289002" lon="3.278835"><ele>5.2</ele><time>2011-01-02T09:16:09Z</time></trkpt>
<trkpt lat="42.288952" lon="3.278635"><ele>6.8</ele><time>2011-01-02T09:16:14Z</time></trkpt>
<trkpt lat="42.288913" lon="3.278427"><ele>5.4</ele><time>2011-01-02T09:16:19Z</time></trkpt>
<trkpt lat="42.288863" lon="3.278240"><ele>6.1</ele><time>2011-01-02T09:16:24Z</time></trkpt>
<trkpt lat="42.288803" lon="3.278027"><ele>5</ele><time>2011-01-02T09:16:29Z</time></trkpt>
<trkpt lat="42.288708" lon="3.277858"><ele>5.4</ele><time>2011-01-02T09:16:34Z</time></trkpt>
<trkpt lat="42.288585" lon="3.277683"><ele>5.5</ele><time>2011-01-02T09:16:39Z</time></trkpt>
<trkpt lat="42.288475" lon="3.277448"><ele>6.5</ele><time>2011-01-02T09:16:44Z</time></trkpt>
<trkpt lat="42.288345" lon="3.277258"><ele>7.8</ele><time>2011-01-02T09:16:49Z</time></trkpt>
<trkpt lat="42.288177" lon="3.277135"><ele>7.8</ele><time>2011-01-02T09:16:54Z</time></trkpt>
<trkpt lat="42.287957" lon="3.277170"><ele>7.8</ele><time>2011-01-02T09:16:59Z</time></trkpt>
<trkpt lat="42.287732" lon="3.277268"><ele>7.8</ele><time>2011-01-02T09:17:04Z</time></trkpt>
<trkpt lat="42.287537" lon="3.277342"><ele>7.9</ele><time>2011-01-02T09:17:09Z</time></trkpt>
<trkpt lat="42.287410" lon="3.277195"><ele>7.1</ele><time>2011-01-02T09:17:14Z</time></trkpt>
<trkpt lat="42.287422" lon="3.276923"><ele>6.7</ele><time>2011-01-02T09:17:19Z</time></trkpt>
<trkpt lat="42.287448" lon="3.276767"><ele>5.4</ele><time>2011-01-02T09:17:24Z</time></trkpt>
<trkpt lat="42.287487" lon="3.276547"><ele>4.9</ele><time>2011-01-02T09:17:29Z</time></trkpt>
<trkpt lat="42.287502" lon="3.276298"><ele>4.9</ele><time>2011-01-02T09:17:34Z</time></trkpt>
<trkpt lat="42.287430" lon="3.276077"><ele>5.5</ele><time>2011-01-02T09:17:39Z</time></trkpt>
<trkpt lat="42.287273" lon="3.275953"><ele>5.7</ele><time>2011-01-02T09:17:44Z</time></trkpt>
<trkpt lat="42.287063" lon="3.275987"><ele>6.2</ele><time>2011-01-02T09:17:49Z</time></trkpt>
<trkpt lat="42.286922" lon="3.276118"><ele>5.1</ele><time>2011-01-02T09:17:54Z</time></trkpt>
<trkpt lat="42.286697" lon="3.276257"><ele>8.1</ele><time>2011-01-02T09:17:59Z</time></trkpt>
<trkpt lat="42.286498" lon="3.276357"><ele>8.3</ele><time>2011-01-02T09:18:04Z</time></trkpt>
<trkpt lat="42.286300" lon="3.276447"><ele>9</ele><time>2011-01-02T09:18:09Z</time></trkpt>
<trkpt lat="42.286102" lon="3.276532"><ele>11.5</ele><time>2011-01-02T09:18:14Z</time></trkpt>
<trkpt lat="42.285947" lon="3.276582"><ele>12.8</ele><time>2011-01-02T09:18:19Z</time></trkpt>
<trkpt lat="42.285882" lon="3.276380"><ele>12.3</ele><time>2011-01-02T09:18:24Z</time></trkpt>
<trkpt lat="42.285778" lon="3.276213"><ele>14.7</ele><time>2011-01-02T09:18:29Z</time></trkpt>
<trkpt lat="42.285652" lon="3.276055"><ele>18.2</ele><time>2011-01-02T09:18:34Z</time></trkpt>
<trkpt lat="42.285542" lon="3.275860"><ele>16.9</ele><time>2011-01-02T09:18:39Z</time></trkpt>
<trkpt lat="42.285408" lon="3.275668"><ele>18.2</ele><time>2011-01-02T09:18:44Z</time></trkpt>
<trkpt lat="42.285252" lon="3.275635"><ele>15.2</ele><time>2011-01-02T09:18:49Z</time></trkpt>
<trkpt lat="42.285053" lon="3.275690"><ele>14.5</ele><time>2011-01-02T09:18:54Z</time></trkpt>
<trkpt lat="42.284920" lon="3.275573"><ele>14.9</ele><time>2011-01-02T09:18:59Z</time></trkpt>
<trkpt lat="42.284740" lon="3.275380"><ele>15.2</ele><time>2011-01-02T09:19:04Z</time></trkpt>
<trkpt lat="42.284447" lon="3.275252"><ele>10.7</ele><time>2011-01-02T09:19:09Z</time></trkpt>
<trkpt lat="42.284138" lon="3.275308"><ele>7.8</ele><time>2011-01-02T09:19:14Z</time></trkpt>
<trkpt lat="42.283867" lon="3.275513"><ele>6.2</ele><time>2011-01-02T09:19:19Z</time></trkpt>
<trkpt lat="42.283615" lon="3.275688"><ele>5.6</ele><time>2011-01-02T09:19:24Z</time></trkpt>
<trkpt lat="42.283375" lon="3.275800"><ele>5.3</ele><time>2011-01-02T09:19:29Z</time></trkpt>
<trkpt lat="42.283142" lon="3.275787"><ele>5</ele><time>2011-01-02T09:19:34Z</time></trkpt>
<trkpt lat="42.282948" lon="3.275573"><ele>5.7</ele><time>2011-01-02T09:19:39Z</time></trkpt>
<trkpt lat="42.282733" lon="3.275493"><ele>6.8</ele><time>2011-01-02T09:19:44Z</time></trkpt>
<trkpt lat="42.282540" lon="3.275495"><ele>7.6</ele><time>2011-01-02T09:19:49Z</time></trkpt>
<trkpt lat="42.282387" lon="3.275527"><ele>8.8</ele><time>2011-01-02T09:19:54Z</time></trkpt>
<trkpt lat="42.282272" lon="3.275595"><ele>10.2</ele><time>2011-01-02T09:19:59Z</time></trkpt>
<trkpt lat="42.282162" lon="3.275618"><ele>11.9</ele><time>2011-01-02T09:20:04Z</time></trkpt>
<trkpt lat="42.282052" lon="3.275598"><ele>13.5</ele><time>2011-01-02T09:20:09Z</time></trkpt>
<trkpt lat="42.281948" lon="3.275577"><ele>14.6</ele><time>2011-01-02T09:20:14Z</time></trkpt>
<trkpt lat="42.281842" lon="3.275563"><ele>16.7</ele><time>2011-01-02T09:20:19Z</time></trkpt>
<trkpt lat="42.281738" lon="3.275540"><ele>17.4</ele><time>2011-01-02T09:20:24Z</time></trkpt>
<trkpt lat="42.281643" lon="3.275498"><ele>17.8</ele><time>2011-01-02T09:20:29Z</time></trkpt>
<trkpt lat="42.281558" lon="3.275460"><ele>18.4</ele><time>2011-01-02T09:20:34Z</time></trkpt>
<trkpt lat="42.281478" lon="3.275435"><ele>19.4</ele><time>2011-01-02T09:20:39Z</time></trkpt>
<trkpt lat="42.281410" lon="3.275392"><ele>20.8</ele><time>2011-01-02T09:20:44Z</time></trkpt>
<trkpt lat="42.281342" lon="3.275340"><ele>22.4</ele><time>2011-01-02T09:20:49Z</time></trkpt>
<trkpt lat="42.281285" lon="3.275283"><ele>23.8</ele><time>2011-01-02T09:20:54Z</time></trkpt>
<trkpt lat="42.281242" lon="3.275200"><ele>25.2</ele><time>2011-01-02T09:20:59Z</time></trkpt>
<trkpt lat="42.281205" lon="3.275108"><ele>26.2</ele><time>2011-01-02T09:21:04Z</time></trkpt>
<trkpt lat="42.281178" lon="3.275012"><ele>27.3</ele><time>2011-01-02T09:21:09Z</time></trkpt>
<trkpt lat="42.281155" lon="3.274920"><ele>28</ele><time>2011-01-02T09:21:14Z</time></trkpt>
<trkpt lat="42.281135" lon="3.274822"><ele>29</ele><time>2011-01-02T09:21:19Z</time></trkpt>
<trkpt lat="42.281162" lon="3.274730"><ele>29.7</ele><time>2011-01-02T09:21:24Z</time></trkpt>
<trkpt lat="42.281173" lon="3.274637"><ele>30.8</ele><time>2011-01-02T09:21:29Z</time></trkpt>
<trkpt lat="42.281173" lon="3.274542"><ele>31.9</ele><time>2011-01-02T09:21:34Z</time></trkpt>
<trkpt lat="42.281170" lon="3.274445"><ele>33</ele><time>2011-01-02T09:21:39Z</time></trkpt>
<trkpt lat="42.281162" lon="3.274350"><ele>34.3</ele><time>2011-01-02T09:21:44Z</time></trkpt>
<trkpt lat="42.281143" lon="3.274260"><ele>35.4</ele><time>2011-01-02T09:21:49Z</time></trkpt>
<trkpt lat="42.281117" lon="3.274177"><ele>36.5</ele><time>2011-01-02T09:21:54Z</time></trkpt>
<trkpt lat="42.281070" lon="3.274103"><ele>37.6</ele><time>2011-01-02T09:21:59Z</time></trkpt>
<trkpt lat="42.281025" lon="3.274042"><ele>38.7</ele><time>2011-01-02T09:22:04Z</time></trkpt>
<trkpt lat="42.280960" lon="3.274013"><ele>39.8</ele><time>2011-01-02T09:22:09Z</time></trkpt>
<trkpt lat="42.280892" lon="3.274002"><ele>40.6</ele><time>2011-01-02T09:22:14Z</time></trkpt>
<trkpt lat="42.280823" lon="3.273978"><ele>41.3</ele><time>2011-01-02T09:22:19Z</time></trkpt>
<trkpt lat="42.280762" lon="3.273923"><ele>42.2</ele><time>2011-01-02T09:22:24Z</time></trkpt>
<trkpt lat="42.280708" lon="3.273870"><ele>43.1</ele><time>2011-01-02T09:22:29Z</time></trkpt>
<trkpt lat="42.280643" lon="3.273860"><ele>43.8</ele><time>2011-01-02T09:22:34Z</time></trkpt>
<trkpt lat="42.280587" lon="3.273907"><ele>44.5</ele><time>2011-01-02T09:22:39Z</time></trkpt>
<trkpt lat="42.280572" lon="3.274002"><ele>44.6</ele><time>2011-01-02T09:22:44Z</time></trkpt>
<trkpt lat="42.280587" lon="3.274102"><ele>44.8</ele><time>2011-01-02T09:22:49Z</time></trkpt>
<trkpt lat="42.280587" lon="3.274200"><ele>45.2</ele><time>2011-01-02T09:22:54Z</time></trkpt>
<trkpt lat="42.280572" lon="3.274300"><ele>45.6</ele><time>2011-01-02T09:22:59Z</time></trkpt>
<trkpt lat="42.280537" lon="3.274397"><ele>46.1</ele><time>2011-01-02T09:23:04Z</time></trkpt>
<trkpt lat="42.280468" lon="3.274450"><ele>46.7</ele><time>2011-01-02T09:23:09Z</time></trkpt>
<trkpt lat="42.280383" lon="3.274493"><ele>47.4</ele><time>2011-01-02T09:23:14Z</time></trkpt>
<trkpt lat="42.280303" lon="3.274537"><ele>48.2</ele><time>2011-01-02T09:23:19Z</time></trkpt>
<trkpt lat="42.280223" lon="3.274588"><ele>49.1</ele><time>2011-01-02T09:23:24Z</time></trkpt>
<trkpt lat="42.280148" lon="3.274637"><ele>49.8</ele><time>2011-01-02T09:23:29Z</time></trkpt>
<trkpt lat="42.280078" lon="3.274690"><ele>50.6</ele><time>2011-01-02T09:23:34Z</time></trkpt>
<trkpt lat="42.280007" lon="3.274743"><ele>51.3</ele><time>2011-01-02T09:23:39Z</time></trkpt>
<trkpt lat="42.279930" lon="3.274795"><ele>52</ele><time>2011-01-02T09:23:44Z</time></trkpt>
<trkpt lat="42.279853" lon="3.274840"><ele>52.7</ele><time>2011-01-02T09:23:49Z</time></trkpt>
<trkpt lat="42.279767" lon="3.274863"><ele>53.4</ele><time>2011-01-02T09:23:54Z</time></trkpt>
<trkpt lat="42.279693" lon="3.274795"><ele>54.5</ele><time>2011-01-02T09:23:59Z</time></trkpt>
<trkpt lat="42.279660" lon="3.274693"><ele>55.5</ele><time>2011-01-02T09:24:04Z</time></trkpt>
<trkpt lat="42.279690" lon="3.274593"><ele>56.6</ele><time>2011-01-02T09:24:09Z</time></trkpt>
<trkpt lat="42.279750" lon="3.274520"><ele>58.2</ele><time>2011-01-02T09:24:14Z</time></trkpt>
<trkpt lat="42.279785" lon="3.274437"><ele>59.6</ele><time>2011-01-02T09:24:19Z</time></trkpt>
<trkpt lat="42.279823" lon="3.274347"><ele>60.8</ele><time>2011-01-02T09:24:24Z</time></trkpt>
<trkpt lat="42.279858" lon="3.274252"><ele>61.7</ele><time>2011-01-02T09:24:29Z</time></trkpt>
<trkpt lat="42.279885" lon="3.274155"><ele>62.3</ele><time>2011-01-02T09:24:34Z</time></trkpt>
<trkpt lat="42.279915" lon="3.274058"><ele>62.7</ele><time>2011-01-02T09:24:39Z</time></trkpt>
<trkpt lat="42.279945" lon="3.273958"><ele>63.1</ele><time>2011-01-02T09:24:44Z</time></trkpt>
<trkpt lat="42.279953" lon="3.273848"><ele>63.5</ele><time>2011-01-02T09:24:49Z</time></trkpt>
<trkpt lat="42.279950" lon="3.273732"><ele>63.9</ele><time>2011-01-02T09:24:54Z</time></trkpt>
<trkpt lat="42.279942" lon="3.273620"><ele>64.2</ele><time>2011-01-02T09:24:59Z</time></trkpt>
<trkpt lat="42.279915" lon="3.273512"><ele>64.6</ele><time>2011-01-02T09:25:04Z</time></trkpt>
<trkpt lat="42.279865" lon="3.273415"><ele>64.9</ele><time>2011-01-02T09:25:09Z</time></trkpt>
<trkpt lat="42.279827" lon="3.273308"><ele>65.5</ele><time>2011-01-02T09:25:14Z</time></trkpt>
<trkpt lat="42.279788" lon="3.273210"><ele>66.2</ele><time>2011-01-02T09:25:19Z</time></trkpt>
<trkpt lat="42.279750" lon="3.273113"><ele>67</ele><time>2011-01-02T09:25:24Z</time></trkpt>
<trkpt lat="42.279713" lon="3.273025"><ele>67.9</ele><time>2011-01-02T09:25:29Z</time></trkpt>
<trkpt lat="42.279663" lon="3.272942"><ele>68.8</ele><time>2011-01-02T09:25:34Z</time></trkpt>
<trkpt lat="42.279587" lon="3.272887"><ele>69.5</ele><time>2011-01-02T09:25:39Z</time></trkpt>
<trkpt lat="42.279498" lon="3.272858"><ele>70.1</ele><time>2011-01-02T09:25:44Z</time></trkpt>
<trkpt lat="42.279423" lon="3.272800"><ele>70.9</ele><time>2011-01-02T09:25:49Z</time></trkpt>
<trkpt lat="42.279377" lon="3.272705"><ele>71.8</ele><time>2011-01-02T09:25:54Z</time></trkpt>
<trkpt lat="42.279362" lon="3.272595"><ele>72.4</ele><time>2011-01-02T09:25:59Z</time></trkpt>
<trkpt lat="42.279353" lon="3.272485"><ele>73.4</ele><time>2011-01-02T09:26:04Z</time></trkpt>
<trkpt lat="42.279323" lon="3.272383"><ele>74.4</ele><time>2011-01-02T09:26:09Z</time></trkpt>
<trkpt lat="42.279293" lon="3.272283"><ele>75.4</ele><time>2011-01-02T09:26:14Z</time></trkpt>
<trkpt lat="42.279267" lon="3.272183"><ele>76.3</ele><time>2011-01-02T09:26:19Z</time></trkpt>
<trkpt lat="42.279220" lon="3.272093"><ele>77.2</ele><time>2011-01-02T09:26:24Z</time></trkpt>
<trkpt lat="42.279175" lon="3.272000"><ele>78.1</ele><time>2011-01-02T09:26:29Z</time></trkpt>
<trkpt lat="42.279133" lon="3.271913"><ele>78.9</ele><time>2011-01-02T09:26:34Z</time></trkpt>
<trkpt lat="42.279087" lon="3.271830"><ele>79.8</ele><time>2011-01-02T09:26:39Z</time></trkpt>
<trkpt lat="42.279048" lon="3.271735"><ele>80.2</ele><time>2011-01-02T09:26:44Z</time></trkpt>
<trkpt lat="42.279018" lon="3.271642"><ele>81.2</ele><time>2011-01-02T09:26:49Z</time></trkpt>
<trkpt lat="42.278965" lon="3.271567"><ele>82</ele><time>2011-01-02T09:26:54Z</time></trkpt>
<trkpt lat="42.278893" lon="3.271505"><ele>82.6</ele><time>2011-01-02T09:26:59Z</time></trkpt>
<trkpt lat="42.278835" lon="3.271435"><ele>83.4</ele><time>2011-01-02T09:27:04Z</time></trkpt>
<trkpt lat="42.278828" lon="3.271328"><ele>83.8</ele><time>2011-01-02T09:27:09Z</time></trkpt>
<trkpt lat="42.278862" lon="3.271230"><ele>84.6</ele><time>2011-01-02T09:27:14Z</time></trkpt>
<trkpt lat="42.278903" lon="3.271135"><ele>85.6</ele><time>2011-01-02T09:27:19Z</time></trkpt>
<trkpt lat="42.278950" lon="3.271042"><ele>87</ele><time>2011-01-02T09:27:24Z</time></trkpt>
<trkpt lat="42.278973" lon="3.270935"><ele>88</ele><time>2011-01-02T09:27:29Z</time></trkpt>
<trkpt lat="42.278980" lon="3.270827"><ele>88.8</ele><time>2011-01-02T09:27:34Z</time></trkpt>
<trkpt lat="42.278983" lon="3.270717"><ele>89.7</ele><time>2011-01-02T09:27:39Z</time></trkpt>
<trkpt lat="42.278992" lon="3.270610"><ele>90.6</ele><time>2011-01-02T09:27:44Z</time></trkpt>
<trkpt lat="42.278992" lon="3.270512"><ele>91.8</ele><time>2011-01-02T09:27:49Z</time></trkpt>
<trkpt lat="42.278968" lon="3.270418"><ele>93.1</ele><time>2011-01-02T09:27:54Z</time></trkpt>
<trkpt lat="42.278912" lon="3.270365"><ele>94</ele><time>2011-01-02T09:27:59Z</time></trkpt>
<trkpt lat="42.278838" lon="3.270390"><ele>94.5</ele><time>2011-01-02T09:28:04Z</time></trkpt>
<trkpt lat="42.278763" lon="3.270455"><ele>94.8</ele><time>2011-01-02T09:28:09Z</time></trkpt>
<trkpt lat="42.278660" lon="3.270490"><ele>94.9</ele><time>2011-01-02T09:28:14Z</time></trkpt>
<trkpt lat="42.278565" lon="3.270445"><ele>95.2</ele><time>2011-01-02T09:28:19Z</time></trkpt>
<trkpt lat="42.278518" lon="3.270345"><ele>95.8</ele><time>2011-01-02T09:28:24Z</time></trkpt>
<trkpt lat="42.278512" lon="3.270233"><ele>96.8</ele><time>2011-01-02T09:28:29Z</time></trkpt>
<trkpt lat="42.278447" lon="3.270173"><ele>98</ele><time>2011-01-02T09:28:34Z</time></trkpt>
<trkpt lat="42.278370" lon="3.270207"><ele>98.6</ele><time>2011-01-02T09:28:39Z</time></trkpt>
<trkpt lat="42.278308" lon="3.270272"><ele>99.3</ele><time>2011-01-02T09:28:44Z</time></trkpt>
<trkpt lat="42.278252" lon="3.270347"><ele>100</ele><time>2011-01-02T09:28:49Z</time></trkpt>
<trkpt lat="42.278190" lon="3.270407"><ele>100.8</ele><time>2011-01-02T09:28:54Z</time></trkpt>
<trkpt lat="42.278122" lon="3.270460"><ele>101.5</ele><time>2011-01-02T09:28:59Z</time></trkpt>
<trkpt lat="42.278062" lon="3.270535"><ele>102.3</ele><time>2011-01-02T09:29:04Z</time></trkpt>
<trkpt lat="42.278023" lon="3.270633"><ele>103.1</ele><time>2011-01-02T09:29:09Z</time></trkpt>
<trkpt lat="42.278038" lon="3.270737"><ele>104</ele><time>2011-01-02T09:29:14Z</time></trkpt>
<trkpt lat="42.278030" lon="3.270837"><ele>105.1</ele><time>2011-01-02T09:29:19Z</time></trkpt>
<trkpt lat="42.277985" lon="3.270917"><ele>105.7</ele><time>2011-01-02T09:29:24Z</time></trkpt>
<trkpt lat="42.277908" lon="3.270912"><ele>106.5</ele><time>2011-01-02T09:29:29Z</time></trkpt>
<trkpt lat="42.277858" lon="3.270842"><ele>106.9</ele><time>2011-01-02T09:29:34Z</time></trkpt>
<trkpt lat="42.277832" lon="3.270738"><ele>107.2</ele><time>2011-01-02T09:29:39Z</time></trkpt>
<trkpt lat="42.277858" lon="3.270638"><ele>108</ele><time>2011-01-02T09:29:44Z</time></trkpt>
<trkpt lat="42.277878" lon="3.270538"><ele>109.2</ele><time>2011-01-02T09:29:49Z</time></trkpt>
<trkpt lat="42.277885" lon="3.270425"><ele>109.8</ele><time>2011-01-02T09:29:54Z</time></trkpt>
<trkpt lat="42.277878" lon="3.270303"><ele>110.2</ele><time>2011-01-02T09:29:59Z</time></trkpt>
<trkpt lat="42.277847" lon="3.270188"><ele>111.3</ele><time>2011-01-02T09:30:04Z</time></trkpt>
<trkpt lat="42.277775" lon="3.270113"><ele>111.9</ele><time>2011-01-02T09:30:09Z</time></trkpt>
<trkpt lat="42.277687" lon="3.270065"><ele>112.3</ele><time>2011-01-02T09:30:14Z</time></trkpt>
<trkpt lat="42.277622" lon="3.269975"><ele>112.7</ele><time>2011-01-02T09:30:19Z</time></trkpt>
<trkpt lat="42.277562" lon="3.269882"><ele>113.1</ele><time>2011-01-02T09:30:24Z</time></trkpt>
<trkpt lat="42.277500" lon="3.269775"><ele>113.4</ele><time>2011-01-02T09:30:29Z</time></trkpt>
<trkpt lat="42.277455" lon="3.269665"><ele>113.7</ele><time>2011-01-02T09:30:34Z</time></trkpt>
<trkpt lat="42.277420" lon="3.269550"><ele>114.2</ele><time>2011-01-02T09:30:39Z</time></trkpt>
<trkpt lat="42.277355" lon="3.269457"><ele>114.8</ele><time>2011-01-02T09:30:44Z</time></trkpt>
<trkpt lat="42.277257" lon="3.269425"><ele>115.2</ele><time>2011-01-02T09:30:49Z</time></trkpt>
<trkpt lat="42.277150" lon="3.269432"><ele>115.6</ele><time>2011-01-02T09:30:54Z</time></trkpt>
<trkpt lat="42.277050" lon="3.269382"><ele>115.9</ele><time>2011-01-02T09:30:59Z</time></trkpt>
<trkpt lat="42.276982" lon="3.269298"><ele>116.4</ele><time>2011-01-02T09:31:04Z</time></trkpt>
<trkpt lat="42.276920" lon="3.269200"><ele>117.1</ele><time>2011-01-02T09:31:09Z</time></trkpt>
<trkpt lat="42.276860" lon="3.269125"><ele>117.9</ele><time>2011-01-02T09:31:14Z</time></trkpt>
<trkpt lat="42.276817" lon="3.269042"><ele>119.1</ele><time>2011-01-02T09:31:19Z</time></trkpt>
<trkpt lat="42.276825" lon="3.268937"><ele>120.3</ele><time>2011-01-02T09:31:24Z</time></trkpt>
<trkpt lat="42.276825" lon="3.268843"><ele>121.5</ele><time>2011-01-02T09:31:29Z</time></trkpt>
<trkpt lat="42.276822" lon="3.268752"><ele>122.4</ele><time>2011-01-02T09:31:34Z</time></trkpt>
<trkpt lat="42.276855" lon="3.268667"><ele>123.3</ele><time>2011-01-02T09:31:39Z</time></trkpt>
<trkpt lat="42.276893" lon="3.268583"><ele>124.4</ele><time>2011-01-02T09:31:44Z</time></trkpt>
<trkpt lat="42.276940" lon="3.268503"><ele>125.5</ele><time>2011-01-02T09:31:49Z</time></trkpt>
<trkpt lat="42.276997" lon="3.268435"><ele>126.3</ele><time>2011-01-02T09:31:54Z</time></trkpt>
<trkpt lat="42.277042" lon="3.268352"><ele>127.1</ele><time>2011-01-02T09:31:59Z</time></trkpt>
<trkpt lat="42.277077" lon="3.268258"><ele>127.6</ele><time>2011-01-02T09:32:04Z</time></trkpt>
<trkpt lat="42.277107" lon="3.268160"><ele>128.1</ele><time>2011-01-02T09:32:09Z</time></trkpt>
<trkpt lat="42.277142" lon="3.268052"><ele>128.5</ele><time>2011-01-02T09:32:14Z</time></trkpt>
<trkpt lat="42.277160" lon="3.267925"><ele>128.9</ele><time>2011-01-02T09:32:19Z</time></trkpt>
<trkpt lat="42.277177" lon="3.267805"><ele>129.4</ele><time>2011-01-02T09:32:24Z</time></trkpt>
<trkpt lat="42.277192" lon="3.267687"><ele>129.9</ele><time>2011-01-02T09:32:29Z</time></trkpt>
<trkpt lat="42.277207" lon="3.267572"><ele>130.6</ele><time>2011-01-02T09:32:34Z</time></trkpt>
<trkpt lat="42.277222" lon="3.267457"><ele>131.5</ele><time>2011-01-02T09:32:39Z</time></trkpt>
<trkpt lat="42.277263" lon="3.267335"><ele>132</ele><time>2011-01-02T09:32:44Z</time></trkpt>
<trkpt lat="42.277278" lon="3.267222"><ele>133.1</ele><time>2011-01-02T09:32:49Z</time></trkpt>
<trkpt lat="42.277283" lon="3.267108"><ele>134.2</ele><time>2011-01-02T09:32:54Z</time></trkpt>
<trkpt lat="42.277275" lon="3.266997"><ele>135.4</ele><time>2011-01-02T09:32:59Z</time></trkpt>
<trkpt lat="42.277230" lon="3.266902"><ele>136.2</ele><time>2011-01-02T09:33:04Z</time></trkpt>
<trkpt lat="42.277150" lon="3.266848"><ele>136.7</ele><time>2011-01-02T09:33:09Z</time></trkpt>
<trkpt lat="42.277065" lon="3.266822"><ele>137.3</ele><time>2011-01-02T09:33:14Z</time></trkpt>
<trkpt lat="42.276985" lon="3.266852"><ele>138</ele><time>2011-01-02T09:33:19Z</time></trkpt>
<trkpt lat="42.276935" lon="3.266948"><ele>138.3</ele><time>2011-01-02T09:33:24Z</time></trkpt>
<trkpt lat="42.276905" lon="3.267063"><ele>138.7</ele><time>2011-01-02T09:33:29Z</time></trkpt>
<trkpt lat="42.276867" lon="3.267177"><ele>139.1</ele><time>2011-01-02T09:33:34Z</time></trkpt>
<trkpt lat="42.276802" lon="3.267265"><ele>139.6</ele><time>2011-01-02T09:33:39Z</time></trkpt>
<trkpt lat="42.276725" lon="3.267350"><ele>140</ele><time>2011-01-02T09:33:44Z</time></trkpt>
<trkpt lat="42.276657" lon="3.267443"><ele>140.5</ele><time>2011-01-02T09:33:49Z</time></trkpt>
<trkpt lat="42.276588" lon="3.267535"><ele>140.9</ele><time>2011-01-02T09:33:54Z</time></trkpt>
<trkpt lat="42.276520" lon="3.267617"><ele>141.6</ele><time>2011-01-02T09:33:59Z</time></trkpt>
<trkpt lat="42.276432" lon="3.267620"><ele>142.6</ele><time>2011-01-02T09:34:04Z</time></trkpt>
<trkpt lat="42.276387" lon="3.267518"><ele>143.6</ele><time>2011-01-02T09:34:09Z</time></trkpt>
<trkpt lat="42.276405" lon="3.267397"><ele>144.7</ele><time>2011-01-02T09:34:14Z</time></trkpt>
<trkpt lat="42.276437" lon="3.267280"><ele>145.7</ele><time>2011-01-02T09:34:19Z</time></trkpt>
<trkpt lat="42.276425" lon="3.267155"><ele>146.7</ele><time>2011-01-02T09:34:24Z</time></trkpt>
<trkpt lat="42.276413" lon="3.267033"><ele>147.8</ele><time>2011-01-02T09:34:29Z</time></trkpt>
<trkpt lat="42.276398" lon="3.266913"><ele>148.8</ele><time>2011-01-02T09:34:34Z</time></trkpt>
<trkpt lat="42.276393" lon="3.266790"><ele>150</ele><time>2011-01-02T09:34:39Z</time></trkpt>
<trkpt lat="42.276360" lon="3.266687"><ele>150.7</ele><time>2011-01-02T09:34:44Z</time></trkpt>
<trkpt lat="42.276302" lon="3.266595"><ele>151.4</ele><time>2011-01-02T09:34:49Z</time></trkpt>
<trkpt lat="42.276253" lon="3.266498"><ele>152.1</ele><time>2011-01-02T09:34:54Z</time></trkpt>
<trkpt lat="42.276192" lon="3.266417"><ele>152.7</ele><time>2011-01-02T09:34:59Z</time></trkpt>
<trkpt lat="42.276112" lon="3.266368"><ele>153.4</ele><time>2011-01-02T09:35:04Z</time></trkpt>
<trkpt lat="42.276032" lon="3.266393"><ele>154.1</ele><time>2011-01-02T09:35:09Z</time></trkpt>
<trkpt lat="42.275985" lon="3.266493"><ele>154.9</ele><time>2011-01-02T09:35:14Z</time></trkpt>
<trkpt lat="42.276002" lon="3.266613"><ele>155.6</ele><time>2011-01-02T09:35:19Z</time></trkpt>
<trkpt lat="42.276028" lon="3.266730"><ele>156.3</ele><time>2011-01-02T09:35:24Z</time></trkpt>
<trkpt lat="42.276028" lon="3.266845"><ele>157.2</ele><time>2011-01-02T09:35:29Z</time></trkpt>
<trkpt lat="42.276002" lon="3.266948"><ele>158.1</ele><time>2011-01-02T09:35:34Z</time></trkpt>
<trkpt lat="42.275943" lon="3.267025"><ele>158.8</ele><time>2011-01-02T09:35:39Z</time></trkpt>
<trkpt lat="42.275872" lon="3.267057"><ele>159.6</ele><time>2011-01-02T09:35:44Z</time></trkpt>
<trkpt lat="42.275792" lon="3.267073"><ele>160.1</ele><time>2011-01-02T09:35:49Z</time></trkpt>
<trkpt lat="42.275712" lon="3.267067"><ele>160.5</ele><time>2011-01-02T09:35:54Z</time></trkpt>
<trkpt lat="42.275635" lon="3.267095"><ele>160.8</ele><time>2011-01-02T09:35:59Z</time></trkpt>
<trkpt lat="42.275582" lon="3.267175"><ele>161.4</ele><time>2011-01-02T09:36:04Z</time></trkpt>
<trkpt lat="42.275523" lon="3.267238"><ele>162.1</ele><time>2011-01-02T09:36:09Z</time></trkpt>
<trkpt lat="42.275455" lon="3.267303"><ele>162.7</ele><time>2011-01-02T09:36:14Z</time></trkpt>
<trkpt lat="42.275398" lon="3.267377"><ele>163.3</ele><time>2011-01-02T09:36:19Z</time></trkpt>
<trkpt lat="42.275342" lon="3.267450"><ele>163.9</ele><time>2011-01-02T09:36:24Z</time></trkpt>
<trkpt lat="42.275292" lon="3.267538"><ele>164.6</ele><time>2011-01-02T09:36:29Z</time></trkpt>
<trkpt lat="42.275227" lon="3.267602"><ele>165.3</ele><time>2011-01-02T09:36:34Z</time></trkpt>
<trkpt lat="42.275162" lon="3.267660"><ele>166</ele><time>2011-01-02T09:36:39Z</time></trkpt>
<trkpt lat="42.275085" lon="3.267668"><ele>167</ele><time>2011-01-02T09:36:44Z</time></trkpt>
<trkpt lat="42.275020" lon="3.267610"><ele>167.6</ele><time>2011-01-02T09:36:49Z</time></trkpt>
<trkpt lat="42.274972" lon="3.267522"><ele>168.6</ele><time>2011-01-02T09:36:54Z</time></trkpt>
<trkpt lat="42.274948" lon="3.267420"><ele>169.7</ele><time>2011-01-02T09:36:59Z</time></trkpt>
<trkpt lat="42.274960" lon="3.267308"><ele>170.6</ele><time>2011-01-02T09:37:04Z</time></trkpt>
<trkpt lat="42.275025" lon="3.267205"><ele>171.2</ele><time>2011-01-02T09:37:09Z</time></trkpt>
<trkpt lat="42.275058" lon="3.267098"><ele>172.3</ele><time>2011-01-02T09:37:14Z</time></trkpt>
<trkpt lat="42.275090" lon="3.266985"><ele>173.4</ele><time>2011-01-02T09:37:19Z</time></trkpt>
<trkpt lat="42.275117" lon="3.266870"><ele>174.4</ele><time>2011-01-02T09:37:24Z</time></trkpt>
<trkpt lat="42.275143" lon="3.266758"><ele>175.5</ele><time>2011-01-02T09:37:29Z</time></trkpt>
<trkpt lat="42.275147" lon="3.266638"><ele>176.5</ele><time>2011-01-02T09:37:34Z</time></trkpt>
<trkpt lat="42.275093" lon="3.266535"><ele>177.1</ele><time>2011-01-02T09:37:39Z</time></trkpt>
<trkpt lat="42.275017" lon="3.266468"><ele>177.8</ele><time>2011-01-02T09:37:44Z</time></trkpt>
<trkpt lat="42.274925" lon="3.266455"><ele>178.5</ele><time>2011-01-02T09:37:49Z</time></trkpt>
<trkpt lat="42.274845" lon="3.266403"><ele>179.3</ele><time>2011-01-02T09:37:54Z</time></trkpt>
<trkpt lat="42.274765" lon="3.266352"><ele>180.2</ele><time>2011-01-02T09:37:59Z</time></trkpt>
<trkpt lat="42.274682" lon="3.266300"><ele>180.9</ele><time>2011-01-02T09:38:04Z</time></trkpt>
<trkpt lat="42.274582" lon="3.266267"><ele>181.5</ele><time>2011-01-02T09:38:09Z</time></trkpt>
<trkpt lat="42.274498" lon="3.266215"><ele>182.5</ele><time>2011-01-02T09:38:14Z</time></trkpt>
<trkpt lat="42.274407" lon="3.266177"><ele>183.6</ele><time>2011-01-02T09:38:19Z</time></trkpt>
<trkpt lat="42.274323" lon="3.266130"><ele>184.9</ele><time>2011-01-02T09:38:24Z</time></trkpt>
<trkpt lat="42.274250" lon="3.266047"><ele>185.9</ele><time>2011-01-02T09:38:29Z</time></trkpt>
<trkpt lat="42.274197" lon="3.265930"><ele>186.2</ele><time>2011-01-02T09:38:34Z</time></trkpt>
<trkpt lat="42.274140" lon="3.265827"><ele>187.1</ele><time>2011-01-02T09:38:39Z</time></trkpt>
<trkpt lat="42.274043" lon="3.265860"><ele>187.6</ele><time>2011-01-02T09:38:44Z</time></trkpt>
<trkpt lat="42.273972" lon="3.265990"><ele>187.7</ele><time>2011-01-02T09:38:49Z</time></trkpt>
<trkpt lat="42.273862" lon="3.266090"><ele>187.6</ele><time>2011-01-02T09:38:54Z</time></trkpt>
<trkpt lat="42.273720" lon="3.266157"><ele>187.4</ele><time>2011-01-02T09:38:59Z</time></trkpt>
<trkpt lat="42.273555" lon="3.266142"><ele>187</ele><time>2011-01-02T09:39:04Z</time></trkpt>
<trkpt lat="42.273418" lon="3.266040"><ele>187.5</ele><time>2011-01-02T09:39:09Z</time></trkpt>
<trkpt lat="42.273288" lon="3.265930"><ele>187.7</ele><time>2011-01-02T09:39:14Z</time></trkpt>
<trkpt lat="42.273178" lon="3.265802"><ele>188.7</ele><time>2011-01-02T09:39:19Z</time></trkpt>
<trkpt lat="42.273052" lon="3.265745"><ele>190.2</ele><time>2011-01-02T09:39:24Z</time></trkpt>
<trkpt lat="42.272942" lon="3.265627"><ele>191.5</ele><time>2011-01-02T09:39:29Z</time></trkpt>
<trkpt lat="42.272868" lon="3.265475"><ele>192.3</ele><time>2011-01-02T09:39:34Z</time></trkpt>
<trkpt lat="42.272773" lon="3.265333"><ele>192.1</ele><time>2011-01-02T09:39:39Z</time></trkpt>
<trkpt lat="42.272640" lon="3.265380"><ele>191.6</ele><time>2011-01-02T09:39:44Z</time></trkpt>
<trkpt lat="42.272633" lon="3.265590"><ele>191.7</ele><time>2011-01-02T09:39:49Z</time></trkpt>
<trkpt lat="42.272628" lon="3.265772"><ele>192.2</ele><time>2011-01-02T09:39:54Z</time></trkpt>
<trkpt lat="42.272580" lon="3.265917"><ele>192.5</ele><time>2011-01-02T09:39:59Z</time></trkpt>
<trkpt lat="42.272515" lon="3.266055"><ele>192.9</ele><time>2011-01-02T09:40:04Z</time></trkpt>
<trkpt lat="42.272488" lon="3.266213"><ele>193.2</ele><time>2011-01-02T09:40:09Z</time></trkpt>
<trkpt lat="42.272480" lon="3.266397"><ele>193.2</ele><time>2011-01-02T09:40:14Z</time></trkpt>
<trkpt lat="42.272457" lon="3.266565"><ele>193.7</ele><time>2011-01-02T09:40:19Z</time></trkpt>
<trkpt lat="42.272435" lon="3.266728"><ele>194.6</ele><time>2011-01-02T09:40:24Z</time></trkpt>
<trkpt lat="42.272362" lon="3.266860"><ele>195.4</ele><time>2011-01-02T09:40:29Z</time></trkpt>
<trkpt lat="42.272263" lon="3.266953"><ele>196.1</ele><time>2011-01-02T09:40:34Z</time></trkpt>
<trkpt lat="42.272140" lon="3.267025"><ele>196.4</ele><time>2011-01-02T09:40:39Z</time></trkpt>
<trkpt lat="42.272027" lon="3.267090"><ele>197</ele><time>2011-01-02T09:40:44Z</time></trkpt>
<trkpt lat="42.271908" lon="3.267197"><ele>197.4</ele><time>2011-01-02T09:40:49Z</time></trkpt>
<trkpt lat="42.271820" lon="3.267345"><ele>197.5</ele><time>2011-01-02T09:40:54Z</time></trkpt>
<trkpt lat="42.271732" lon="3.267490"><ele>197.7</ele><time>2011-01-02T09:40:59Z</time></trkpt>
<trkpt lat="42.271645" lon="3.267622"><ele>198</ele><time>2011-01-02T09:41:04Z</time></trkpt>
<trkpt lat="42.271550" lon="3.267723"><ele>198.8</ele><time>2011-01-02T09:41:09Z</time></trkpt>
<trkpt lat="42.271442" lon="3.267812"><ele>199.4</ele><time>2011-01-02T09:41:14Z</time></trkpt>
<trkpt lat="42.271340" lon="3.267883"><ele>200.2</ele><time>2011-01-02T09:41:19Z</time></trkpt>
<trkpt lat="42.271237" lon="3.267953"><ele>201</ele><time>2011-01-02T09:41:24Z</time></trkpt>
<trkpt lat="42.271133" lon="3.268018"><ele>201.9</ele><time>2011-01-02T09:41:29Z</time></trkpt>
<trkpt lat="42.271012" lon="3.268058"><ele>202.2</ele><time>2011-01-02T09:41:34Z</time></trkpt>
<trkpt lat="42.270858" lon="3.268100"><ele>202.4</ele><time>2011-01-02T09:41:39Z</time></trkpt>
<trkpt lat="42.270707" lon="3.268145"><ele>202.5</ele><time>2011-01-02T09:41:44Z</time></trkpt>
<trkpt lat="42.270547" lon="3.268203"><ele>202.7</ele><time>2011-01-02T09:41:49Z</time></trkpt>
<trkpt lat="42.270393" lon="3.268260"><ele>203</ele><time>2011-01-02T09:41:54Z</time></trkpt>
<trkpt lat="42.270237" lon="3.268328"><ele>203.1</ele><time>2011-01-02T09:41:59Z</time></trkpt>
<trkpt lat="42.270068" lon="3.268375"><ele>203.1</ele><time>2011-01-02T09:42:04Z</time></trkpt>
<trkpt lat="42.269928" lon="3.268265"><ele>203.6</ele><time>2011-01-02T09:42:09Z</time></trkpt>
<trkpt lat="42.269973" lon="3.268035"><ele>204</ele><time>2011-01-02T09:42:14Z</time></trkpt>
<trkpt lat="42.270053" lon="3.267812"><ele>204.2</ele><time>2011-01-02T09:42:19Z</time></trkpt>
<trkpt lat="42.269947" lon="3.267632"><ele>205</ele><time>2011-01-02T09:42:24Z</time></trkpt>
<trkpt lat="42.269813" lon="3.267588"><ele>206.2</ele><time>2011-01-02T09:42:29Z</time></trkpt>
<trkpt lat="42.269680" lon="3.267583"><ele>206.9</ele><time>2011-01-02T09:42:34Z</time></trkpt>
<trkpt lat="42.269553" lon="3.267592"><ele>207.6</ele><time>2011-01-02T09:42:39Z</time></trkpt>
<trkpt lat="42.269447" lon="3.267617"><ele>207.9</ele><time>2011-01-02T09:42:44Z</time></trkpt>
<trkpt lat="42.269328" lon="3.267637"><ele>208.4</ele><time>2011-01-02T09:42:49Z</time></trkpt>
<trkpt lat="42.269222" lon="3.267678"><ele>209</ele><time>2011-01-02T09:42:54Z</time></trkpt>
<trkpt lat="42.269120" lon="3.267715"><ele>209.8</ele><time>2011-01-02T09:42:59Z</time></trkpt>
<trkpt lat="42.269008" lon="3.267738"><ele>210.5</ele><time>2011-01-02T09:43:04Z</time></trkpt>
<trkpt lat="42.268925" lon="3.267772"><ele>211.3</ele><time>2011-01-02T09:43:09Z</time></trkpt>
<trkpt lat="42.268848" lon="3.267805"><ele>212.1</ele><time>2011-01-02T09:43:14Z</time></trkpt>
<trkpt lat="42.268772" lon="3.267833"><ele>212.9</ele><time>2011-01-02T09:43:19Z</time></trkpt>
<trkpt lat="42.268695" lon="3.267832"><ele>213.7</ele><time>2011-01-02T09:43:24Z</time></trkpt>
<trkpt lat="42.268600" lon="3.267803"><ele>213.7</ele><time>2011-01-02T09:43:29Z</time></trkpt>
<trkpt lat="42.268517" lon="3.267797"><ele>214.3</ele><time>2011-01-02T09:43:34Z</time></trkpt>
<trkpt lat="42.268440" lon="3.267777"><ele>214.8</ele><time>2011-01-02T09:43:39Z</time></trkpt>
<trkpt lat="42.268368" lon="3.267747"><ele>215.6</ele><time>2011-01-02T09:43:44Z</time></trkpt>
<trkpt lat="42.268303" lon="3.267677"><ele>216.5</ele><time>2011-01-02T09:43:49Z</time></trkpt>
<trkpt lat="42.268292" lon="3.267565"><ele>217.7</ele><time>2011-01-02T09:43:54Z</time></trkpt>
<trkpt lat="42.268322" lon="3.267453"><ele>218.9</ele><time>2011-01-02T09:43:59Z</time></trkpt>
<trkpt lat="42.268372" lon="3.267352"><ele>220.1</ele><time>2011-01-02T09:44:04Z</time></trkpt>
<trkpt lat="42.268410" lon="3.267238"><ele>221.3</ele><time>2011-01-02T09:44:09Z</time></trkpt>
<trkpt lat="42.268440" lon="3.267123"><ele>222.3</ele><time>2011-01-02T09:44:14Z</time></trkpt>
<trkpt lat="42.268470" lon="3.267007"><ele>223.3</ele><time>2011-01-02T09:44:19Z</time></trkpt>
<trkpt lat="42.268505" lon="3.266893"><ele>224.3</ele><time>2011-01-02T09:44:24Z</time></trkpt>
<trkpt lat="42.268540" lon="3.266780"><ele>225.1</ele><time>2011-01-02T09:44:29Z</time></trkpt>
<trkpt lat="42.268588" lon="3.266675"><ele>225.9</ele><time>2011-01-02T09:44:34Z</time></trkpt>
<trkpt lat="42.268627" lon="3.266555"><ele>226.6</ele><time>2011-01-02T09:44:39Z</time></trkpt>
<trkpt lat="42.268665" lon="3.266433"><ele>227.3</ele><time>2011-01-02T09:44:44Z</time></trkpt>
<trkpt lat="42.268718" lon="3.266303"><ele>227.9</ele><time>2011-01-02T09:44:49Z</time></trkpt>
<trkpt lat="42.268792" lon="3.266167"><ele>228</ele><time>2011-01-02T09:44:54Z</time></trkpt>
<trkpt lat="42.268825" lon="3.265988"><ele>226.9</ele><time>2011-01-02T09:44:59Z</time></trkpt>
<trkpt lat="42.268703" lon="3.265802"><ele>226.1</ele><time>2011-01-02T09:45:04Z</time></trkpt>
<trkpt lat="42.268508" lon="3.265825"><ele>225.5</ele><time>2011-01-02T09:45:09Z</time></trkpt>
<trkpt lat="42.268322" lon="3.265853"><ele>225.8</ele><time>2011-01-02T09:45:14Z</time></trkpt>
<trkpt lat="42.268177" lon="3.265750"><ele>226.4</ele><time>2011-01-02T09:45:19Z</time></trkpt>
<trkpt lat="42.268082" lon="3.265547"><ele>226.5</ele><time>2011-01-02T09:45:24Z</time></trkpt>
<trkpt lat="42.268073" lon="3.265287"><ele>225.9</ele><time>2011-01-02T09:45:29Z</time></trkpt>
<trkpt lat="42.268090" lon="3.265112"><ele>225.6</ele><time>2011-01-02T09:45:34Z</time></trkpt>
<trkpt lat="42.268117" lon="3.264902"><ele>225</ele><time>2011-01-02T09:45:39Z</time></trkpt>
<trkpt lat="42.268112" lon="3.264655"><ele>224.6</ele><time>2011-01-02T09:45:44Z</time></trkpt>
<trkpt lat="42.268078" lon="3.264442"><ele>224.3</ele><time>2011-01-02T09:45:49Z</time></trkpt>
<trkpt lat="42.268025" lon="3.264230"><ele>224.2</ele><time>2011-01-02T09:45:54Z</time></trkpt>
<trkpt lat="42.267978" lon="3.263978"><ele>223.8</ele><time>2011-01-02T09:45:59Z</time></trkpt>
<trkpt lat="42.267940" lon="3.263685"><ele>223.1</ele><time>2011-01-02T09:46:04Z</time></trkpt>
<trkpt lat="42.267887" lon="3.263418"><ele>223</ele><time>2011-01-02T09:46:09Z</time></trkpt>
<trkpt lat="42.267688" lon="3.263413"><ele>222.8</ele><time>2011-01-02T09:46:14Z</time></trkpt>
<trkpt lat="42.267460" lon="3.263503"><ele>222</ele><time>2011-01-02T09:46:19Z</time></trkpt>
<trkpt lat="42.267232" lon="3.263598"><ele>221.3</ele><time>2011-01-02T09:46:24Z</time></trkpt>
<trkpt lat="42.266972" lon="3.263612"><ele>220.3</ele><time>2011-01-02T09:46:29Z</time></trkpt>
<trkpt lat="42.266723" lon="3.263787"><ele>219.4</ele><time>2011-01-02T09:46:34Z</time></trkpt>
<trkpt lat="42.266518" lon="3.264062"><ele>218.5</ele><time>2011-01-02T09:46:39Z</time></trkpt>
<trkpt lat="42.266350" lon="3.264357"><ele>218.2</ele><time>2011-01-02T09:46:44Z</time></trkpt>
<trkpt lat="42.266163" lon="3.264620"><ele>218.1</ele><time>2011-01-02T09:46:49Z</time></trkpt>
<trkpt lat="42.265977" lon="3.264845"><ele>218</ele><time>2011-01-02T09:46:54Z</time></trkpt>
<trkpt lat="42.265762" lon="3.265047"><ele>217.9</ele><time>2011-01-02T09:46:59Z</time></trkpt>
<trkpt lat="42.265557" lon="3.265267"><ele>217.6</ele><time>2011-01-02T09:47:04Z</time></trkpt>
<trkpt lat="42.265332" lon="3.265445"><ele>217.3</ele><time>2011-01-02T09:47:09Z</time></trkpt>
<trkpt lat="42.265095" lon="3.265635"><ele>216.6</ele><time>2011-01-02T09:47:14Z</time></trkpt>
<trkpt lat="42.264823" lon="3.265748"><ele>216.5</ele><time>2011-01-02T09:47:19Z</time></trkpt>
<trkpt lat="42.264607" lon="3.265637"><ele>217.7</ele><time>2011-01-02T09:47:24Z</time></trkpt>
<trkpt lat="42.264527" lon="3.265407"><ele>219.3</ele><time>2011-01-02T09:47:29Z</time></trkpt>
<trkpt lat="42.264492" lon="3.265125"><ele>219.9</ele><time>2011-01-02T09:47:34Z</time></trkpt>
<trkpt lat="42.264397" lon="3.264828"><ele>220.7</ele><time>2011-01-02T09:47:39Z</time></trkpt>
<trkpt lat="42.264297" lon="3.264553"><ele>221.7</ele><time>2011-01-02T09:47:44Z</time></trkpt>
<trkpt lat="42.264217" lon="3.264282"><ele>222.7</ele><time>2011-01-02T09:47:49Z</time></trkpt>
<trkpt lat="42.264098" lon="3.264022"><ele>222.4</ele><time>2011-01-02T09:47:54Z</time></trkpt>
<trkpt lat="42.263870" lon="3.263935"><ele>222.3</ele><time>2011-01-02T09:47:59Z</time></trkpt>
<trkpt lat="42.263622" lon="3.263902"><ele>222.3</ele><time>2011-01-02T09:48:04Z</time></trkpt>
<trkpt lat="42.263520" lon="3.263638"><ele>222</ele><time>2011-01-02T09:48:09Z</time></trkpt>
<trkpt lat="42.263508" lon="3.263367"><ele>222.3</ele><time>2011-01-02T09:48:14Z</time></trkpt>
<trkpt lat="42.263503" lon="3.263125"><ele>222.8</ele><time>2011-01-02T09:48:19Z</time></trkpt>
<trkpt lat="42.263520" lon="3.262887"><ele>223.3</ele><time>2011-01-02T09:48:24Z</time></trkpt>
<trkpt lat="42.263550" lon="3.262640"><ele>223.5</ele><time>2011-01-02T09:48:29Z</time></trkpt>
<trkpt lat="42.263562" lon="3.262387"><ele>224.2</ele><time>2011-01-02T09:48:34Z</time></trkpt>
<trkpt lat="42.263592" lon="3.262150"><ele>224.8</ele><time>2011-01-02T09:48:39Z</time></trkpt>
<trkpt lat="42.263622" lon="3.261918"><ele>225.5</ele><time>2011-01-02T09:48:44Z</time></trkpt>
<trkpt lat="42.263645" lon="3.261703"><ele>226.7</ele><time>2011-01-02T09:48:49Z</time></trkpt>
<trkpt lat="42.263645" lon="3.261502"><ele>227.7</ele><time>2011-01-02T09:48:54Z</time></trkpt>
<trkpt lat="42.263642" lon="3.261303"><ele>228.2</ele><time>2011-01-02T09:48:59Z</time></trkpt>
<trkpt lat="42.263633" lon="3.261105"><ele>228.9</ele><time>2011-01-02T09:49:04Z</time></trkpt>
<trkpt lat="42.263657" lon="3.260898"><ele>229.5</ele><time>2011-01-02T09:49:09Z</time></trkpt>
<trkpt lat="42.263710" lon="3.260678"><ele>229.5</ele><time>2011-01-02T09:49:14Z</time></trkpt>
<trkpt lat="42.263805" lon="3.260443"><ele>229</ele><time>2011-01-02T09:49:19Z</time></trkpt>
<trkpt lat="42.263947" lon="3.260253"><ele>228.8</ele><time>2011-01-02T09:49:24Z</time></trkpt>
<trkpt lat="42.264092" lon="3.260050"><ele>227.9</ele><time>2011-01-02T09:49:29Z</time></trkpt>
<trkpt lat="42.264198" lon="3.259913"><ele>227.7</ele><time>2011-01-02T09:49:34Z</time></trkpt>
<trkpt lat="42.264202" lon="3.259910"><ele>227.6</ele><time>2011-01-02T09:49:39Z</time></trkpt>
<trkpt lat="42.264195" lon="3.259920"><ele>227.8</ele><time>2011-01-02T09:49:44Z</time></trkpt>
<trkpt lat="42.264210" lon="3.259917"><ele>228.1</ele><time>2011-01-02T09:49:49Z</time></trkpt>
<trkpt lat="42.264233" lon="3.259902"><ele>229</ele><time>2011-01-02T09:49:54Z</time></trkpt>
<trkpt lat="42.264243" lon="3.259865"><ele>228.7</ele><time>2011-01-02T09:49:59Z</time></trkpt>
<trkpt lat="42.264243" lon="3.259865"><ele>228.3</ele><time>2011-01-02T09:50:04Z</time></trkpt>
<trkpt lat="42.264243" lon="3.259863"><ele>228</ele><time>2011-01-02T09:50:09Z</time></trkpt>
<trkpt lat="42.264243" lon="3.259865"><ele>227.9</ele><time>2011-01-02T09:50:14Z</time></trkpt>
<trkpt lat="42.264240" lon="3.259865"><ele>227.9</ele><time>2011-01-02T09:50:19Z</time></trkpt>
<trkpt lat="42.264240" lon="3.259867"><ele>227.8</ele><time>2011-01-02T09:50:24Z</time></trkpt>
<trkpt lat="42.264240" lon="3.259865"><ele>227.7</ele><time>2011-01-02T09:50:29Z</time></trkpt>
<trkpt lat="42.264237" lon="3.259865"><ele>227.9</ele><time>2011-01-02T09:50:34Z</time></trkpt>
<trkpt lat="42.264240" lon="3.259868"><ele>227.9</ele><time>2011-01-02T09:50:39Z</time></trkpt>
<trkpt lat="42.264240" lon="3.259868"><ele>228</ele><time>2011-01-02T09:50:44Z</time></trkpt>
<trkpt lat="42.264302" lon="3.259835"><ele>228.1</ele><time>2011-01-02T09:50:49Z</time></trkpt>
<trkpt lat="42.264415" lon="3.259720"><ele>227.8</ele><time>2011-01-02T09:50:54Z</time></trkpt>
<trkpt lat="42.264595" lon="3.259653"><ele>227.5</ele><time>2011-01-02T09:50:59Z</time></trkpt>
<trkpt lat="42.264763" lon="3.259568"><ele>227.4</ele><time>2011-01-02T09:51:04Z</time></trkpt>
<trkpt lat="42.264903" lon="3.259372"><ele>226.5</ele><time>2011-01-02T09:51:09Z</time></trkpt>
<trkpt lat="42.265033" lon="3.259130"><ele>225.7</ele><time>2011-01-02T09:51:14Z</time></trkpt>
<trkpt lat="42.265163" lon="3.258873"><ele>225.3</ele><time>2011-01-02T09:51:19Z</time></trkpt>
<trkpt lat="42.265255" lon="3.258597"><ele>225</ele><time>2011-01-02T09:51:24Z</time></trkpt>
<trkpt lat="42.265327" lon="3.258272"><ele>224.7</ele><time>2011-01-02T09:51:29Z</time></trkpt>
<trkpt lat="42.265320" lon="3.257918"><ele>224.8</ele><time>2011-01-02T09:51:34Z</time></trkpt>
<trkpt lat="42.265327" lon="3.257567"><ele>224.9</ele><time>2011-01-02T09:51:39Z</time></trkpt>
<trkpt lat="42.265358" lon="3.257210"><ele>225.5</ele><time>2011-01-02T09:51:44Z</time></trkpt>
<trkpt lat="42.265403" lon="3.256883"><ele>225.8</ele><time>2011-01-02T09:51:49Z</time></trkpt>
<trkpt lat="42.265492" lon="3.256562"><ele>226.2</ele><time>2011-01-02T09:51:54Z</time></trkpt>
<trkpt lat="42.265587" lon="3.256232"><ele>226.4</ele><time>2011-01-02T09:51:59Z</time></trkpt>
<trkpt lat="42.265670" lon="3.255903"><ele>226.6</ele><time>2011-01-02T09:52:04Z</time></trkpt>
<trkpt lat="42.265773" lon="3.255602"><ele>226.3</ele><time>2011-01-02T09:52:09Z</time></trkpt>
<trkpt lat="42.265938" lon="3.255375"><ele>225.8</ele><time>2011-01-02T09:52:14Z</time></trkpt>
<trkpt lat="42.266182" lon="3.255298"><ele>225.2</ele><time>2011-01-02T09:52:19Z</time></trkpt>
<trkpt lat="42.266433" lon="3.255188"><ele>224.5</ele><time>2011-01-02T09:52:24Z</time></trkpt>
<trkpt lat="42.266690" lon="3.255117"><ele>224.1</ele><time>2011-01-02T09:52:29Z</time></trkpt>
<trkpt lat="42.266963" lon="3.255105"><ele>223.5</ele><time>2011-01-02T09:52:34Z</time></trkpt>
<trkpt lat="42.267152" lon="3.254892"><ele>222.4</ele><time>2011-01-02T09:52:39Z</time></trkpt>
<trkpt lat="42.267155" lon="3.254510"><ele>221.6</ele><time>2011-01-02T09:52:44Z</time></trkpt>
<trkpt lat="42.267297" lon="3.254188"><ele>221</ele><time>2011-01-02T09:52:49Z</time></trkpt>
<trkpt lat="42.267532" lon="3.253985"><ele>220.2</ele><time>2011-01-02T09:52:54Z</time></trkpt>
<trkpt lat="42.267827" lon="3.253892"><ele>219.6</ele><time>2011-01-02T09:52:59Z</time></trkpt>
<trkpt lat="42.268013" lon="3.253860"><ele>219.5</ele><time>2011-01-02T09:53:04Z</time></trkpt>
<trkpt lat="42.268135" lon="3.253818"><ele>219.1</ele><time>2011-01-02T09:53:09Z</time></trkpt>
<trkpt lat="42.268208" lon="3.253652"><ele>218.6</ele><time>2011-01-02T09:53:14Z</time></trkpt>
<trkpt lat="42.268058" lon="3.253415"><ele>217.4</ele><time>2011-01-02T09:53:19Z</time></trkpt>
<trkpt lat="42.267872" lon="3.253122"><ele>215.7</ele><time>2011-01-02T09:53:24Z</time></trkpt>
<trkpt lat="42.267788" lon="3.252758"><ele>213.8</ele><time>2011-01-02T09:53:29Z</time></trkpt>
<trkpt lat="42.267887" lon="3.252372"><ele>211.7</ele><time>2011-01-02T09:53:34Z</time></trkpt>
<trkpt lat="42.267948" lon="3.251960"><ele>209.6</ele><time>2011-01-02T09:53:39Z</time></trkpt>
<trkpt lat="42.267907" lon="3.251527"><ele>207.1</ele><time>2011-01-02T09:53:44Z</time></trkpt>
<trkpt lat="42.267685" lon="3.251200"><ele>205.5</ele><time>2011-01-02T09:53:49Z</time></trkpt>
<trkpt lat="42.267478" lon="3.250837"><ele>203.3</ele><time>2011-01-02T09:53:54Z</time></trkpt>
<trkpt lat="42.267247" lon="3.250490"><ele>201.1</ele><time>2011-01-02T09:53:59Z</time></trkpt>
<trkpt lat="42.267178" lon="3.250080"><ele>198.8</ele><time>2011-01-02T09:54:04Z</time></trkpt>
<trkpt lat="42.267307" lon="3.249677"><ele>196.8</ele><time>2011-01-02T09:54:09Z</time></trkpt>
<trkpt lat="42.267513" lon="3.249310"><ele>194.8</ele><time>2011-01-02T09:54:14Z</time></trkpt>
<trkpt lat="42.267510" lon="3.248988"><ele>193.5</ele><time>2011-01-02T09:54:19Z</time></trkpt>
<trkpt lat="42.267208" lon="3.249042"><ele>191.7</ele><time>2011-01-02T09:54:24Z</time></trkpt>
<trkpt lat="42.266842" lon="3.249172"><ele>189.9</ele><time>2011-01-02T09:54:29Z</time></trkpt>
<trkpt lat="42.266480" lon="3.249180"><ele>187.6</ele><time>2011-01-02T09:54:34Z</time></trkpt>
<trkpt lat="42.266090" lon="3.249250"><ele>185</ele><time>2011-01-02T09:54:39Z</time></trkpt>
<trkpt lat="42.265708" lon="3.249380"><ele>183</ele><time>2011-01-02T09:54:44Z</time></trkpt>
<trkpt lat="42.265353" lon="3.249483"><ele>180.9</ele><time>2011-01-02T09:54:49Z</time></trkpt>
<trkpt lat="42.265042" lon="3.249343"><ele>178.6</ele><time>2011-01-02T09:54:54Z</time></trkpt>
<trkpt lat="42.264767" lon="3.249063"><ele>175.7</ele><time>2011-01-02T09:54:59Z</time></trkpt>
<trkpt lat="42.264497" lon="3.248702"><ele>172.2</ele><time>2011-01-02T09:55:04Z</time></trkpt>
<trkpt lat="42.264190" lon="3.248375"><ele>168.3</ele><time>2011-01-02T09:55:09Z</time></trkpt>
<trkpt lat="42.264098" lon="3.247938"><ele>164.8</ele><time>2011-01-02T09:55:14Z</time></trkpt>
<trkpt lat="42.264077" lon="3.247493"><ele>161.7</ele><time>2011-01-02T09:55:19Z</time></trkpt>
<trkpt lat="42.263745" lon="3.247405"><ele>159.4</ele><time>2011-01-02T09:55:24Z</time></trkpt>
<trkpt lat="42.263385" lon="3.247260"><ele>156.2</ele><time>2011-01-02T09:55:29Z</time></trkpt>
<trkpt lat="42.263047" lon="3.247008"><ele>154</ele><time>2011-01-02T09:55:34Z</time></trkpt>
<trkpt lat="42.262893" lon="3.246672"><ele>151.3</ele><time>2011-01-02T09:55:39Z</time></trkpt>
<trkpt lat="42.262952" lon="3.246212"><ele>148.3</ele><time>2011-01-02T09:55:44Z</time></trkpt>
<trkpt lat="42.262802" lon="3.245772"><ele>145</ele><time>2011-01-02T09:55:49Z</time></trkpt>
<trkpt lat="42.262458" lon="3.245527"><ele>141.6</ele><time>2011-01-02T09:55:54Z</time></trkpt>
<trkpt lat="42.262157" lon="3.245315"><ele>138.3</ele><time>2011-01-02T09:55:59Z</time></trkpt>
<trkpt lat="42.262002" lon="3.244905"><ele>135</ele><time>2011-01-02T09:56:04Z</time></trkpt>
<trkpt lat="42.262142" lon="3.244473"><ele>131.6</ele><time>2011-01-02T09:56:09Z</time></trkpt>
<trkpt lat="42.262402" lon="3.244095"><ele>128.5</ele><time>2011-01-02T09:56:14Z</time></trkpt>
<trkpt lat="42.262650" lon="3.243883"><ele>126.2</ele><time>2011-01-02T09:56:19Z</time></trkpt>
<trkpt lat="42.262535" lon="3.243698"><ele>123.9</ele><time>2011-01-02T09:56:24Z</time></trkpt>
<trkpt lat="42.262283" lon="3.243860"><ele>121.3</ele><time>2011-01-02T09:56:29Z</time></trkpt>
<trkpt lat="42.261993" lon="3.244072"><ele>117.9</ele><time>2011-01-02T09:56:34Z</time></trkpt>
<trkpt lat="42.261700" lon="3.244295"><ele>114</ele><time>2011-01-02T09:56:39Z</time></trkpt>
<trkpt lat="42.261525" lon="3.244743"><ele>110.5</ele><time>2011-01-02T09:56:44Z</time></trkpt>
<trkpt lat="42.261348" lon="3.245210"><ele>106.9</ele><time>2011-01-02T09:56:49Z</time></trkpt>
<trkpt lat="42.261218" lon="3.245672"><ele>103.8</ele><time>2011-01-02T09:56:54Z</time></trkpt>
<trkpt lat="42.261333" lon="3.246052"><ele>101.3</ele><time>2011-01-02T09:56:59Z</time></trkpt>
<trkpt lat="42.261642" lon="3.246342"><ele>98.4</ele><time>2011-01-02T09:57:04Z</time></trkpt>
<trkpt lat="42.261647" lon="3.246808"><ele>95.7</ele><time>2011-01-02T09:57:09Z</time></trkpt>
<trkpt lat="42.261662" lon="3.247333"><ele>91.9</ele><time>2011-01-02T09:57:14Z</time></trkpt>
<trkpt lat="42.261723" lon="3.247853"><ele>88.1</ele><time>2011-01-02T09:57:19Z</time></trkpt>
<trkpt lat="42.261917" lon="3.248300"><ele>84.7</ele><time>2011-01-02T09:57:24Z</time></trkpt>
<trkpt lat="42.261783" lon="3.248602"><ele>82.8</ele><time>2011-01-02T09:57:29Z</time></trkpt>
<trkpt lat="42.261487" lon="3.248647"><ele>81.1</ele><time>2011-01-02T09:57:34Z</time></trkpt>
<trkpt lat="42.261162" lon="3.248750"><ele>78.8</ele><time>2011-01-02T09:57:39Z</time></trkpt>
<trkpt lat="42.260815" lon="3.248947"><ele>75</ele><time>2011-01-02T09:57:44Z</time></trkpt>
<trkpt lat="42.260440" lon="3.249152"><ele>71.9</ele><time>2011-01-02T09:57:49Z</time></trkpt>
<trkpt lat="42.260158" lon="3.249365"><ele>69.2</ele><time>2011-01-02T09:57:54Z</time></trkpt>
<trkpt lat="42.260067" lon="3.249262"><ele>67.5</ele><time>2011-01-02T09:57:59Z</time></trkpt>
<trkpt lat="42.260268" lon="3.249057"><ele>65</ele><time>2011-01-02T09:58:04Z</time></trkpt>
<trkpt lat="42.260582" lon="3.248835"><ele>62</ele><time>2011-01-02T09:58:09Z</time></trkpt>
<trkpt lat="42.260875" lon="3.248518"><ele>59.5</ele><time>2011-01-02T09:58:14Z</time></trkpt>
<trkpt lat="42.261185" lon="3.248265"><ele>56.9</ele><time>2011-01-02T09:58:19Z</time></trkpt>
<trkpt lat="42.261170" lon="3.247880"><ele>54.8</ele><time>2011-01-02T09:58:24Z</time></trkpt>
<trkpt lat="42.260972" lon="3.247460"><ele>51.7</ele><time>2011-01-02T09:58:29Z</time></trkpt>
<trkpt lat="42.260812" lon="3.246990"><ele>49.3</ele><time>2011-01-02T09:58:34Z</time></trkpt>
<trkpt lat="42.260468" lon="3.246788"><ele>46</ele><time>2011-01-02T09:58:39Z</time></trkpt>
<trkpt lat="42.260288" lon="3.246680"><ele>44.1</ele><time>2011-01-02T09:58:44Z</time></trkpt>
<trkpt lat="42.260280" lon="3.246683"><ele>44</ele><time>2011-01-02T09:58:49Z</time></trkpt>
<trkpt lat="42.260277" lon="3.246682"><ele>43.9</ele><time>2011-01-02T09:58:54Z</time></trkpt>
<trkpt lat="42.260250" lon="3.246678"><ele>44.9</ele><time>2011-01-02T09:58:59Z</time></trkpt>
<trkpt lat="42.260220" lon="3.246682"><ele>45.2</ele><time>2011-01-02T09:59:04Z</time></trkpt>
<trkpt lat="42.260067" lon="3.246627"><ele>43.3</ele><time>2011-01-02T09:59:09Z</time></trkpt>
<trkpt lat="42.259895" lon="3.246375"><ele>40.3</ele><time>2011-01-02T09:59:14Z</time></trkpt>
<trkpt lat="42.259782" lon="3.246002"><ele>38.9</ele><time>2011-01-02T09:59:19Z</time></trkpt>
<trkpt lat="42.259773" lon="3.245687"><ele>39.3</ele><time>2011-01-02T09:59:24Z</time></trkpt>
<trkpt lat="42.259872" lon="3.245520"><ele>40.6</ele><time>2011-01-02T09:59:29Z</time></trkpt>
<trkpt lat="42.259987" lon="3.245377"><ele>41.3</ele><time>2011-01-02T09:59:34Z</time></trkpt>
<trkpt lat="42.260120" lon="3.245247"><ele>42.2</ele><time>2011-01-02T09:59:39Z</time></trkpt>
<trkpt lat="42.260215" lon="3.245105"><ele>43.2</ele><time>2011-01-02T09:59:44Z</time></trkpt>
<trkpt lat="42.260297" lon="3.244955"><ele>44.3</ele><time>2011-01-02T09:59:49Z</time></trkpt>
<trkpt lat="42.260333" lon="3.244785"><ele>45.1</ele><time>2011-01-02T09:59:54Z</time></trkpt>
<trkpt lat="42.260247" lon="3.244665"><ele>45.9</ele><time>2011-01-02T09:59:59Z</time></trkpt>
<trkpt lat="42.260120" lon="3.244730"><ele>46.8</ele><time>2011-01-02T10:00:04Z</time></trkpt>
<trkpt lat="42.260028" lon="3.244885"><ele>47.5</ele><time>2011-01-02T10:00:09Z</time></trkpt>
<trkpt lat="42.259948" lon="3.245048"><ele>48.2</ele><time>2011-01-02T10:00:14Z</time></trkpt>
<trkpt lat="42.259842" lon="3.245207"><ele>48.4</ele><time>2011-01-02T10:00:19Z</time></trkpt>
<trkpt lat="42.259735" lon="3.245337"><ele>49</ele><time>2011-01-02T10:00:24Z</time></trkpt>
<trkpt lat="42.259613" lon="3.245470"><ele>49.5</ele><time>2011-01-02T10:00:29Z</time></trkpt>
<trkpt lat="42.259472" lon="3.245560"><ele>49.8</ele><time>2011-01-02T10:00:34Z</time></trkpt>
<trkpt lat="42.259320" lon="3.245560"><ele>50.3</ele><time>2011-01-02T10:00:39Z</time></trkpt>
<trkpt lat="42.259167" lon="3.245503"><ele>51.2</ele><time>2011-01-02T10:00:44Z</time></trkpt>
<trkpt lat="42.259007" lon="3.245445"><ele>52.5</ele><time>2011-01-02T10:00:49Z</time></trkpt>
<trkpt lat="42.258877" lon="3.245512"><ele>53.1</ele><time>2011-01-02T10:00:54Z</time></trkpt>
<trkpt lat="42.258865" lon="3.245707"><ele>53.6</ele><time>2011-01-02T10:00:59Z</time></trkpt>
<trkpt lat="42.258933" lon="3.245863"><ele>54.4</ele><time>2011-01-02T10:01:04Z</time></trkpt>
<trkpt lat="42.259010" lon="3.246007"><ele>55.2</ele><time>2011-01-02T10:01:09Z</time></trkpt>
<trkpt lat="42.259068" lon="3.246143"><ele>55.9</ele><time>2011-01-02T10:01:14Z</time></trkpt>
<trkpt lat="42.259095" lon="3.246298"><ele>56.7</ele><time>2011-01-02T10:01:19Z</time></trkpt>
<trkpt lat="42.259113" lon="3.246455"><ele>57</ele><time>2011-01-02T10:01:24Z</time></trkpt>
<trkpt lat="42.259137" lon="3.246632"><ele>57.7</ele><time>2011-01-02T10:01:29Z</time></trkpt>
<trkpt lat="42.259148" lon="3.246783"><ele>58.5</ele><time>2011-01-02T10:01:34Z</time></trkpt>
<trkpt lat="42.259163" lon="3.246932"><ele>59.2</ele><time>2011-01-02T10:01:39Z</time></trkpt>
<trkpt lat="42.259178" lon="3.247080"><ele>59.9</ele><time>2011-01-02T10:01:44Z</time></trkpt>
<trkpt lat="42.259190" lon="3.247230"><ele>60.7</ele><time>2011-01-02T10:01:49Z</time></trkpt>
<trkpt lat="42.259178" lon="3.247380"><ele>61.5</ele><time>2011-01-02T10:01:54Z</time></trkpt>
<trkpt lat="42.259113" lon="3.247507"><ele>62.3</ele><time>2011-01-02T10:01:59Z</time></trkpt>
<trkpt lat="42.259022" lon="3.247600"><ele>62.7</ele><time>2011-01-02T10:02:04Z</time></trkpt>
<trkpt lat="42.258907" lon="3.247668"><ele>63.6</ele><time>2011-01-02T10:02:09Z</time></trkpt>
<trkpt lat="42.258793" lon="3.247688"><ele>64.6</ele><time>2011-01-02T10:02:14Z</time></trkpt>
<trkpt lat="42.258682" lon="3.247697"><ele>65.4</ele><time>2011-01-02T10:02:19Z</time></trkpt>
<trkpt lat="42.258568" lon="3.247705"><ele>66.6</ele><time>2011-01-02T10:02:24Z</time></trkpt>
<trkpt lat="42.258462" lon="3.247718"><ele>67.9</ele><time>2011-01-02T10:02:29Z</time></trkpt>
<trkpt lat="42.258350" lon="3.247738"><ele>69.2</ele><time>2011-01-02T10:02:34Z</time></trkpt>
<trkpt lat="42.258228" lon="3.247782"><ele>69.8</ele><time>2011-01-02T10:02:39Z</time></trkpt>
<trkpt lat="42.258118" lon="3.247842"><ele>70.9</ele><time>2011-01-02T10:02:44Z</time></trkpt>
<trkpt lat="42.258012" lon="3.247913"><ele>71.8</ele><time>2011-01-02T10:02:49Z</time></trkpt>
<trkpt lat="42.257923" lon="3.248012"><ele>72.4</ele><time>2011-01-02T10:02:54Z</time></trkpt>
<trkpt lat="42.257840" lon="3.248130"><ele>72.7</ele><time>2011-01-02T10:02:59Z</time></trkpt>
<trkpt lat="42.257748" lon="3.248263"><ele>72.8</ele><time>2011-01-02T10:03:04Z</time></trkpt>
<trkpt lat="42.257648" lon="3.248388"><ele>72.9</ele><time>2011-01-02T10:03:09Z</time></trkpt>
<trkpt lat="42.257530" lon="3.248515"><ele>72.7</ele><time>2011-01-02T10:03:14Z</time></trkpt>
<trkpt lat="42.257412" lon="3.248660"><ele>73.4</ele><time>2011-01-02T10:03:19Z</time></trkpt>
<trkpt lat="42.257313" lon="3.248793"><ele>74.3</ele><time>2011-01-02T10:03:24Z</time></trkpt>
<trkpt lat="42.257228" lon="3.248907"><ele>75.3</ele><time>2011-01-02T10:03:29Z</time></trkpt>
<trkpt lat="42.257148" lon="3.249022"><ele>76.1</ele><time>2011-01-02T10:03:34Z</time></trkpt>
<trkpt lat="42.257062" lon="3.249132"><ele>77</ele><time>2011-01-02T10:03:39Z</time></trkpt>
<trkpt lat="42.256962" lon="3.249228"><ele>77.7</ele><time>2011-01-02T10:03:44Z</time></trkpt>
<trkpt lat="42.256852" lon="3.249277"><ele>78.3</ele><time>2011-01-02T10:03:49Z</time></trkpt>
<trkpt lat="42.256733" lon="3.249285"><ele>79.2</ele><time>2011-01-02T10:03:54Z</time></trkpt>
<trkpt lat="42.256615" lon="3.249222"><ele>80.1</ele><time>2011-01-02T10:03:59Z</time></trkpt>
<trkpt lat="42.256520" lon="3.249138"><ele>81.6</ele><time>2011-01-02T10:04:04Z</time></trkpt>
<trkpt lat="42.256467" lon="3.249010"><ele>82.7</ele><time>2011-01-02T10:04:09Z</time></trkpt>
<trkpt lat="42.256423" lon="3.248873"><ele>83.6</ele><time>2011-01-02T10:04:14Z</time></trkpt>
<trkpt lat="42.256375" lon="3.248735"><ele>84.7</ele><time>2011-01-02T10:04:19Z</time></trkpt>
<trkpt lat="42.256322" lon="3.248605"><ele>85.7</ele><time>2011-01-02T10:04:24Z</time></trkpt>
<trkpt lat="42.256225" lon="3.248502"><ele>86</ele><time>2011-01-02T10:04:29Z</time></trkpt>
<trkpt lat="42.256118" lon="3.248460"><ele>86.8</ele><time>2011-01-02T10:04:34Z</time></trkpt>
<trkpt lat="42.256012" lon="3.248517"><ele>87.8</ele><time>2011-01-02T10:04:39Z</time></trkpt>
<trkpt lat="42.255917" lon="3.248603"><ele>88.9</ele><time>2011-01-02T10:04:44Z</time></trkpt>
<trkpt lat="42.255802" lon="3.248633"><ele>89.8</ele><time>2011-01-02T10:04:49Z</time></trkpt>
<trkpt lat="42.255683" lon="3.248695"><ele>90</ele><time>2011-01-02T10:04:54Z</time></trkpt>
<trkpt lat="42.255577" lon="3.248768"><ele>90.6</ele><time>2011-01-02T10:04:59Z</time></trkpt>
<trkpt lat="42.255490" lon="3.248857"><ele>91.4</ele><time>2011-01-02T10:05:04Z</time></trkpt>
<trkpt lat="42.255402" lon="3.248953"><ele>92</ele><time>2011-01-02T10:05:09Z</time></trkpt>
<trkpt lat="42.255310" lon="3.249040"><ele>92.7</ele><time>2011-01-02T10:05:14Z</time></trkpt>
<trkpt lat="42.255222" lon="3.249123"><ele>93.5</ele><time>2011-01-02T10:05:19Z</time></trkpt>
<trkpt lat="42.255127" lon="3.249220"><ele>93.9</ele><time>2011-01-02T10:05:24Z</time></trkpt>
<trkpt lat="42.255035" lon="3.249295"><ele>94.8</ele><time>2011-01-02T10:05:29Z</time></trkpt>
<trkpt lat="42.254928" lon="3.249343"><ele>95.4</ele><time>2011-01-02T10:05:34Z</time></trkpt>
<trkpt lat="42.254822" lon="3.249388"><ele>96.1</ele><time>2011-01-02T10:05:39Z</time></trkpt>
<trkpt lat="42.254715" lon="3.249430"><ele>96.9</ele><time>2011-01-02T10:05:44Z</time></trkpt>
<trkpt lat="42.254605" lon="3.249467"><ele>97.7</ele><time>2011-01-02T10:05:49Z</time></trkpt>
<trkpt lat="42.254490" lon="3.249495"><ele>98.3</ele><time>2011-01-02T10:05:54Z</time></trkpt>
<trkpt lat="42.254383" lon="3.249500"><ele>99</ele><time>2011-01-02T10:05:59Z</time></trkpt>
<trkpt lat="42.254257" lon="3.249472"><ele>99.5</ele><time>2011-01-02T10:06:04Z</time></trkpt>
<trkpt lat="42.254150" lon="3.249412"><ele>100.5</ele><time>2011-01-02T10:06:09Z</time></trkpt>
<trkpt lat="42.254055" lon="3.249322"><ele>101.5</ele><time>2011-01-02T10:06:14Z</time></trkpt>
<trkpt lat="42.253975" lon="3.249192"><ele>102.6</ele><time>2011-01-02T10:06:19Z</time></trkpt>
<trkpt lat="42.253892" lon="3.249055"><ele>103.3</ele><time>2011-01-02T10:06:24Z</time></trkpt>
<trkpt lat="42.253780" lon="3.248888"><ele>102.7</ele><time>2011-01-02T10:06:29Z</time></trkpt>
<trkpt lat="42.253628" lon="3.248665"><ele>101.3</ele><time>2011-01-02T10:06:34Z</time></trkpt>
<trkpt lat="42.253463" lon="3.248438"><ele>100.4</ele><time>2011-01-02T10:06:39Z</time></trkpt>
<trkpt lat="42.253333" lon="3.248203"><ele>99.7</ele><time>2011-01-02T10:06:44Z</time></trkpt>
<trkpt lat="42.253377" lon="3.247923"><ele>98.9</ele><time>2011-01-02T10:06:49Z</time></trkpt>
<trkpt lat="42.253250" lon="3.247722"><ele>98</ele><time>2011-01-02T10:06:54Z</time></trkpt>
<trkpt lat="42.253022" lon="3.247803"><ele>96.9</ele><time>2011-01-02T10:06:59Z</time></trkpt>
<trkpt lat="42.252788" lon="3.247863"><ele>95.9</ele><time>2011-01-02T10:07:04Z</time></trkpt>
<trkpt lat="42.252572" lon="3.247752"><ele>94.9</ele><time>2011-01-02T10:07:09Z</time></trkpt>
<trkpt lat="42.252528" lon="3.247468"><ele>94.8</ele><time>2011-01-02T10:07:14Z</time></trkpt>
<trkpt lat="42.252610" lon="3.247222"><ele>95</ele><time>2011-01-02T10:07:19Z</time></trkpt>
<trkpt lat="42.252557" lon="3.247005"><ele>95.2</ele><time>2011-01-02T10:07:24Z</time></trkpt>
<trkpt lat="42.252377" lon="3.247162"><ele>94.2</ele><time>2011-01-02T10:07:29Z</time></trkpt>
<trkpt lat="42.252155" lon="3.247360"><ele>92.6</ele><time>2011-01-02T10:07:34Z</time></trkpt>
<trkpt lat="42.251892" lon="3.247565"><ele>91</ele><time>2011-01-02T10:07:39Z</time></trkpt>
<trkpt lat="42.251607" lon="3.247643"><ele>89.3</ele><time>2011-01-02T10:07:44Z</time></trkpt>
<trkpt lat="42.251293" lon="3.247640"><ele>87.9</ele><time>2011-01-02T10:07:49Z</time></trkpt>
<trkpt lat="42.250995" lon="3.247693"><ele>86.3</ele><time>2011-01-02T10:07:54Z</time></trkpt>
<trkpt lat="42.250702" lon="3.247753"><ele>84.8</ele><time>2011-01-02T10:07:59Z</time></trkpt>
<trkpt lat="42.250420" lon="3.247925"><ele>83</ele><time>2011-01-02T10:08:04Z</time></trkpt>
<trkpt lat="42.250252" lon="3.248278"><ele>81.1</ele><time>2011-01-02T10:08:09Z</time></trkpt>
<trkpt lat="42.250035" lon="3.248512"><ele>79.6</ele><time>2011-01-02T10:08:14Z</time></trkpt>
<trkpt lat="42.249752" lon="3.248580"><ele>78.1</ele><time>2011-01-02T10:08:19Z</time></trkpt>
<trkpt lat="42.249462" lon="3.248723"><ele>76.5</ele><time>2011-01-02T10:08:24Z</time></trkpt>
<trkpt lat="42.249322" lon="3.249072"><ele>74.9</ele><time>2011-01-02T10:08:29Z</time></trkpt>
<trkpt lat="42.249150" lon="3.249382"><ele>73</ele><time>2011-01-02T10:08:34Z</time></trkpt>
<trkpt lat="42.248867" lon="3.249568"><ele>71.4</ele><time>2011-01-02T10:08:39Z</time></trkpt>
<trkpt lat="42.248615" lon="3.249375"><ele>70.2</ele><time>2011-01-02T10:08:44Z</time></trkpt>
<trkpt lat="42.248443" lon="3.249065"><ele>69.1</ele><time>2011-01-02T10:08:49Z</time></trkpt>
<trkpt lat="42.248325" lon="3.248688"><ele>67.9</ele><time>2011-01-02T10:08:54Z</time></trkpt>
<trkpt lat="42.248275" lon="3.248277"><ele>67</ele><time>2011-01-02T10:08:59Z</time></trkpt>
<trkpt lat="42.248227" lon="3.247880"><ele>65.4</ele><time>2011-01-02T10:09:04Z</time></trkpt>
<trkpt lat="42.248127" lon="3.247515"><ele>63.2</ele><time>2011-01-02T10:09:09Z</time></trkpt>
<trkpt lat="42.247830" lon="3.247507"><ele>61.6</ele><time>2011-01-02T10:09:14Z</time></trkpt>
<trkpt lat="42.247733" lon="3.247308"><ele>59.7</ele><time>2011-01-02T10:09:19Z</time></trkpt>
<trkpt lat="42.247860" lon="3.246988"><ele>58.2</ele><time>2011-01-02T10:09:24Z</time></trkpt>
<trkpt lat="42.248032" lon="3.246652"><ele>56.7</ele><time>2011-01-02T10:09:29Z</time></trkpt>
<trkpt lat="42.248238" lon="3.246328"><ele>54.9</ele><time>2011-01-02T10:09:34Z</time></trkpt>
<trkpt lat="42.248523" lon="3.246180"><ele>53.2</ele><time>2011-01-02T10:09:39Z</time></trkpt>
<trkpt lat="42.248837" lon="3.246300"><ele>51.1</ele><time>2011-01-02T10:09:44Z</time></trkpt>
<trkpt lat="42.249142" lon="3.246477"><ele>49.5</ele><time>2011-01-02T10:09:49Z</time></trkpt>
<trkpt lat="42.249447" lon="3.246315"><ele>47.9</ele><time>2011-01-02T10:09:54Z</time></trkpt>
<trkpt lat="42.249710" lon="3.246003"><ele>45.8</ele><time>2011-01-02T10:09:59Z</time></trkpt>
<trkpt lat="42.249985" lon="3.245690"><ele>43.4</ele><time>2011-01-02T10:10:04Z</time></trkpt>
<trkpt lat="42.250317" lon="3.245527"><ele>41.3</ele><time>2011-01-02T10:10:09Z</time></trkpt>
<trkpt lat="42.250652" lon="3.245442"><ele>39.5</ele><time>2011-01-02T10:10:14Z</time></trkpt>
<trkpt lat="42.250965" lon="3.245445"><ele>38</ele><time>2011-01-02T10:10:19Z</time></trkpt>
<trkpt lat="42.251113" lon="3.245110"><ele>36.6</ele><time>2011-01-02T10:10:24Z</time></trkpt>
<trkpt lat="42.250995" lon="3.244717"><ele>34.6</ele><time>2011-01-02T10:10:29Z</time></trkpt>
<trkpt lat="42.251068" lon="3.244333"><ele>32.9</ele><time>2011-01-02T10:10:34Z</time></trkpt>
<trkpt lat="42.251290" lon="3.244030"><ele>31.2</ele><time>2011-01-02T10:10:39Z</time></trkpt>
<trkpt lat="42.251537" lon="3.243788"><ele>29.9</ele><time>2011-01-02T10:10:44Z</time></trkpt>
<trkpt lat="42.251660" lon="3.243447"><ele>29.3</ele><time>2011-01-02T10:10:49Z</time></trkpt>
<trkpt lat="42.251472" lon="3.243235"><ele>29.3</ele><time>2011-01-02T10:10:54Z</time></trkpt>
<trkpt lat="42.251228" lon="3.243260"><ele>29.7</ele><time>2011-01-02T10:10:59Z</time></trkpt>
<trkpt lat="42.251045" lon="3.243122"><ele>30.5</ele><time>2011-01-02T10:11:04Z</time></trkpt>
<trkpt lat="42.250915" lon="3.242940"><ele>31.5</ele><time>2011-01-02T10:11:09Z</time></trkpt>
<trkpt lat="42.250785" lon="3.242793"><ele>32.3</ele><time>2011-01-02T10:11:14Z</time></trkpt>
<trkpt lat="42.250683" lon="3.242612"><ele>32.8</ele><time>2011-01-02T10:11:19Z</time></trkpt>
<trkpt lat="42.250668" lon="3.242358"><ele>32.9</ele><time>2011-01-02T10:11:24Z</time></trkpt>
<trkpt lat="42.250698" lon="3.242092"><ele>33</ele><time>2011-01-02T10:11:29Z</time></trkpt>
<trkpt lat="42.250813" lon="3.241845"><ele>32.4</ele><time>2011-01-02T10:11:34Z</time></trkpt>
<trkpt lat="42.250988" lon="3.241625"><ele>31.7</ele><time>2011-01-02T10:11:39Z</time></trkpt>
<trkpt lat="42.251172" lon="3.241370"><ele>30.6</ele><time>2011-01-02T10:11:44Z</time></trkpt>
<trkpt lat="42.251350" lon="3.241110"><ele>29.4</ele><time>2011-01-02T10:11:49Z</time></trkpt>
<trkpt lat="42.251495" lon="3.240815"><ele>27.9</ele><time>2011-01-02T10:11:54Z</time></trkpt>
<trkpt lat="42.251583" lon="3.240513"><ele>26.6</ele><time>2011-01-02T10:11:59Z</time></trkpt>
<trkpt lat="42.251693" lon="3.240250"><ele>25.8</ele><time>2011-01-02T10:12:04Z</time></trkpt>
<trkpt lat="42.251800" lon="3.239977"><ele>24.5</ele><time>2011-01-02T10:12:09Z</time></trkpt>
<trkpt lat="42.251842" lon="3.239650"><ele>22.8</ele><time>2011-01-02T10:12:14Z</time></trkpt>
<trkpt lat="42.251950" lon="3.239285"><ele>21.2</ele><time>2011-01-02T10:12:19Z</time></trkpt>
<trkpt lat="42.252158" lon="3.238992"><ele>19.7</ele><time>2011-01-02T10:12:24Z</time></trkpt>
<trkpt lat="42.252205" lon="3.238602"><ele>18.7</ele><time>2011-01-02T10:12:29Z</time></trkpt>
<trkpt lat="42.251992" lon="3.238450"><ele>19.4</ele><time>2011-01-02T10:12:34Z</time></trkpt>
<trkpt lat="42.251805" lon="3.238405"><ele>20.6</ele><time>2011-01-02T10:12:39Z</time></trkpt>
<trkpt lat="42.251702" lon="3.238265"><ele>21.8</ele><time>2011-01-02T10:12:44Z</time></trkpt>
<trkpt lat="42.251648" lon="3.238102"><ele>22.6</ele><time>2011-01-02T10:12:49Z</time></trkpt>
<trkpt lat="42.251575" lon="3.237955"><ele>23.6</ele><time>2011-01-02T10:12:54Z</time></trkpt>
<trkpt lat="42.251480" lon="3.237847"><ele>24.6</ele><time>2011-01-02T10:12:59Z</time></trkpt>
<trkpt lat="42.251373" lon="3.237763"><ele>25.6</ele><time>2011-01-02T10:13:04Z</time></trkpt>
<trkpt lat="42.251263" lon="3.237698"><ele>26.6</ele><time>2011-01-02T10:13:09Z</time></trkpt>
<trkpt lat="42.251145" lon="3.237657"><ele>27.8</ele><time>2011-01-02T10:13:14Z</time></trkpt>
<trkpt lat="42.251015" lon="3.237628"><ele>28.5</ele><time>2011-01-02T10:13:19Z</time></trkpt>
<trkpt lat="42.250893" lon="3.237663"><ele>29.5</ele><time>2011-01-02T10:13:24Z</time></trkpt>
<trkpt lat="42.250775" lon="3.237632"><ele>30.8</ele><time>2011-01-02T10:13:29Z</time></trkpt>
<trkpt lat="42.250660" lon="3.237578"><ele>31.6</ele><time>2011-01-02T10:13:34Z</time></trkpt>
<trkpt lat="42.250542" lon="3.237558"><ele>32.7</ele><time>2011-01-02T10:13:39Z</time></trkpt>
<trkpt lat="42.250423" lon="3.237525"><ele>33.5</ele><time>2011-01-02T10:13:44Z</time></trkpt>
<trkpt lat="42.250302" lon="3.237473"><ele>34.5</ele><time>2011-01-02T10:13:49Z</time></trkpt>
<trkpt lat="42.250190" lon="3.237417"><ele>35.3</ele><time>2011-01-02T10:13:54Z</time></trkpt>
<trkpt lat="42.250083" lon="3.237355"><ele>36.2</ele><time>2011-01-02T10:13:59Z</time></trkpt>
<trkpt lat="42.249982" lon="3.237305"><ele>37.1</ele><time>2011-01-02T10:14:04Z</time></trkpt>
<trkpt lat="42.249870" lon="3.237263"><ele>38</ele><time>2011-01-02T10:14:09Z</time></trkpt>
<trkpt lat="42.249760" lon="3.237225"><ele>39.1</ele><time>2011-01-02T10:14:14Z</time></trkpt>
<trkpt lat="42.249638" lon="3.237202"><ele>40</ele><time>2011-01-02T10:14:19Z</time></trkpt>
<trkpt lat="42.249527" lon="3.237178"><ele>41</ele><time>2011-01-02T10:14:24Z</time></trkpt>
<trkpt lat="42.249413" lon="3.237145"><ele>42.2</ele><time>2011-01-02T10:14:29Z</time></trkpt>
<trkpt lat="42.249305" lon="3.237092"><ele>43</ele><time>2011-01-02T10:14:34Z</time></trkpt>
<trkpt lat="42.249203" lon="3.237027"><ele>43.8</ele><time>2011-01-02T10:14:39Z</time></trkpt>
<trkpt lat="42.249097" lon="3.236927"><ele>44.2</ele><time>2011-01-02T10:14:44Z</time></trkpt>
<trkpt lat="42.248978" lon="3.236870"><ele>45</ele><time>2011-01-02T10:14:49Z</time></trkpt>
<trkpt lat="42.248878" lon="3.236807"><ele>46</ele><time>2011-01-02T10:14:54Z</time></trkpt>
<trkpt lat="42.248813" lon="3.236665"><ele>47</ele><time>2011-01-02T10:14:59Z</time></trkpt>
<trkpt lat="42.248813" lon="3.236483"><ele>47.3</ele><time>2011-01-02T10:15:04Z</time></trkpt>
<trkpt lat="42.248887" lon="3.236290"><ele>47.3</ele><time>2011-01-02T10:15:09Z</time></trkpt>
<trkpt lat="42.248993" lon="3.236098"><ele>47.5</ele><time>2011-01-02T10:15:14Z</time></trkpt>
<trkpt lat="42.249103" lon="3.235897"><ele>47.9</ele><time>2011-01-02T10:15:19Z</time></trkpt>
<trkpt lat="42.249245" lon="3.235702"><ele>48</ele><time>2011-01-02T10:15:24Z</time></trkpt>
<trkpt lat="42.249417" lon="3.235500"><ele>47.7</ele><time>2011-01-02T10:15:29Z</time></trkpt>
<trkpt lat="42.249557" lon="3.235263"><ele>46.8</ele><time>2011-01-02T10:15:34Z</time></trkpt>
<trkpt lat="42.249497" lon="3.234952"><ele>45.7</ele><time>2011-01-02T10:15:39Z</time></trkpt>
<trkpt lat="42.249367" lon="3.234620"><ele>44.1</ele><time>2011-01-02T10:15:44Z</time></trkpt>
<trkpt lat="42.249298" lon="3.234237"><ele>42.8</ele><time>2011-01-02T10:15:49Z</time></trkpt>
<trkpt lat="42.249287" lon="3.233850"><ele>41.9</ele><time>2011-01-02T10:15:54Z</time></trkpt>
<trkpt lat="42.249343" lon="3.233477"><ele>41.3</ele><time>2011-01-02T10:15:59Z</time></trkpt>
<trkpt lat="42.249420" lon="3.233105"><ele>40.3</ele><time>2011-01-02T10:16:04Z</time></trkpt>
<trkpt lat="42.249520" lon="3.232758"><ele>39.2</ele><time>2011-01-02T10:16:09Z</time></trkpt>
<trkpt lat="42.249767" lon="3.232553"><ele>37.6</ele><time>2011-01-02T10:16:14Z</time></trkpt>
<trkpt lat="42.250065" lon="3.232362"><ele>35.5</ele><time>2011-01-02T10:16:19Z</time></trkpt>
<trkpt lat="42.250332" lon="3.232177"><ele>33.6</ele><time>2011-01-02T10:16:24Z</time></trkpt>
<trkpt lat="42.250480" lon="3.231863"><ele>31.7</ele><time>2011-01-02T10:16:29Z</time></trkpt>
<trkpt lat="42.250580" lon="3.231553"><ele>29.6</ele><time>2011-01-02T10:16:34Z</time></trkpt>
<trkpt lat="42.250767" lon="3.231253"><ele>27.6</ele><time>2011-01-02T10:16:39Z</time></trkpt>
<trkpt lat="42.251022" lon="3.231040"><ele>25.6</ele><time>2011-01-02T10:16:44Z</time></trkpt>
<trkpt lat="42.251270" lon="3.230955"><ele>23.9</ele><time>2011-01-02T10:16:49Z</time></trkpt>
<trkpt lat="42.251438" lon="3.230647"><ele>22</ele><time>2011-01-02T10:16:54Z</time></trkpt>
<trkpt lat="42.251672" lon="3.230412"><ele>20.1</ele><time>2011-01-02T10:16:59Z</time></trkpt>
<trkpt lat="42.251842" lon="3.230088"><ele>18.9</ele><time>2011-01-02T10:17:04Z</time></trkpt>
<trkpt lat="42.251880" lon="3.229667"><ele>16.2</ele><time>2011-01-02T10:17:09Z</time></trkpt>
<trkpt lat="42.252105" lon="3.229398"><ele>15.2</ele><time>2011-01-02T10:17:14Z</time></trkpt>
<trkpt lat="42.252342" lon="3.229168"><ele>14.5</ele><time>2011-01-02T10:17:19Z</time></trkpt>
<trkpt lat="42.252495" lon="3.228880"><ele>13.6</ele><time>2011-01-02T10:17:24Z</time></trkpt>
<trkpt lat="42.252617" lon="3.228593"><ele>12.6</ele><time>2011-01-02T10:17:29Z</time></trkpt>
<trkpt lat="42.252728" lon="3.228305"><ele>12.3</ele><time>2011-01-02T10:17:34Z</time></trkpt>
<trkpt lat="42.252823" lon="3.228002"><ele>12.2</ele><time>2011-01-02T10:17:39Z</time></trkpt>
<trkpt lat="42.252918" lon="3.227667"><ele>12.1</ele><time>2011-01-02T10:17:44Z</time></trkpt>
<trkpt lat="42.253078" lon="3.227372"><ele>11.3</ele><time>2011-01-02T10:17:49Z</time></trkpt>
<trkpt lat="42.253182" lon="3.227042"><ele>10.4</ele><time>2011-01-02T10:17:54Z</time></trkpt>
<trkpt lat="42.253178" lon="3.226658"><ele>9.1</ele><time>2011-01-02T10:17:59Z</time></trkpt>
<trkpt lat="42.253102" lon="3.226302"><ele>8.5</ele><time>2011-01-02T10:18:04Z</time></trkpt>
<trkpt lat="42.252933" lon="3.226027"><ele>8.2</ele><time>2011-01-02T10:18:09Z</time></trkpt>
<trkpt lat="42.252738" lon="3.225810"><ele>8.5</ele><time>2011-01-02T10:18:14Z</time></trkpt>
<trkpt lat="42.252495" lon="3.225743"><ele>8.8</ele><time>2011-01-02T10:18:19Z</time></trkpt>
<trkpt lat="42.252270" lon="3.225717"><ele>9.8</ele><time>2011-01-02T10:18:24Z</time></trkpt>
<trkpt lat="42.252057" lon="3.225740"><ele>10.6</ele><time>2011-01-02T10:18:29Z</time></trkpt>
<trkpt lat="42.251850" lon="3.225772"><ele>11.3</ele><time>2011-01-02T10:18:34Z</time></trkpt>
<trkpt lat="42.251648" lon="3.225785"><ele>11.8</ele><time>2011-01-02T10:18:39Z</time></trkpt>
<trkpt lat="42.251465" lon="3.225780"><ele>12.8</ele><time>2011-01-02T10:18:44Z</time></trkpt>
<trkpt lat="42.251278" lon="3.225790"><ele>14.3</ele><time>2011-01-02T10:18:49Z</time></trkpt>
<trkpt lat="42.251095" lon="3.225815"><ele>14.8</ele><time>2011-01-02T10:18:54Z</time></trkpt>
<trkpt lat="42.250915" lon="3.225842"><ele>15.6</ele><time>2011-01-02T10:18:59Z</time></trkpt>
<trkpt lat="42.250737" lon="3.225872"><ele>16.8</ele><time>2011-01-02T10:19:04Z</time></trkpt>
<trkpt lat="42.250568" lon="3.225900"><ele>17.7</ele><time>2011-01-02T10:19:09Z</time></trkpt>
<trkpt lat="42.250393" lon="3.225917"><ele>18.4</ele><time>2011-01-02T10:19:14Z</time></trkpt>
<trkpt lat="42.250213" lon="3.225947"><ele>19.4</ele><time>2011-01-02T10:19:19Z</time></trkpt>
<trkpt lat="42.250077" lon="3.226020"><ele>20.5</ele><time>2011-01-02T10:19:24Z</time></trkpt>
<trkpt lat="42.249943" lon="3.226073"><ele>21.5</ele><time>2011-01-02T10:19:29Z</time></trkpt>
<trkpt lat="42.249802" lon="3.226063"><ele>22.4</ele><time>2011-01-02T10:19:34Z</time></trkpt>
<trkpt lat="42.249692" lon="3.225952"><ele>23.8</ele><time>2011-01-02T10:19:39Z</time></trkpt>
<trkpt lat="42.249633" lon="3.225782"><ele>24.7</ele><time>2011-01-02T10:19:44Z</time></trkpt>
<trkpt lat="42.249588" lon="3.225608"><ele>25.5</ele><time>2011-01-02T10:19:49Z</time></trkpt>
<trkpt lat="42.249520" lon="3.225447"><ele>26.3</ele><time>2011-01-02T10:19:54Z</time></trkpt>
<trkpt lat="42.249432" lon="3.225305"><ele>27.5</ele><time>2011-01-02T10:19:59Z</time></trkpt>
<trkpt lat="42.249328" lon="3.225185"><ele>28.6</ele><time>2011-01-02T10:20:04Z</time></trkpt>
<trkpt lat="42.249222" lon="3.225065"><ele>29.4</ele><time>2011-01-02T10:20:09Z</time></trkpt>
<trkpt lat="42.249123" lon="3.224943"><ele>30.4</ele><time>2011-01-02T10:20:14Z</time></trkpt>
<trkpt lat="42.249032" lon="3.224802"><ele>30.5</ele><time>2011-01-02T10:20:19Z</time></trkpt>
<trkpt lat="42.248958" lon="3.224647"><ele>31.4</ele><time>2011-01-02T10:20:24Z</time></trkpt>
<trkpt lat="42.248893" lon="3.224485"><ele>32.5</ele><time>2011-01-02T10:20:29Z</time></trkpt>
<trkpt lat="42.248790" lon="3.224353"><ele>33.3</ele><time>2011-01-02T10:20:34Z</time></trkpt>
<trkpt lat="42.248657" lon="3.224335"><ele>34.2</ele><time>2011-01-02T10:20:39Z</time></trkpt>
<trkpt lat="42.248520" lon="3.224360"><ele>35.1</ele><time>2011-01-02T10:20:44Z</time></trkpt>
<trkpt lat="42.248390" lon="3.224422"><ele>35.8</ele><time>2011-01-02T10:20:49Z</time></trkpt>
<trkpt lat="42.248298" lon="3.224575"><ele>37.1</ele><time>2011-01-02T10:20:54Z</time></trkpt>
<trkpt lat="42.248292" lon="3.224763"><ele>38.7</ele><time>2011-01-02T10:20:59Z</time></trkpt>
<trkpt lat="42.248292" lon="3.224957"><ele>39.8</ele><time>2011-01-02T10:21:04Z</time></trkpt>
<trkpt lat="42.248283" lon="3.225148"><ele>40.7</ele><time>2011-01-02T10:21:09Z</time></trkpt>
<trkpt lat="42.248268" lon="3.225338"><ele>41.4</ele><time>2011-01-02T10:21:14Z</time></trkpt>
<trkpt lat="42.248248" lon="3.225523"><ele>42.2</ele><time>2011-01-02T10:21:19Z</time></trkpt>
<trkpt lat="42.248238" lon="3.225707"><ele>43</ele><time>2011-01-02T10:21:24Z</time></trkpt>
<trkpt lat="42.248227" lon="3.225892"><ele>43.9</ele><time>2011-01-02T10:21:29Z</time></trkpt>
<trkpt lat="42.248215" lon="3.226080"><ele>44.7</ele><time>2011-01-02T10:21:34Z</time></trkpt>
<trkpt lat="42.248177" lon="3.226268"><ele>45.8</ele><time>2011-01-02T10:21:39Z</time></trkpt>
<trkpt lat="42.248108" lon="3.226440"><ele>46.7</ele><time>2011-01-02T10:21:44Z</time></trkpt>
<trkpt lat="42.248023" lon="3.226600"><ele>47.5</ele><time>2011-01-02T10:21:49Z</time></trkpt>
<trkpt lat="42.247910" lon="3.226725"><ele>48.4</ele><time>2011-01-02T10:21:54Z</time></trkpt>
<trkpt lat="42.247772" lon="3.226802"><ele>49.1</ele><time>2011-01-02T10:21:59Z</time></trkpt>
<trkpt lat="42.247635" lon="3.226852"><ele>50</ele><time>2011-01-02T10:22:04Z</time></trkpt>
<trkpt lat="42.247502" lon="3.226880"><ele>50.6</ele><time>2011-01-02T10:22:09Z</time></trkpt>
<trkpt lat="42.247372" lon="3.226917"><ele>50.9</ele><time>2011-01-02T10:22:14Z</time></trkpt>
<trkpt lat="42.247242" lon="3.226953"><ele>51.7</ele><time>2011-01-02T10:22:19Z</time></trkpt>
<trkpt lat="42.247112" lon="3.226993"><ele>52.7</ele><time>2011-01-02T10:22:24Z</time></trkpt>
<trkpt lat="42.246987" lon="3.227083"><ele>53.3</ele><time>2011-01-02T10:22:29Z</time></trkpt>
<trkpt lat="42.246892" lon="3.227207"><ele>54</ele><time>2011-01-02T10:22:34Z</time></trkpt>
<trkpt lat="42.246788" lon="3.227327"><ele>54.7</ele><time>2011-01-02T10:22:39Z</time></trkpt>
<trkpt lat="42.246670" lon="3.227418"><ele>55.7</ele><time>2011-01-02T10:22:44Z</time></trkpt>
<trkpt lat="42.246532" lon="3.227472"><ele>56.6</ele><time>2011-01-02T10:22:49Z</time></trkpt>
<trkpt lat="42.246398" lon="3.227507"><ele>58.1</ele><time>2011-01-02T10:22:54Z</time></trkpt>
<trkpt lat="42.246262" lon="3.227542"><ele>59.1</ele><time>2011-01-02T10:22:59Z</time></trkpt>
<trkpt lat="42.246128" lon="3.227608"><ele>60</ele><time>2011-01-02T10:23:04Z</time></trkpt>
<trkpt lat="42.246010" lon="3.227710"><ele>60.6</ele><time>2011-01-02T10:23:09Z</time></trkpt>
<trkpt lat="42.245895" lon="3.227823"><ele>61.3</ele><time>2011-01-02T10:23:14Z</time></trkpt>
<trkpt lat="42.245785" lon="3.227940"><ele>62.4</ele><time>2011-01-02T10:23:19Z</time></trkpt>
<trkpt lat="42.245658" lon="3.228022"><ele>63.4</ele><time>2011-01-02T10:23:24Z</time></trkpt>
<trkpt lat="42.245525" lon="3.228013"><ele>64.3</ele><time>2011-01-02T10:23:29Z</time></trkpt>
<trkpt lat="42.245412" lon="3.227912"><ele>65.4</ele><time>2011-01-02T10:23:34Z</time></trkpt>
<trkpt lat="42.245350" lon="3.227745"><ele>66.5</ele><time>2011-01-02T10:23:39Z</time></trkpt>
<trkpt lat="42.245358" lon="3.227562"><ele>67.7</ele><time>2011-01-02T10:23:44Z</time></trkpt>
<trkpt lat="42.245395" lon="3.227398"><ele>68.7</ele><time>2011-01-02T10:23:49Z</time></trkpt>
<trkpt lat="42.245448" lon="3.227238"><ele>69.6</ele><time>2011-01-02T10:23:54Z</time></trkpt>
<trkpt lat="42.245498" lon="3.227075"><ele>70.4</ele><time>2011-01-02T10:23:59Z</time></trkpt>
<trkpt lat="42.245548" lon="3.226905"><ele>71.3</ele><time>2011-01-02T10:24:04Z</time></trkpt>
<trkpt lat="42.245593" lon="3.226737"><ele>72.2</ele><time>2011-01-02T10:24:09Z</time></trkpt>
<trkpt lat="42.245632" lon="3.226563"><ele>73.1</ele><time>2011-01-02T10:24:14Z</time></trkpt>
<trkpt lat="42.245663" lon="3.226392"><ele>74.1</ele><time>2011-01-02T10:24:19Z</time></trkpt>
<trkpt lat="42.245682" lon="3.226218"><ele>75.2</ele><time>2011-01-02T10:24:24Z</time></trkpt>
<trkpt lat="42.245708" lon="3.226048"><ele>76</ele><time>2011-01-02T10:24:29Z</time></trkpt>
<trkpt lat="42.245723" lon="3.225872"><ele>77</ele><time>2011-01-02T10:24:34Z</time></trkpt>
<trkpt lat="42.245738" lon="3.225695"><ele>78</ele><time>2011-01-02T10:24:39Z</time></trkpt>
<trkpt lat="42.245743" lon="3.225518"><ele>78.9</ele><time>2011-01-02T10:24:44Z</time></trkpt>
<trkpt lat="42.245738" lon="3.225345"><ele>79.8</ele><time>2011-01-02T10:24:49Z</time></trkpt>
<trkpt lat="42.245735" lon="3.225165"><ele>80.7</ele><time>2011-01-02T10:24:54Z</time></trkpt>
<trkpt lat="42.245735" lon="3.224987"><ele>81.6</ele><time>2011-01-02T10:24:59Z</time></trkpt>
<trkpt lat="42.245732" lon="3.224803"><ele>82.4</ele><time>2011-01-02T10:25:04Z</time></trkpt>
<trkpt lat="42.245717" lon="3.224623"><ele>83.4</ele><time>2011-01-02T10:25:09Z</time></trkpt>
<trkpt lat="42.245682" lon="3.224443"><ele>84.3</ele><time>2011-01-02T10:25:14Z</time></trkpt>
<trkpt lat="42.245632" lon="3.224277"><ele>85.2</ele><time>2011-01-02T10:25:19Z</time></trkpt>
<trkpt lat="42.245563" lon="3.224125"><ele>86.1</ele><time>2011-01-02T10:25:24Z</time></trkpt>
<trkpt lat="42.245495" lon="3.223967"><ele>87.1</ele><time>2011-01-02T10:25:29Z</time></trkpt>
<trkpt lat="42.245433" lon="3.223797"><ele>87.9</ele><time>2011-01-02T10:25:34Z</time></trkpt>
<trkpt lat="42.245395" lon="3.223618"><ele>88.9</ele><time>2011-01-02T10:25:39Z</time></trkpt>
<trkpt lat="42.245377" lon="3.223432"><ele>90.2</ele><time>2011-01-02T10:25:44Z</time></trkpt>
<trkpt lat="42.245365" lon="3.223240"><ele>91.2</ele><time>2011-01-02T10:25:49Z</time></trkpt>
<trkpt lat="42.245350" lon="3.223053"><ele>92.1</ele><time>2011-01-02T10:25:54Z</time></trkpt>
<trkpt lat="42.245327" lon="3.222870"><ele>93.2</ele><time>2011-01-02T10:25:59Z</time></trkpt>
<trkpt lat="42.245270" lon="3.222703"><ele>94.4</ele><time>2011-01-02T10:26:04Z</time></trkpt>
<trkpt lat="42.245170" lon="3.222578"><ele>95.2</ele><time>2011-01-02T10:26:09Z</time></trkpt>
<trkpt lat="42.245048" lon="3.222533"><ele>96.3</ele><time>2011-01-02T10:26:14Z</time></trkpt>
<trkpt lat="42.244927" lon="3.222532"><ele>97.1</ele><time>2011-01-02T10:26:19Z</time></trkpt>
<trkpt lat="42.244808" lon="3.222550"><ele>97.7</ele><time>2011-01-02T10:26:24Z</time></trkpt>
<trkpt lat="42.244690" lon="3.222567"><ele>98.4</ele><time>2011-01-02T10:26:29Z</time></trkpt>
<trkpt lat="42.244575" lon="3.222585"><ele>98.9</ele><time>2011-01-02T10:26:34Z</time></trkpt>
<trkpt lat="42.244453" lon="3.222598"><ele>99.6</ele><time>2011-01-02T10:26:39Z</time></trkpt>
<trkpt lat="42.244335" lon="3.222598"><ele>100.5</ele><time>2011-01-02T10:26:44Z</time></trkpt>
<trkpt lat="42.244213" lon="3.222577"><ele>101.4</ele><time>2011-01-02T10:26:49Z</time></trkpt>
<trkpt lat="42.244092" lon="3.222535"><ele>102.3</ele><time>2011-01-02T10:26:54Z</time></trkpt>
<trkpt lat="42.243988" lon="3.222462"><ele>103.7</ele><time>2011-01-02T10:26:59Z</time></trkpt>
<trkpt lat="42.243903" lon="3.222347"><ele>105.1</ele><time>2011-01-02T10:27:04Z</time></trkpt>
<trkpt lat="42.243847" lon="3.222205"><ele>106</ele><time>2011-01-02T10:27:09Z</time></trkpt>
<trkpt lat="42.243813" lon="3.222052"><ele>107</ele><time>2011-01-02T10:27:14Z</time></trkpt>
<trkpt lat="42.243790" lon="3.221895"><ele>108.1</ele><time>2011-01-02T10:27:19Z</time></trkpt>
<trkpt lat="42.243778" lon="3.221735"><ele>109</ele><time>2011-01-02T10:27:24Z</time></trkpt>
<trkpt lat="42.243790" lon="3.221573"><ele>109.9</ele><time>2011-01-02T10:27:29Z</time></trkpt>
<trkpt lat="42.243808" lon="3.221413"><ele>110.8</ele><time>2011-01-02T10:27:34Z</time></trkpt>
<trkpt lat="42.243847" lon="3.221262"><ele>111.6</ele><time>2011-01-02T10:27:39Z</time></trkpt>
<trkpt lat="42.243885" lon="3.221108"><ele>112.4</ele><time>2011-01-02T10:27:44Z</time></trkpt>
<trkpt lat="42.243927" lon="3.220958"><ele>113.3</ele><time>2011-01-02T10:27:49Z</time></trkpt>
<trkpt lat="42.243968" lon="3.220805"><ele>114.4</ele><time>2011-01-02T10:27:54Z</time></trkpt>
<trkpt lat="42.244018" lon="3.220658"><ele>115.1</ele><time>2011-01-02T10:27:59Z</time></trkpt>
<trkpt lat="42.244048" lon="3.220495"><ele>115.7</ele><time>2011-01-02T10:28:04Z</time></trkpt>
<trkpt lat="42.244033" lon="3.220332"><ele>116.3</ele><time>2011-01-02T10:28:09Z</time></trkpt>
<trkpt lat="42.244003" lon="3.220177"><ele>117.2</ele><time>2011-01-02T10:28:14Z</time></trkpt>
<trkpt lat="42.243977" lon="3.220020"><ele>117.3</ele><time>2011-01-02T10:28:19Z</time></trkpt>
<trkpt lat="42.243947" lon="3.219865"><ele>117.8</ele><time>2011-01-02T10:28:24Z</time></trkpt>
<trkpt lat="42.243947" lon="3.219703"><ele>120</ele><time>2011-01-02T10:28:29Z</time></trkpt>
<trkpt lat="42.243995" lon="3.219577"><ele>119.7</ele><time>2011-01-02T10:28:34Z</time></trkpt>
<trkpt lat="42.244107" lon="3.219480"><ele>120</ele><time>2011-01-02T10:28:39Z</time></trkpt>
<trkpt lat="42.244225" lon="3.219483"><ele>122</ele><time>2011-01-02T10:28:44Z</time></trkpt>
<trkpt lat="42.244347" lon="3.219500"><ele>123.1</ele><time>2011-01-02T10:28:49Z</time></trkpt>
<trkpt lat="42.244468" lon="3.219455"><ele>123.9</ele><time>2011-01-02T10:28:54Z</time></trkpt>
<trkpt lat="42.244557" lon="3.219333"><ele>124.2</ele><time>2011-01-02T10:28:59Z</time></trkpt>
<trkpt lat="42.244595" lon="3.219177"><ele>125</ele><time>2011-01-02T10:29:04Z</time></trkpt>
<trkpt lat="42.244572" lon="3.219017"><ele>126.1</ele><time>2011-01-02T10:29:09Z</time></trkpt>
<trkpt lat="42.244495" lon="3.218885"><ele>127.3</ele><time>2011-01-02T10:29:14Z</time></trkpt>
<trkpt lat="42.244355" lon="3.218820"><ele>127.7</ele><time>2011-01-02T10:29:19Z</time></trkpt>
<trkpt lat="42.244217" lon="3.218868"><ele>128.6</ele><time>2011-01-02T10:29:24Z</time></trkpt>
<trkpt lat="42.244087" lon="3.218957"><ele>129.2</ele><time>2011-01-02T10:29:29Z</time></trkpt>
<trkpt lat="42.243965" lon="3.219053"><ele>129.7</ele><time>2011-01-02T10:29:34Z</time></trkpt>
<trkpt lat="42.243835" lon="3.219138"><ele>130.5</ele><time>2011-01-02T10:29:39Z</time></trkpt>
<trkpt lat="42.243698" lon="3.219192"><ele>131.5</ele><time>2011-01-02T10:29:44Z</time></trkpt>
<trkpt lat="42.243560" lon="3.219227"><ele>132.6</ele><time>2011-01-02T10:29:49Z</time></trkpt>
<trkpt lat="42.243420" lon="3.219252"><ele>133.4</ele><time>2011-01-02T10:29:54Z</time></trkpt>
<trkpt lat="42.243272" lon="3.219253"><ele>134.2</ele><time>2011-01-02T10:29:59Z</time></trkpt>
<trkpt lat="42.243127" lon="3.219228"><ele>135.1</ele><time>2011-01-02T10:30:04Z</time></trkpt>
<trkpt lat="42.242988" lon="3.219165"><ele>136</ele><time>2011-01-02T10:30:09Z</time></trkpt>
<trkpt lat="42.242863" lon="3.219053"><ele>136.8</ele><time>2011-01-02T10:30:14Z</time></trkpt>
<trkpt lat="42.242772" lon="3.218907"><ele>137.7</ele><time>2011-01-02T10:30:19Z</time></trkpt>
<trkpt lat="42.242710" lon="3.218755"><ele>138.5</ele><time>2011-01-02T10:30:24Z</time></trkpt>
<trkpt lat="42.242660" lon="3.218597"><ele>139.3</ele><time>2011-01-02T10:30:29Z</time></trkpt>
<trkpt lat="42.242615" lon="3.218443"><ele>140.1</ele><time>2011-01-02T10:30:34Z</time></trkpt>
<trkpt lat="42.242553" lon="3.218293"><ele>140.9</ele><time>2011-01-02T10:30:39Z</time></trkpt>
<trkpt lat="42.242508" lon="3.218145"><ele>141.7</ele><time>2011-01-02T10:30:44Z</time></trkpt>
<trkpt lat="42.242455" lon="3.217993"><ele>142.6</ele><time>2011-01-02T10:30:49Z</time></trkpt>
<trkpt lat="42.242378" lon="3.217865"><ele>143.4</ele><time>2011-01-02T10:30:54Z</time></trkpt>
<trkpt lat="42.242260" lon="3.217800"><ele>144.1</ele><time>2011-01-02T10:30:59Z</time></trkpt>
<trkpt lat="42.242138" lon="3.217805"><ele>144.9</ele><time>2011-01-02T10:31:04Z</time></trkpt>
<trkpt lat="42.242017" lon="3.217827"><ele>145.6</ele><time>2011-01-02T10:31:09Z</time></trkpt>
<trkpt lat="42.241893" lon="3.217840"><ele>146.6</ele><time>2011-01-02T10:31:14Z</time></trkpt>
<trkpt lat="42.241768" lon="3.217862"><ele>147.9</ele><time>2011-01-02T10:31:19Z</time></trkpt>
<trkpt lat="42.241642" lon="3.217863"><ele>148.8</ele><time>2011-01-02T10:31:24Z</time></trkpt>
<trkpt lat="42.241508" lon="3.217818"><ele>149.6</ele><time>2011-01-02T10:31:29Z</time></trkpt>
<trkpt lat="42.241383" lon="3.217702"><ele>150.4</ele><time>2011-01-02T10:31:34Z</time></trkpt>
<trkpt lat="42.241292" lon="3.217532"><ele>150.9</ele><time>2011-01-02T10:31:39Z</time></trkpt>
<trkpt lat="42.241212" lon="3.217360"><ele>151.8</ele><time>2011-01-02T10:31:44Z</time></trkpt>
<trkpt lat="42.241130" lon="3.217193"><ele>152.8</ele><time>2011-01-02T10:31:49Z</time></trkpt>
<trkpt lat="42.241055" lon="3.217023"><ele>153.6</ele><time>2011-01-02T10:31:54Z</time></trkpt>
<trkpt lat="42.240970" lon="3.216862"><ele>154.5</ele><time>2011-01-02T10:31:59Z</time></trkpt>
<trkpt lat="42.240890" lon="3.216695"><ele>155.3</ele><time>2011-01-02T10:32:04Z</time></trkpt>
<trkpt lat="42.240825" lon="3.216520"><ele>156.3</ele><time>2011-01-02T10:32:09Z</time></trkpt>
<trkpt lat="42.240818" lon="3.216320"><ele>157</ele><time>2011-01-02T10:32:14Z</time></trkpt>
<trkpt lat="42.240868" lon="3.216128"><ele>157.5</ele><time>2011-01-02T10:32:19Z</time></trkpt>
<trkpt lat="42.240982" lon="3.216002"><ele>158.1</ele><time>2011-01-02T10:32:24Z</time></trkpt>
<trkpt lat="42.241123" lon="3.215957"><ele>159.1</ele><time>2011-01-02T10:32:29Z</time></trkpt>
<trkpt lat="42.241275" lon="3.215943"><ele>159.7</ele><time>2011-01-02T10:32:34Z</time></trkpt>
<trkpt lat="42.241420" lon="3.215925"><ele>160.4</ele><time>2011-01-02T10:32:39Z</time></trkpt>
<trkpt lat="42.241570" lon="3.215902"><ele>161.1</ele><time>2011-01-02T10:32:44Z</time></trkpt>
<trkpt lat="42.241715" lon="3.215878"><ele>161.9</ele><time>2011-01-02T10:32:49Z</time></trkpt>
<trkpt lat="42.241860" lon="3.215927"><ele>162.6</ele><time>2011-01-02T10:32:54Z</time></trkpt>
<trkpt lat="42.242000" lon="3.215992"><ele>163.2</ele><time>2011-01-02T10:32:59Z</time></trkpt>
<trkpt lat="42.242145" lon="3.216042"><ele>163.9</ele><time>2011-01-02T10:33:04Z</time></trkpt>
<trkpt lat="42.242295" lon="3.216060"><ele>164.8</ele><time>2011-01-02T10:33:09Z</time></trkpt>
<trkpt lat="42.242450" lon="3.216072"><ele>165.5</ele><time>2011-01-02T10:33:14Z</time></trkpt>
<trkpt lat="42.242600" lon="3.216047"><ele>166.4</ele><time>2011-01-02T10:33:19Z</time></trkpt>
<trkpt lat="42.242740" lon="3.215953"><ele>167.1</ele><time>2011-01-02T10:33:24Z</time></trkpt>
<trkpt lat="42.242855" lon="3.215822"><ele>167.6</ele><time>2011-01-02T10:33:29Z</time></trkpt>
<trkpt lat="42.242970" lon="3.215682"><ele>168.3</ele><time>2011-01-02T10:33:34Z</time></trkpt>
<trkpt lat="42.243050" lon="3.215508"><ele>169</ele><time>2011-01-02T10:33:39Z</time></trkpt>
<trkpt lat="42.243003" lon="3.215312"><ele>169.8</ele><time>2011-01-02T10:33:44Z</time></trkpt>
<trkpt lat="42.242947" lon="3.215103"><ele>170.1</ele><time>2011-01-02T10:33:49Z</time></trkpt>
<trkpt lat="42.242943" lon="3.214897"><ele>170.3</ele><time>2011-01-02T10:33:54Z</time></trkpt>
<trkpt lat="42.242885" lon="3.214833"><ele>170.2</ele><time>2011-01-02T10:33:59Z</time></trkpt>
<trkpt lat="42.242885" lon="3.214828"><ele>170.1</ele><time>2011-01-02T10:34:04Z</time></trkpt>
<trkpt lat="42.242878" lon="3.214823"><ele>169.9</ele><time>2011-01-02T10:34:09Z</time></trkpt>
<trkpt lat="42.242870" lon="3.214833"><ele>169.6</ele><time>2011-01-02T10:34:14Z</time></trkpt>
<trkpt lat="42.242867" lon="3.214837"><ele>169.5</ele><time>2011-01-02T10:34:19Z</time></trkpt>
<trkpt lat="42.242878" lon="3.214825"><ele>169.7</ele><time>2011-01-02T10:34:24Z</time></trkpt>
<trkpt lat="42.242878" lon="3.214812"><ele>169.8</ele><time>2011-01-02T10:34:29Z</time></trkpt>
<trkpt lat="42.242878" lon="3.214823"><ele>169.9</ele><time>2011-01-02T10:34:34Z</time></trkpt>
<trkpt lat="42.242882" lon="3.214835"><ele>169.9</ele><time>2011-01-02T10:34:39Z</time></trkpt>
<trkpt lat="42.242885" lon="3.214832"><ele>170.1</ele><time>2011-01-02T10:34:44Z</time></trkpt>
<trkpt lat="42.242882" lon="3.214830"><ele>170</ele><time>2011-01-02T10:34:49Z</time></trkpt>
<trkpt lat="42.242878" lon="3.214827"><ele>169.8</ele><time>2011-01-02T10:34:54Z</time></trkpt>
<trkpt lat="42.242878" lon="3.214827"><ele>169.9</ele><time>2011-01-02T10:34:59Z</time></trkpt>
<trkpt lat="42.242878" lon="3.214832"><ele>170.2</ele><time>2011-01-02T10:35:04Z</time></trkpt>
<trkpt lat="42.242882" lon="3.214830"><ele>169.6</ele><time>2011-01-02T10:35:09Z</time></trkpt>
<trkpt lat="42.242885" lon="3.214833"><ele>169.5</ele><time>2011-01-02T10:35:14Z</time></trkpt>
<trkpt lat="42.242902" lon="3.214827"><ele>169</ele><time>2011-01-02T10:35:19Z</time></trkpt>
<trkpt lat="42.242902" lon="3.214825"><ele>168.8</ele><time>2011-01-02T10:35:24Z</time></trkpt>
<trkpt lat="42.242893" lon="3.214825"><ele>168.9</ele><time>2011-01-02T10:35:29Z</time></trkpt>
<trkpt lat="42.242878" lon="3.214842"><ele>169</ele><time>2011-01-02T10:35:34Z</time></trkpt>
<trkpt lat="42.242870" lon="3.214805"><ele>169.1</ele><time>2011-01-02T10:35:39Z</time></trkpt>
<trkpt lat="42.242878" lon="3.214822"><ele>169.2</ele><time>2011-01-02T10:35:44Z</time></trkpt>
<trkpt lat="42.242878" lon="3.214822"><ele>169.2</ele><time>2011-01-02T10:35:49Z</time></trkpt>
<trkpt lat="42.242878" lon="3.214822"><ele>169.2</ele><time>2011-01-02T10:35:54Z</time></trkpt>
<trkpt lat="42.242878" lon="3.214822"><ele>169</ele><time>2011-01-02T10:35:59Z</time></trkpt>
<trkpt lat="42.242878" lon="3.214822"><ele>168.9</ele><time>2011-01-02T10:36:04Z</time></trkpt>
<trkpt lat="42.242878" lon="3.214822"><ele>168.8</ele><time>2011-01-02T10:36:09Z</time></trkpt>
<trkpt lat="42.242878" lon="3.214822"><ele>168.7</ele><time>2011-01-02T10:36:14Z</time></trkpt>
<trkpt lat="42.242878" lon="3.214822"><ele>168.7</ele><time>2011-01-02T10:36:19Z</time></trkpt>
<trkpt lat="42.242878" lon="3.214822"><ele>168.7</ele><time>2011-01-02T10:36:24Z</time></trkpt>
<trkpt lat="42.242878" lon="3.214823"><ele>168.6</ele><time>2011-01-02T10:36:29Z</time></trkpt>
<trkpt lat="42.242878" lon="3.214828"><ele>168.7</ele><time>2011-01-02T10:36:34Z</time></trkpt>
<trkpt lat="42.242878" lon="3.214828"><ele>168.5</ele><time>2011-01-02T10:36:39Z</time></trkpt>
<trkpt lat="42.242878" lon="3.214830"><ele>168.4</ele><time>2011-01-02T10:36:44Z</time></trkpt>
<trkpt lat="42.242878" lon="3.214828"><ele>168.5</ele><time>2011-01-02T10:36:49Z</time></trkpt>
<trkpt lat="42.242873" lon="3.214832"><ele>168.3</ele><time>2011-01-02T10:36:54Z</time></trkpt>
<trkpt lat="42.242873" lon="3.214830"><ele>168.1</ele><time>2011-01-02T10:36:59Z</time></trkpt>
<trkpt lat="42.242873" lon="3.214830"><ele>168</ele><time>2011-01-02T10:37:04Z</time></trkpt>
<trkpt lat="42.242873" lon="3.214830"><ele>168.1</ele><time>2011-01-02T10:37:09Z</time></trkpt>
<trkpt lat="42.242878" lon="3.214828"><ele>168.2</ele><time>2011-01-02T10:37:14Z</time></trkpt>
<trkpt lat="42.242873" lon="3.214822"><ele>168.2</ele><time>2011-01-02T10:37:19Z</time></trkpt>
<trkpt lat="42.242878" lon="3.214818"><ele>168.2</ele><time>2011-01-02T10:37:24Z</time></trkpt>
<trkpt lat="42.242882" lon="3.214827"><ele>168.1</ele><time>2011-01-02T10:37:29Z</time></trkpt>
<trkpt lat="42.242882" lon="3.214825"><ele>168.3</ele><time>2011-01-02T10:37:34Z</time></trkpt>
<trkpt lat="42.242878" lon="3.214827"><ele>168.4</ele><time>2011-01-02T10:37:39Z</time></trkpt>
<trkpt lat="42.242878" lon="3.214827"><ele>168.5</ele><time>2011-01-02T10:37:44Z</time></trkpt>
<trkpt lat="42.242878" lon="3.214827"><ele>168.5</ele><time>2011-01-02T10:37:49Z</time></trkpt>
<trkpt lat="42.242882" lon="3.214825"><ele>168.5</ele><time>2011-01-02T10:37:54Z</time></trkpt>
<trkpt lat="42.242882" lon="3.214828"><ele>168.5</ele><time>2011-01-02T10:37:59Z</time></trkpt>
<trkpt lat="42.242878" lon="3.214830"><ele>168.3</ele><time>2011-01-02T10:38:04Z</time></trkpt>
<trkpt lat="42.242902" lon="3.214862"><ele>168.3</ele><time>2011-01-02T10:38:09Z</time></trkpt>
<trkpt lat="42.242912" lon="3.214880"><ele>168.2</ele><time>2011-01-02T10:38:14Z</time></trkpt>
<trkpt lat="42.242935" lon="3.214928"><ele>168</ele><time>2011-01-02T10:38:19Z</time></trkpt>
<trkpt lat="42.242943" lon="3.215087"><ele>167.7</ele><time>2011-01-02T10:38:24Z</time></trkpt>
<trkpt lat="42.242977" lon="3.215298"><ele>167.1</ele><time>2011-01-02T10:38:29Z</time></trkpt>
<trkpt lat="42.243068" lon="3.215463"><ele>166.4</ele><time>2011-01-02T10:38:34Z</time></trkpt>
<trkpt lat="42.243198" lon="3.215428"><ele>166.5</ele><time>2011-01-02T10:38:39Z</time></trkpt>
<trkpt lat="42.243352" lon="3.215340"><ele>166.7</ele><time>2011-01-02T10:38:44Z</time></trkpt>
<trkpt lat="42.243550" lon="3.215327"><ele>166.6</ele><time>2011-01-02T10:38:49Z</time></trkpt>
<trkpt lat="42.243770" lon="3.215353"><ele>165.9</ele><time>2011-01-02T10:38:54Z</time></trkpt>
<trkpt lat="42.244030" lon="3.215407"><ele>164.8</ele><time>2011-01-02T10:38:59Z</time></trkpt>
<trkpt lat="42.244273" lon="3.215635"><ele>163.6</ele><time>2011-01-02T10:39:04Z</time></trkpt>
<trkpt lat="42.244435" lon="3.216012"><ele>162.1</ele><time>2011-01-02T10:39:09Z</time></trkpt>
<trkpt lat="42.244580" lon="3.216430"><ele>160.6</ele><time>2011-01-02T10:39:14Z</time></trkpt>
<trkpt lat="42.244797" lon="3.216747"><ele>160.4</ele><time>2011-01-02T10:39:19Z</time></trkpt>
<trkpt lat="42.245030" lon="3.216825"><ele>161.2</ele><time>2011-01-02T10:39:24Z</time></trkpt>
<trkpt lat="42.245208" lon="3.216725"><ele>162.6</ele><time>2011-01-02T10:39:29Z</time></trkpt>
<trkpt lat="42.245342" lon="3.216572"><ele>163.8</ele><time>2011-01-02T10:39:34Z</time></trkpt>
<trkpt lat="42.245453" lon="3.216387"><ele>164.9</ele><time>2011-01-02T10:39:39Z</time></trkpt>
<trkpt lat="42.245567" lon="3.216208"><ele>165.9</ele><time>2011-01-02T10:39:44Z</time></trkpt>
<trkpt lat="42.245690" lon="3.216055"><ele>167.2</ele><time>2011-01-02T10:39:49Z</time></trkpt>
<trkpt lat="42.245827" lon="3.215952"><ele>168.2</ele><time>2011-01-02T10:39:54Z</time></trkpt>
<trkpt lat="42.245968" lon="3.215873"><ele>169.4</ele><time>2011-01-02T10:39:59Z</time></trkpt>
<trkpt lat="42.246102" lon="3.215800"><ele>170.6</ele><time>2011-01-02T10:40:04Z</time></trkpt>
<trkpt lat="42.246215" lon="3.215693"><ele>171.6</ele><time>2011-01-02T10:40:09Z</time></trkpt>
<trkpt lat="42.246303" lon="3.215537"><ele>172.5</ele><time>2011-01-02T10:40:14Z</time></trkpt>
<trkpt lat="42.246368" lon="3.215362"><ele>173.6</ele><time>2011-01-02T10:40:19Z</time></trkpt>
<trkpt lat="42.246445" lon="3.215197"><ele>174.4</ele><time>2011-01-02T10:40:24Z</time></trkpt>
<trkpt lat="42.246548" lon="3.215065"><ele>175.4</ele><time>2011-01-02T10:40:29Z</time></trkpt>
<trkpt lat="42.246682" lon="3.214992"><ele>176.5</ele><time>2011-01-02T10:40:34Z</time></trkpt>
<trkpt lat="42.246818" lon="3.214928"><ele>177.6</ele><time>2011-01-02T10:40:39Z</time></trkpt>
<trkpt lat="42.246948" lon="3.214855"><ele>178.7</ele><time>2011-01-02T10:40:44Z</time></trkpt>
<trkpt lat="42.247070" lon="3.214760"><ele>179.9</ele><time>2011-01-02T10:40:49Z</time></trkpt>
<trkpt lat="42.247182" lon="3.214653"><ele>181</ele><time>2011-01-02T10:40:54Z</time></trkpt>
<trkpt lat="42.247315" lon="3.214570"><ele>182.1</ele><time>2011-01-02T10:40:59Z</time></trkpt>
<trkpt lat="42.247452" lon="3.214602"><ele>183.2</ele><time>2011-01-02T10:41:04Z</time></trkpt>
<trkpt lat="42.247578" lon="3.214710"><ele>183.9</ele><time>2011-01-02T10:41:09Z</time></trkpt>
<trkpt lat="42.247723" lon="3.214772"><ele>184.5</ele><time>2011-01-02T10:41:14Z</time></trkpt>
<trkpt lat="42.247868" lon="3.214722"><ele>185.3</ele><time>2011-01-02T10:41:19Z</time></trkpt>
<trkpt lat="42.248005" lon="3.214613"><ele>185.9</ele><time>2011-01-02T10:41:24Z</time></trkpt>
<trkpt lat="42.248150" lon="3.214502"><ele>186.5</ele><time>2011-01-02T10:41:29Z</time></trkpt>
<trkpt lat="42.248302" lon="3.214412"><ele>186.9</ele><time>2011-01-02T10:41:34Z</time></trkpt>
<trkpt lat="42.248470" lon="3.214300"><ele>187</ele><time>2011-01-02T10:41:39Z</time></trkpt>
<trkpt lat="42.248642" lon="3.214153"><ele>186.9</ele><time>2011-01-02T10:41:44Z</time></trkpt>
<trkpt lat="42.248813" lon="3.213977"><ele>186.6</ele><time>2011-01-02T10:41:49Z</time></trkpt>
<trkpt lat="42.248973" lon="3.213763"><ele>186</ele><time>2011-01-02T10:41:54Z</time></trkpt>
<trkpt lat="42.249145" lon="3.213512"><ele>185.5</ele><time>2011-01-02T10:41:59Z</time></trkpt>
<trkpt lat="42.249332" lon="3.213285"><ele>185.5</ele><time>2011-01-02T10:42:04Z</time></trkpt>
<trkpt lat="42.249557" lon="3.213173"><ele>185.6</ele><time>2011-01-02T10:42:09Z</time></trkpt>
<trkpt lat="42.249778" lon="3.213022"><ele>185.3</ele><time>2011-01-02T10:42:14Z</time></trkpt>
<trkpt lat="42.249798" lon="3.212650"><ele>184.8</ele><time>2011-01-02T10:42:19Z</time></trkpt>
<trkpt lat="42.249890" lon="3.212247"><ele>184</ele><time>2011-01-02T10:42:24Z</time></trkpt>
<trkpt lat="42.250118" lon="3.211905"><ele>183</ele><time>2011-01-02T10:42:29Z</time></trkpt>
<trkpt lat="42.250388" lon="3.211595"><ele>182</ele><time>2011-01-02T10:42:34Z</time></trkpt>
<trkpt lat="42.250717" lon="3.211412"><ele>181.6</ele><time>2011-01-02T10:42:39Z</time></trkpt>
<trkpt lat="42.251042" lon="3.211548"><ele>181.4</ele><time>2011-01-02T10:42:44Z</time></trkpt>
<trkpt lat="42.251350" lon="3.211715"><ele>181.7</ele><time>2011-01-02T10:42:49Z</time></trkpt>
<trkpt lat="42.251590" lon="3.211553"><ele>181.8</ele><time>2011-01-02T10:42:54Z</time></trkpt>
<trkpt lat="42.251747" lon="3.211183"><ele>181.4</ele><time>2011-01-02T10:42:59Z</time></trkpt>
<trkpt lat="42.251987" lon="3.210845"><ele>180.4</ele><time>2011-01-02T10:43:04Z</time></trkpt>
<trkpt lat="42.252277" lon="3.210550"><ele>179.6</ele><time>2011-01-02T10:43:09Z</time></trkpt>
<trkpt lat="42.252327" lon="3.210130"><ele>179.6</ele><time>2011-01-02T10:43:14Z</time></trkpt>
<trkpt lat="42.252037" lon="3.209892"><ele>179.4</ele><time>2011-01-02T10:43:19Z</time></trkpt>
<trkpt lat="42.251832" lon="3.209540"><ele>179.1</ele><time>2011-01-02T10:43:24Z</time></trkpt>
<trkpt lat="42.251778" lon="3.209053"><ele>178</ele><time>2011-01-02T10:43:29Z</time></trkpt>
<trkpt lat="42.251862" lon="3.208572"><ele>176</ele><time>2011-01-02T10:43:34Z</time></trkpt>
<trkpt lat="42.252228" lon="3.208465"><ele>175.2</ele><time>2011-01-02T10:43:39Z</time></trkpt>
<trkpt lat="42.252563" lon="3.208648"><ele>174.2</ele><time>2011-01-02T10:43:44Z</time></trkpt>
<trkpt lat="42.252877" lon="3.208863"><ele>173.5</ele><time>2011-01-02T10:43:49Z</time></trkpt>
<trkpt lat="42.253117" lon="3.208580"><ele>173.8</ele><time>2011-01-02T10:43:54Z</time></trkpt>
<trkpt lat="42.253312" lon="3.208257"><ele>173.9</ele><time>2011-01-02T10:43:59Z</time></trkpt>
<trkpt lat="42.253333" lon="3.207860"><ele>174</ele><time>2011-01-02T10:44:04Z</time></trkpt>
<trkpt lat="42.253368" lon="3.207453"><ele>173.1</ele><time>2011-01-02T10:44:09Z</time></trkpt>
<trkpt lat="42.253490" lon="3.207045"><ele>171.8</ele><time>2011-01-02T10:44:14Z</time></trkpt>
<trkpt lat="42.253628" lon="3.206575"><ele>169.3</ele><time>2011-01-02T10:44:19Z</time></trkpt>
<trkpt lat="42.253712" lon="3.206200"><ele>167.2</ele><time>2011-01-02T10:44:24Z</time></trkpt>
<trkpt lat="42.253768" lon="3.206107"><ele>166.7</ele><time>2011-01-02T10:44:29Z</time></trkpt>
<trkpt lat="42.253773" lon="3.206110"><ele>166.6</ele><time>2011-01-02T10:44:34Z</time></trkpt>
<trkpt lat="42.253773" lon="3.206113"><ele>166</ele><time>2011-01-02T10:44:39Z</time></trkpt>
<trkpt lat="42.253768" lon="3.206113"><ele>166.4</ele><time>2011-01-02T10:44:44Z</time></trkpt>
<trkpt lat="42.253768" lon="3.206115"><ele>166.7</ele><time>2011-01-02T10:44:49Z</time></trkpt>
<trkpt lat="42.253768" lon="3.206060"><ele>166.5</ele><time>2011-01-02T10:44:54Z</time></trkpt>
<trkpt lat="42.253715" lon="3.206018"><ele>166.3</ele><time>2011-01-02T10:44:59Z</time></trkpt>
<trkpt lat="42.253730" lon="3.206065"><ele>166.4</ele><time>2011-01-02T10:45:04Z</time></trkpt>
<trkpt lat="42.253788" lon="3.206118"><ele>167.1</ele><time>2011-01-02T10:45:09Z</time></trkpt>
<trkpt lat="42.253848" lon="3.206185"><ele>168.3</ele><time>2011-01-02T10:45:14Z</time></trkpt>
<trkpt lat="42.253918" lon="3.206238"><ele>169.6</ele><time>2011-01-02T10:45:19Z</time></trkpt>
<trkpt lat="42.253987" lon="3.206277"><ele>170.7</ele><time>2011-01-02T10:45:24Z</time></trkpt>
<trkpt lat="42.254063" lon="3.206313"><ele>171.8</ele><time>2011-01-02T10:45:29Z</time></trkpt>
<trkpt lat="42.254143" lon="3.206338"><ele>172.8</ele><time>2011-01-02T10:45:34Z</time></trkpt>
<trkpt lat="42.254223" lon="3.206363"><ele>173.7</ele><time>2011-01-02T10:45:39Z</time></trkpt>
<trkpt lat="42.254298" lon="3.206398"><ele>174.6</ele><time>2011-01-02T10:45:44Z</time></trkpt>
<trkpt lat="42.254375" lon="3.206428"><ele>175.6</ele><time>2011-01-02T10:45:49Z</time></trkpt>
<trkpt lat="42.254452" lon="3.206468"><ele>176.7</ele><time>2011-01-02T10:45:54Z</time></trkpt>
<trkpt lat="42.254517" lon="3.206513"><ele>177.7</ele><time>2011-01-02T10:45:59Z</time></trkpt>
<trkpt lat="42.254588" lon="3.206567"><ele>178.6</ele><time>2011-01-02T10:46:04Z</time></trkpt>
<trkpt lat="42.254650" lon="3.206645"><ele>179.6</ele><time>2011-01-02T10:46:09Z</time></trkpt>
<trkpt lat="42.254692" lon="3.206745"><ele>180.1</ele><time>2011-01-02T10:46:14Z</time></trkpt>
<trkpt lat="42.254662" lon="3.206857"><ele>180.2</ele><time>2011-01-02T10:46:19Z</time></trkpt>
<trkpt lat="42.254615" lon="3.206972"><ele>180.4</ele><time>2011-01-02T10:46:24Z</time></trkpt>
<trkpt lat="42.254573" lon="3.207090"><ele>180.7</ele><time>2011-01-02T10:46:29Z</time></trkpt>
<trkpt lat="42.254535" lon="3.207212"><ele>181.2</ele><time>2011-01-02T10:46:34Z</time></trkpt>
<trkpt lat="42.254502" lon="3.207332"><ele>181.8</ele><time>2011-01-02T10:46:39Z</time></trkpt>
<trkpt lat="42.254467" lon="3.207453"><ele>182.4</ele><time>2011-01-02T10:46:44Z</time></trkpt>
<trkpt lat="42.254437" lon="3.207573"><ele>183.1</ele><time>2011-01-02T10:46:49Z</time></trkpt>
<trkpt lat="42.254402" lon="3.207693"><ele>183.9</ele><time>2011-01-02T10:46:54Z</time></trkpt>
<trkpt lat="42.254360" lon="3.207812"><ele>184.9</ele><time>2011-01-02T10:46:59Z</time></trkpt>
<trkpt lat="42.254322" lon="3.207925"><ele>185.9</ele><time>2011-01-02T10:47:04Z</time></trkpt>
<trkpt lat="42.254280" lon="3.208038"><ele>186.9</ele><time>2011-01-02T10:47:09Z</time></trkpt>
<trkpt lat="42.254238" lon="3.208148"><ele>187.8</ele><time>2011-01-02T10:47:14Z</time></trkpt>
<trkpt lat="42.254197" lon="3.208262"><ele>188.5</ele><time>2011-01-02T10:47:19Z</time></trkpt>
<trkpt lat="42.254147" lon="3.208368"><ele>189.3</ele><time>2011-01-02T10:47:24Z</time></trkpt>
<trkpt lat="42.254093" lon="3.208477"><ele>190.1</ele><time>2011-01-02T10:47:29Z</time></trkpt>
<trkpt lat="42.254037" lon="3.208577"><ele>191</ele><time>2011-01-02T10:47:34Z</time></trkpt>
<trkpt lat="42.253987" lon="3.208683"><ele>191.9</ele><time>2011-01-02T10:47:39Z</time></trkpt>
<trkpt lat="42.253928" lon="3.208783"><ele>192.8</ele><time>2011-01-02T10:47:44Z</time></trkpt>
<trkpt lat="42.253865" lon="3.208880"><ele>193.7</ele><time>2011-01-02T10:47:49Z</time></trkpt>
<trkpt lat="42.253803" lon="3.208978"><ele>194.4</ele><time>2011-01-02T10:47:54Z</time></trkpt>
<trkpt lat="42.253742" lon="3.209070"><ele>195.3</ele><time>2011-01-02T10:47:59Z</time></trkpt>
<trkpt lat="42.253682" lon="3.209163"><ele>196.2</ele><time>2011-01-02T10:48:04Z</time></trkpt>
<trkpt lat="42.253628" lon="3.209268"><ele>197.1</ele><time>2011-01-02T10:48:09Z</time></trkpt>
<trkpt lat="42.253578" lon="3.209387"><ele>197.9</ele><time>2011-01-02T10:48:14Z</time></trkpt>
<trkpt lat="42.253537" lon="3.209522"><ele>198.2</ele><time>2011-01-02T10:48:19Z</time></trkpt>
<trkpt lat="42.253498" lon="3.209653"><ele>198.7</ele><time>2011-01-02T10:48:24Z</time></trkpt>
<trkpt lat="42.253460" lon="3.209783"><ele>199.1</ele><time>2011-01-02T10:48:29Z</time></trkpt>
<trkpt lat="42.253422" lon="3.209908"><ele>199.8</ele><time>2011-01-02T10:48:34Z</time></trkpt>
<trkpt lat="42.253380" lon="3.210033"><ele>200.5</ele><time>2011-01-02T10:48:39Z</time></trkpt>
<trkpt lat="42.253342" lon="3.210153"><ele>201.3</ele><time>2011-01-02T10:48:44Z</time></trkpt>
<trkpt lat="42.253297" lon="3.210280"><ele>202</ele><time>2011-01-02T10:48:49Z</time></trkpt>
<trkpt lat="42.253262" lon="3.210420"><ele>202.7</ele><time>2011-01-02T10:48:54Z</time></trkpt>
<trkpt lat="42.253258" lon="3.210563"><ele>203.1</ele><time>2011-01-02T10:48:59Z</time></trkpt>
<trkpt lat="42.253312" lon="3.210683"><ele>203.4</ele><time>2011-01-02T10:49:04Z</time></trkpt>
<trkpt lat="42.253422" lon="3.210687"><ele>204.3</ele><time>2011-01-02T10:49:09Z</time></trkpt>
<trkpt lat="42.253495" lon="3.210590"><ele>205.7</ele><time>2011-01-02T10:49:14Z</time></trkpt>
<trkpt lat="42.253487" lon="3.210450"><ele>206.9</ele><time>2011-01-02T10:49:19Z</time></trkpt>
<trkpt lat="42.253472" lon="3.210303"><ele>207.4</ele><time>2011-01-02T10:49:24Z</time></trkpt>
<trkpt lat="42.253502" lon="3.210160"><ele>207.9</ele><time>2011-01-02T10:49:29Z</time></trkpt>
<trkpt lat="42.253563" lon="3.210050"><ele>208.6</ele><time>2011-01-02T10:49:34Z</time></trkpt>
<trkpt lat="42.253640" lon="3.209965"><ele>209.7</ele><time>2011-01-02T10:49:39Z</time></trkpt>
<trkpt lat="42.253708" lon="3.209890"><ele>210.8</ele><time>2011-01-02T10:49:44Z</time></trkpt>
<trkpt lat="42.253773" lon="3.209807"><ele>211.8</ele><time>2011-01-02T10:49:49Z</time></trkpt>
<trkpt lat="42.253838" lon="3.209722"><ele>212.9</ele><time>2011-01-02T10:49:54Z</time></trkpt>
<trkpt lat="42.253907" lon="3.209622"><ele>213.7</ele><time>2011-01-02T10:49:59Z</time></trkpt>
<trkpt lat="42.253987" lon="3.209553"><ele>214.5</ele><time>2011-01-02T10:50:04Z</time></trkpt>
<trkpt lat="42.254067" lon="3.209508"><ele>215.2</ele><time>2011-01-02T10:50:09Z</time></trkpt>
<trkpt lat="42.254150" lon="3.209470"><ele>216.1</ele><time>2011-01-02T10:50:14Z</time></trkpt>
<trkpt lat="42.254235" lon="3.209433"><ele>216.9</ele><time>2011-01-02T10:50:19Z</time></trkpt>
<trkpt lat="42.254330" lon="3.209397"><ele>217.6</ele><time>2011-01-02T10:50:24Z</time></trkpt>
<trkpt lat="42.254425" lon="3.209353"><ele>218.5</ele><time>2011-01-02T10:50:29Z</time></trkpt>
<trkpt lat="42.254520" lon="3.209312"><ele>219.2</ele><time>2011-01-02T10:50:34Z</time></trkpt>
<trkpt lat="42.254615" lon="3.209267"><ele>220.1</ele><time>2011-01-02T10:50:39Z</time></trkpt>
<trkpt lat="42.254707" lon="3.209218"><ele>221.1</ele><time>2011-01-02T10:50:44Z</time></trkpt>
<trkpt lat="42.254795" lon="3.209170"><ele>222.1</ele><time>2011-01-02T10:50:49Z</time></trkpt>
<trkpt lat="42.254883" lon="3.209122"><ele>223</ele><time>2011-01-02T10:50:54Z</time></trkpt>
<trkpt lat="42.254975" lon="3.209072"><ele>223.8</ele><time>2011-01-02T10:50:59Z</time></trkpt>
<trkpt lat="42.255067" lon="3.209022"><ele>224.6</ele><time>2011-01-02T10:51:04Z</time></trkpt>
<trkpt lat="42.255153" lon="3.208962"><ele>225.4</ele><time>2011-01-02T10:51:09Z</time></trkpt>
<trkpt lat="42.255238" lon="3.208898"><ele>226.3</ele><time>2011-01-02T10:51:14Z</time></trkpt>
<trkpt lat="42.255322" lon="3.208832"><ele>227.1</ele><time>2011-01-02T10:51:19Z</time></trkpt>
<trkpt lat="42.255398" lon="3.208760"><ele>228.2</ele><time>2011-01-02T10:51:24Z</time></trkpt>
<trkpt lat="42.255470" lon="3.208682"><ele>229.2</ele><time>2011-01-02T10:51:29Z</time></trkpt>
<trkpt lat="42.255547" lon="3.208602"><ele>230.1</ele><time>2011-01-02T10:51:34Z</time></trkpt>
<trkpt lat="42.255618" lon="3.208515"><ele>230.8</ele><time>2011-01-02T10:51:39Z</time></trkpt>
<trkpt lat="42.255692" lon="3.208430"><ele>231.6</ele><time>2011-01-02T10:51:44Z</time></trkpt>
<trkpt lat="42.255760" lon="3.208350"><ele>232.5</ele><time>2011-01-02T10:51:49Z</time></trkpt>
<trkpt lat="42.255840" lon="3.208272"><ele>233.3</ele><time>2011-01-02T10:51:54Z</time></trkpt>
<trkpt lat="42.255920" lon="3.208212"><ele>234.2</ele><time>2011-01-02T10:51:59Z</time></trkpt>
<trkpt lat="42.256012" lon="3.208160"><ele>235.1</ele><time>2011-01-02T10:52:04Z</time></trkpt>
<trkpt lat="42.256103" lon="3.208117"><ele>235.9</ele><time>2011-01-02T10:52:09Z</time></trkpt>
<trkpt lat="42.256195" lon="3.208077"><ele>236.7</ele><time>2011-01-02T10:52:14Z</time></trkpt>
<trkpt lat="42.256287" lon="3.208030"><ele>237.5</ele><time>2011-01-02T10:52:19Z</time></trkpt>
<trkpt lat="42.256375" lon="3.207980"><ele>238.2</ele><time>2011-01-02T10:52:24Z</time></trkpt>
<trkpt lat="42.256462" lon="3.207928"><ele>239</ele><time>2011-01-02T10:52:29Z</time></trkpt>
<trkpt lat="42.256553" lon="3.207882"><ele>239.9</ele><time>2011-01-02T10:52:34Z</time></trkpt>
<trkpt lat="42.256642" lon="3.207835"><ele>240.8</ele><time>2011-01-02T10:52:39Z</time></trkpt>
<trkpt lat="42.256733" lon="3.207805"><ele>241.7</ele><time>2011-01-02T10:52:44Z</time></trkpt>
<trkpt lat="42.256837" lon="3.207788"><ele>242.4</ele><time>2011-01-02T10:52:49Z</time></trkpt>
<trkpt lat="42.256935" lon="3.207785"><ele>243.5</ele><time>2011-01-02T10:52:54Z</time></trkpt>
<trkpt lat="42.257030" lon="3.207797"><ele>244.4</ele><time>2011-01-02T10:52:59Z</time></trkpt>
<trkpt lat="42.257127" lon="3.207825"><ele>245.2</ele><time>2011-01-02T10:53:04Z</time></trkpt>
<trkpt lat="42.257222" lon="3.207867"><ele>246</ele><time>2011-01-02T10:53:09Z</time></trkpt>
<trkpt lat="42.257308" lon="3.207910"><ele>246.8</ele><time>2011-01-02T10:53:14Z</time></trkpt>
<trkpt lat="42.257400" lon="3.207957"><ele>247.6</ele><time>2011-01-02T10:53:19Z</time></trkpt>
<trkpt lat="42.257488" lon="3.208003"><ele>248.6</ele><time>2011-01-02T10:53:24Z</time></trkpt>
<trkpt lat="42.257587" lon="3.208048"><ele>249.2</ele><time>2011-01-02T10:53:29Z</time></trkpt>
<trkpt lat="42.257690" lon="3.208083"><ele>250.2</ele><time>2011-01-02T10:53:34Z</time></trkpt>
<trkpt lat="42.257785" lon="3.208105"><ele>251.1</ele><time>2011-01-02T10:53:39Z</time></trkpt>
<trkpt lat="42.257882" lon="3.208117"><ele>252</ele><time>2011-01-02T10:53:44Z</time></trkpt>
<trkpt lat="42.257980" lon="3.208113"><ele>252.8</ele><time>2011-01-02T10:53:49Z</time></trkpt>
<trkpt lat="42.258075" lon="3.208108"><ele>253.7</ele><time>2011-01-02T10:53:54Z</time></trkpt>
<trkpt lat="42.258175" lon="3.208098"><ele>254.6</ele><time>2011-01-02T10:53:59Z</time></trkpt>
<trkpt lat="42.258270" lon="3.208085"><ele>255.5</ele><time>2011-01-02T10:54:04Z</time></trkpt>
<trkpt lat="42.258365" lon="3.208060"><ele>256.4</ele><time>2011-01-02T10:54:09Z</time></trkpt>
<trkpt lat="42.258457" lon="3.208023"><ele>257.3</ele><time>2011-01-02T10:54:14Z</time></trkpt>
<trkpt lat="42.258548" lon="3.207987"><ele>258.4</ele><time>2011-01-02T10:54:19Z</time></trkpt>
<trkpt lat="42.258628" lon="3.207957"><ele>259.4</ele><time>2011-01-02T10:54:24Z</time></trkpt>
<trkpt lat="42.258708" lon="3.207885"><ele>260.2</ele><time>2011-01-02T10:54:29Z</time></trkpt>
<trkpt lat="42.258788" lon="3.207812"><ele>261</ele><time>2011-01-02T10:54:34Z</time></trkpt>
<trkpt lat="42.258865" lon="3.207750"><ele>262</ele><time>2011-01-02T10:54:39Z</time></trkpt>
<trkpt lat="42.258945" lon="3.207695"><ele>262.9</ele><time>2011-01-02T10:54:44Z</time></trkpt>
<trkpt lat="42.259030" lon="3.207615"><ele>263.2</ele><time>2011-01-02T10:54:49Z</time></trkpt>
<trkpt lat="42.259113" lon="3.207555"><ele>264.1</ele><time>2011-01-02T10:54:54Z</time></trkpt>
<trkpt lat="42.259193" lon="3.207487"><ele>265</ele><time>2011-01-02T10:54:59Z</time></trkpt>
<trkpt lat="42.259273" lon="3.207422"><ele>265.9</ele><time>2011-01-02T10:55:04Z</time></trkpt>
<trkpt lat="42.259357" lon="3.207363"><ele>266.8</ele><time>2011-01-02T10:55:09Z</time></trkpt>
<trkpt lat="42.259445" lon="3.207315"><ele>267.6</ele><time>2011-01-02T10:55:14Z</time></trkpt>
<trkpt lat="42.259537" lon="3.207285"><ele>268.6</ele><time>2011-01-02T10:55:19Z</time></trkpt>
<trkpt lat="42.259637" lon="3.207265"><ele>269.6</ele><time>2011-01-02T10:55:24Z</time></trkpt>
<trkpt lat="42.259727" lon="3.207250"><ele>270.7</ele><time>2011-01-02T10:55:29Z</time></trkpt>
<trkpt lat="42.259830" lon="3.207225"><ele>271</ele><time>2011-01-02T10:55:34Z</time></trkpt>
<trkpt lat="42.259933" lon="3.207213"><ele>271.8</ele><time>2011-01-02T10:55:39Z</time></trkpt>
<trkpt lat="42.260033" lon="3.207197"><ele>272.5</ele><time>2011-01-02T10:55:44Z</time></trkpt>
<trkpt lat="42.260132" lon="3.207193"><ele>273.1</ele><time>2011-01-02T10:55:49Z</time></trkpt>
<trkpt lat="42.260227" lon="3.207193"><ele>273.9</ele><time>2011-01-02T10:55:54Z</time></trkpt>
<trkpt lat="42.260323" lon="3.207193"><ele>274.6</ele><time>2011-01-02T10:55:59Z</time></trkpt>
<trkpt lat="42.260418" lon="3.207212"><ele>275.3</ele><time>2011-01-02T10:56:04Z</time></trkpt>
<trkpt lat="42.260513" lon="3.207235"><ele>275.9</ele><time>2011-01-02T10:56:09Z</time></trkpt>
<trkpt lat="42.260608" lon="3.207267"><ele>276.5</ele><time>2011-01-02T10:56:14Z</time></trkpt>
<trkpt lat="42.260703" lon="3.207292"><ele>277.1</ele><time>2011-01-02T10:56:19Z</time></trkpt>
<trkpt lat="42.260795" lon="3.207302"><ele>277.9</ele><time>2011-01-02T10:56:24Z</time></trkpt>
<trkpt lat="42.260892" lon="3.207292"><ele>278.7</ele><time>2011-01-02T10:56:29Z</time></trkpt>
<trkpt lat="42.260998" lon="3.207258"><ele>279.6</ele><time>2011-01-02T10:56:34Z</time></trkpt>
<trkpt lat="42.261085" lon="3.207213"><ele>280.5</ele><time>2011-01-02T10:56:39Z</time></trkpt>
<trkpt lat="42.261170" lon="3.207160"><ele>281.4</ele><time>2011-01-02T10:56:44Z</time></trkpt>
<trkpt lat="42.261253" lon="3.207103"><ele>282.4</ele><time>2011-01-02T10:56:49Z</time></trkpt>
<trkpt lat="42.261333" lon="3.207043"><ele>283.3</ele><time>2011-01-02T10:56:54Z</time></trkpt>
<trkpt lat="42.261417" lon="3.206977"><ele>284.2</ele><time>2011-01-02T10:56:59Z</time></trkpt>
<trkpt lat="42.261493" lon="3.206912"><ele>285.2</ele><time>2011-01-02T10:57:04Z</time></trkpt>
<trkpt lat="42.261573" lon="3.206850"><ele>286.2</ele><time>2011-01-02T10:57:09Z</time></trkpt>
<trkpt lat="42.261658" lon="3.206797"><ele>287.1</ele><time>2011-01-02T10:57:14Z</time></trkpt>
<trkpt lat="42.261753" lon="3.206752"><ele>288</ele><time>2011-01-02T10:57:19Z</time></trkpt>
<trkpt lat="42.261852" lon="3.206723"><ele>288.8</ele><time>2011-01-02T10:57:24Z</time></trkpt>
<trkpt lat="42.261948" lon="3.206717"><ele>289.4</ele><time>2011-01-02T10:57:29Z</time></trkpt>
<trkpt lat="42.262047" lon="3.206737"><ele>290.1</ele><time>2011-01-02T10:57:34Z</time></trkpt>
<trkpt lat="42.262147" lon="3.206775"><ele>290.6</ele><time>2011-01-02T10:57:39Z</time></trkpt>
<trkpt lat="42.262245" lon="3.206807"><ele>291.5</ele><time>2011-01-02T10:57:44Z</time></trkpt>
<trkpt lat="42.262340" lon="3.206837"><ele>292.6</ele><time>2011-01-02T10:57:49Z</time></trkpt>
<trkpt lat="42.262440" lon="3.206870"><ele>293.7</ele><time>2011-01-02T10:57:54Z</time></trkpt>
<trkpt lat="42.262535" lon="3.206910"><ele>294.7</ele><time>2011-01-02T10:57:59Z</time></trkpt>
<trkpt lat="42.262612" lon="3.206995"><ele>295.1</ele><time>2011-01-02T10:58:04Z</time></trkpt>
<trkpt lat="42.262662" lon="3.207123"><ele>295.1</ele><time>2011-01-02T10:58:09Z</time></trkpt>
<trkpt lat="42.262695" lon="3.207267"><ele>295</ele><time>2011-01-02T10:58:14Z</time></trkpt>
<trkpt lat="42.262722" lon="3.207410"><ele>295</ele><time>2011-01-02T10:58:19Z</time></trkpt>
<trkpt lat="42.262748" lon="3.207552"><ele>295.4</ele><time>2011-01-02T10:58:24Z</time></trkpt>
<trkpt lat="42.262783" lon="3.207688"><ele>295.6</ele><time>2011-01-02T10:58:29Z</time></trkpt>
<trkpt lat="42.262822" lon="3.207847"><ele>295.9</ele><time>2011-01-02T10:58:34Z</time></trkpt>
<trkpt lat="42.262860" lon="3.207990"><ele>296.3</ele><time>2011-01-02T10:58:39Z</time></trkpt>
<trkpt lat="42.262897" lon="3.208128"><ele>296.9</ele><time>2011-01-02T10:58:44Z</time></trkpt>
<trkpt lat="42.262962" lon="3.208247"><ele>297.5</ele><time>2011-01-02T10:58:49Z</time></trkpt>
<trkpt lat="42.263027" lon="3.208363"><ele>298.1</ele><time>2011-01-02T10:58:54Z</time></trkpt>
<trkpt lat="42.263103" lon="3.208468"><ele>298.8</ele><time>2011-01-02T10:58:59Z</time></trkpt>
<trkpt lat="42.263192" lon="3.208532"><ele>299.9</ele><time>2011-01-02T10:59:04Z</time></trkpt>
<trkpt lat="42.263287" lon="3.208563"><ele>301.3</ele><time>2011-01-02T10:59:09Z</time></trkpt>
<trkpt lat="42.263393" lon="3.208563"><ele>302.3</ele><time>2011-01-02T10:59:14Z</time></trkpt>
<trkpt lat="42.263500" lon="3.208527"><ele>303.7</ele><time>2011-01-02T10:59:19Z</time></trkpt>
<trkpt lat="42.263595" lon="3.208465"><ele>304.8</ele><time>2011-01-02T10:59:24Z</time></trkpt>
<trkpt lat="42.263687" lon="3.208392"><ele>305.8</ele><time>2011-01-02T10:59:29Z</time></trkpt>
<trkpt lat="42.263783" lon="3.208328"><ele>306.8</ele><time>2011-01-02T10:59:34Z</time></trkpt>
<trkpt lat="42.263882" lon="3.208262"><ele>307.5</ele><time>2011-01-02T10:59:39Z</time></trkpt>
<trkpt lat="42.263988" lon="3.208225"><ele>308.2</ele><time>2011-01-02T10:59:44Z</time></trkpt>
<trkpt lat="42.264095" lon="3.208198"><ele>308.9</ele><time>2011-01-02T10:59:49Z</time></trkpt>
<trkpt lat="42.264202" lon="3.208192"><ele>309.6</ele><time>2011-01-02T10:59:54Z</time></trkpt>
<trkpt lat="42.264297" lon="3.208263"><ele>310.7</ele><time>2011-01-02T10:59:59Z</time></trkpt>
<trkpt lat="42.264340" lon="3.208392"><ele>311.6</ele><time>2011-01-02T11:00:04Z</time></trkpt>
<trkpt lat="42.264343" lon="3.208557"><ele>311.8</ele><time>2011-01-02T11:00:09Z</time></trkpt>
<trkpt lat="42.264347" lon="3.208720"><ele>311.6</ele><time>2011-01-02T11:00:14Z</time></trkpt>
<trkpt lat="42.264352" lon="3.208870"><ele>311.5</ele><time>2011-01-02T11:00:19Z</time></trkpt>
<trkpt lat="42.264352" lon="3.209043"><ele>311.3</ele><time>2011-01-02T11:00:24Z</time></trkpt>
<trkpt lat="42.264347" lon="3.209238"><ele>311.1</ele><time>2011-01-02T11:00:29Z</time></trkpt>
<trkpt lat="42.264358" lon="3.209397"><ele>311.1</ele><time>2011-01-02T11:00:34Z</time></trkpt>
<trkpt lat="42.264378" lon="3.209477"><ele>311</ele><time>2011-01-02T11:00:39Z</time></trkpt>
<trkpt lat="42.264378" lon="3.209473"><ele>311.2</ele><time>2011-01-02T11:00:44Z</time></trkpt>
<trkpt lat="42.264373" lon="3.209473"><ele>311.3</ele><time>2011-01-02T11:00:49Z</time></trkpt>
<trkpt lat="42.264378" lon="3.209473"><ele>311.1</ele><time>2011-01-02T11:00:54Z</time></trkpt>
<trkpt lat="42.264373" lon="3.209472"><ele>311.3</ele><time>2011-01-02T11:00:59Z</time></trkpt>
<trkpt lat="42.264373" lon="3.209472"><ele>311.5</ele><time>2011-01-02T11:01:04Z</time></trkpt>
<trkpt lat="42.264358" lon="3.209572"><ele>311.1</ele><time>2011-01-02T11:01:09Z</time></trkpt>
<trkpt lat="42.264347" lon="3.209790"><ele>310.1</ele><time>2011-01-02T11:01:14Z</time></trkpt>
<trkpt lat="42.264325" lon="3.210062"><ele>308.6</ele><time>2011-01-02T11:01:19Z</time></trkpt>
<trkpt lat="42.264275" lon="3.210367"><ele>307.6</ele><time>2011-01-02T11:01:24Z</time></trkpt>
<trkpt lat="42.264172" lon="3.210590"><ele>307.3</ele><time>2011-01-02T11:01:29Z</time></trkpt>
<trkpt lat="42.264115" lon="3.210743"><ele>307.3</ele><time>2011-01-02T11:01:34Z</time></trkpt>
<trkpt lat="42.264083" lon="3.210937"><ele>306.9</ele><time>2011-01-02T11:01:39Z</time></trkpt>
<trkpt lat="42.264095" lon="3.211175"><ele>306.3</ele><time>2011-01-02T11:01:44Z</time></trkpt>
<trkpt lat="42.264110" lon="3.211432"><ele>305.4</ele><time>2011-01-02T11:01:49Z</time></trkpt>
<trkpt lat="42.264118" lon="3.211718"><ele>304.2</ele><time>2011-01-02T11:01:54Z</time></trkpt>
<trkpt lat="42.264133" lon="3.212000"><ele>303.5</ele><time>2011-01-02T11:01:59Z</time></trkpt>
<trkpt lat="42.264137" lon="3.212230"><ele>303</ele><time>2011-01-02T11:02:04Z</time></trkpt>
<trkpt lat="42.264142" lon="3.212473"><ele>302.4</ele><time>2011-01-02T11:02:09Z</time></trkpt>
<trkpt lat="42.264175" lon="3.212643"><ele>303.1</ele><time>2011-01-02T11:02:14Z</time></trkpt>
<trkpt lat="42.264217" lon="3.212752"><ele>304</ele><time>2011-01-02T11:02:19Z</time></trkpt>
<trkpt lat="42.264267" lon="3.212853"><ele>305.3</ele><time>2011-01-02T11:02:24Z</time></trkpt>
<trkpt lat="42.264313" lon="3.212950"><ele>306.6</ele><time>2011-01-02T11:02:29Z</time></trkpt>
<trkpt lat="42.264358" lon="3.213045"><ele>307.9</ele><time>2011-01-02T11:02:34Z</time></trkpt>
<trkpt lat="42.264408" lon="3.213128"><ele>309.2</ele><time>2011-01-02T11:02:39Z</time></trkpt>
<trkpt lat="42.264465" lon="3.213208"><ele>310.4</ele><time>2011-01-02T11:02:44Z</time></trkpt>
<trkpt lat="42.264523" lon="3.213288"><ele>311.6</ele><time>2011-01-02T11:02:49Z</time></trkpt>
<trkpt lat="42.264580" lon="3.213367"><ele>312.8</ele><time>2011-01-02T11:02:54Z</time></trkpt>
<trkpt lat="42.264640" lon="3.213437"><ele>313.8</ele><time>2011-01-02T11:02:59Z</time></trkpt>
<trkpt lat="42.264698" lon="3.213510"><ele>314.9</ele><time>2011-01-02T11:03:04Z</time></trkpt>
<trkpt lat="42.264755" lon="3.213580"><ele>315.9</ele><time>2011-01-02T11:03:09Z</time></trkpt>
<trkpt lat="42.264820" lon="3.213647"><ele>316.9</ele><time>2011-01-02T11:03:14Z</time></trkpt>
<trkpt lat="42.264885" lon="3.213708"><ele>318</ele><time>2011-01-02T11:03:19Z</time></trkpt>
<trkpt lat="42.264953" lon="3.213770"><ele>318.9</ele><time>2011-01-02T11:03:24Z</time></trkpt>
<trkpt lat="42.265018" lon="3.213828"><ele>319.9</ele><time>2011-01-02T11:03:29Z</time></trkpt>
<trkpt lat="42.265080" lon="3.213888"><ele>320.9</ele><time>2011-01-02T11:03:34Z</time></trkpt>
<trkpt lat="42.265145" lon="3.213947"><ele>321.9</ele><time>2011-01-02T11:03:39Z</time></trkpt>
<trkpt lat="42.265217" lon="3.214010"><ele>322.6</ele><time>2011-01-02T11:03:44Z</time></trkpt>
<trkpt lat="42.265290" lon="3.214070"><ele>323.6</ele><time>2011-01-02T11:03:49Z</time></trkpt>
<trkpt lat="42.265353" lon="3.214130"><ele>324.6</ele><time>2011-01-02T11:03:54Z</time></trkpt>
<trkpt lat="42.265418" lon="3.214190"><ele>325.7</ele><time>2011-01-02T11:03:59Z</time></trkpt>
<trkpt lat="42.265483" lon="3.214253"><ele>326.6</ele><time>2011-01-02T11:04:04Z</time></trkpt>
<trkpt lat="42.265548" lon="3.214308"><ele>327.4</ele><time>2011-01-02T11:04:09Z</time></trkpt>
<trkpt lat="42.265617" lon="3.214365"><ele>328.3</ele><time>2011-01-02T11:04:14Z</time></trkpt>
<trkpt lat="42.265690" lon="3.214410"><ele>329.4</ele><time>2011-01-02T11:04:19Z</time></trkpt>
<trkpt lat="42.265767" lon="3.214440"><ele>330.5</ele><time>2011-01-02T11:04:24Z</time></trkpt>
<trkpt lat="42.265842" lon="3.214438"><ele>331.8</ele><time>2011-01-02T11:04:29Z</time></trkpt>
<trkpt lat="42.265923" lon="3.214417"><ele>333.2</ele><time>2011-01-02T11:04:34Z</time></trkpt>
<trkpt lat="42.265987" lon="3.214372"><ele>334.5</ele><time>2011-01-02T11:04:39Z</time></trkpt>
<trkpt lat="42.266048" lon="3.214310"><ele>335.7</ele><time>2011-01-02T11:04:44Z</time></trkpt>
<trkpt lat="42.266110" lon="3.214245"><ele>336.7</ele><time>2011-01-02T11:04:49Z</time></trkpt>
<trkpt lat="42.266170" lon="3.214180"><ele>337.8</ele><time>2011-01-02T11:04:54Z</time></trkpt>
<trkpt lat="42.266223" lon="3.214103"><ele>338.9</ele><time>2011-01-02T11:04:59Z</time></trkpt>
<trkpt lat="42.266277" lon="3.214023"><ele>339.8</ele><time>2011-01-02T11:05:04Z</time></trkpt>
<trkpt lat="42.266323" lon="3.213940"><ele>340.7</ele><time>2011-01-02T11:05:09Z</time></trkpt>
<trkpt lat="42.266373" lon="3.213857"><ele>341.8</ele><time>2011-01-02T11:05:14Z</time></trkpt>
<trkpt lat="42.266418" lon="3.213782"><ele>342.8</ele><time>2011-01-02T11:05:19Z</time></trkpt>
<trkpt lat="42.266480" lon="3.213732"><ele>343.9</ele><time>2011-01-02T11:05:24Z</time></trkpt>
<trkpt lat="42.266552" lon="3.213722"><ele>344.5</ele><time>2011-01-02T11:05:29Z</time></trkpt>
<trkpt lat="42.266620" lon="3.213755"><ele>344.9</ele><time>2011-01-02T11:05:34Z</time></trkpt>
<trkpt lat="42.266678" lon="3.213815"><ele>345</ele><time>2011-01-02T11:05:39Z</time></trkpt>
<trkpt lat="42.266735" lon="3.213873"><ele>345.6</ele><time>2011-01-02T11:05:44Z</time></trkpt>
<trkpt lat="42.266797" lon="3.213930"><ele>346</ele><time>2011-01-02T11:05:49Z</time></trkpt>
<trkpt lat="42.266862" lon="3.213997"><ele>346.2</ele><time>2011-01-02T11:05:54Z</time></trkpt>
<trkpt lat="42.266925" lon="3.214053"><ele>347.2</ele><time>2011-01-02T11:05:59Z</time></trkpt>
<trkpt lat="42.266987" lon="3.214120"><ele>348.1</ele><time>2011-01-02T11:06:04Z</time></trkpt>
<trkpt lat="42.267052" lon="3.214182"><ele>349</ele><time>2011-01-02T11:06:09Z</time></trkpt>
<trkpt lat="42.267113" lon="3.214247"><ele>349.8</ele><time>2011-01-02T11:06:14Z</time></trkpt>
<trkpt lat="42.267173" lon="3.214310"><ele>350.7</ele><time>2011-01-02T11:06:19Z</time></trkpt>
<trkpt lat="42.267235" lon="3.214372"><ele>351.7</ele><time>2011-01-02T11:06:24Z</time></trkpt>
<trkpt lat="42.267292" lon="3.214447"><ele>352.5</ele><time>2011-01-02T11:06:29Z</time></trkpt>
<trkpt lat="42.267350" lon="3.214527"><ele>353.3</ele><time>2011-01-02T11:06:34Z</time></trkpt>
<trkpt lat="42.267410" lon="3.214598"><ele>354.2</ele><time>2011-01-02T11:06:39Z</time></trkpt>
<trkpt lat="42.267467" lon="3.214673"><ele>355.1</ele><time>2011-01-02T11:06:44Z</time></trkpt>
<trkpt lat="42.267525" lon="3.214747"><ele>356.1</ele><time>2011-01-02T11:06:49Z</time></trkpt>
<trkpt lat="42.267590" lon="3.214827"><ele>356.7</ele><time>2011-01-02T11:06:54Z</time></trkpt>
<trkpt lat="42.267650" lon="3.214907"><ele>357.3</ele><time>2011-01-02T11:06:59Z</time></trkpt>
<trkpt lat="42.267703" lon="3.214985"><ele>358</ele><time>2011-01-02T11:07:04Z</time></trkpt>
<trkpt lat="42.267753" lon="3.215070"><ele>358.8</ele><time>2011-01-02T11:07:09Z</time></trkpt>
<trkpt lat="42.267795" lon="3.215165"><ele>359.5</ele><time>2011-01-02T11:07:14Z</time></trkpt>
<trkpt lat="42.267827" lon="3.215270"><ele>360.4</ele><time>2011-01-02T11:07:19Z</time></trkpt>
<trkpt lat="42.267880" lon="3.215355"><ele>361.2</ele><time>2011-01-02T11:07:24Z</time></trkpt>
<trkpt lat="42.267945" lon="3.215425"><ele>362.1</ele><time>2011-01-02T11:07:29Z</time></trkpt>
<trkpt lat="42.268020" lon="3.215480"><ele>362.8</ele><time>2011-01-02T11:07:34Z</time></trkpt>
<trkpt lat="42.268105" lon="3.215517"><ele>363.7</ele><time>2011-01-02T11:07:39Z</time></trkpt>
<trkpt lat="42.268192" lon="3.215537"><ele>364.2</ele><time>2011-01-02T11:07:44Z</time></trkpt>
<trkpt lat="42.268277" lon="3.215553"><ele>365.1</ele><time>2011-01-02T11:07:49Z</time></trkpt>
<trkpt lat="42.268363" lon="3.215567"><ele>366.1</ele><time>2011-01-02T11:07:54Z</time></trkpt>
<trkpt lat="42.268448" lon="3.215582"><ele>367.2</ele><time>2011-01-02T11:07:59Z</time></trkpt>
<trkpt lat="42.268535" lon="3.215590"><ele>368.3</ele><time>2011-01-02T11:08:04Z</time></trkpt>
<trkpt lat="42.268620" lon="3.215612"><ele>369.2</ele><time>2011-01-02T11:08:09Z</time></trkpt>
<trkpt lat="42.268700" lon="3.215638"><ele>370.1</ele><time>2011-01-02T11:08:14Z</time></trkpt>
<trkpt lat="42.268783" lon="3.215677"><ele>370.9</ele><time>2011-01-02T11:08:19Z</time></trkpt>
<trkpt lat="42.268863" lon="3.215732"><ele>371.7</ele><time>2011-01-02T11:08:24Z</time></trkpt>
<trkpt lat="42.268940" lon="3.215815"><ele>372.1</ele><time>2011-01-02T11:08:29Z</time></trkpt>
<trkpt lat="42.269005" lon="3.215913"><ele>372.4</ele><time>2011-01-02T11:08:34Z</time></trkpt>
<trkpt lat="42.269050" lon="3.216025"><ele>372.5</ele><time>2011-01-02T11:08:39Z</time></trkpt>
<trkpt lat="42.269100" lon="3.216135"><ele>372.7</ele><time>2011-01-02T11:08:44Z</time></trkpt>
<trkpt lat="42.269157" lon="3.216237"><ele>373.1</ele><time>2011-01-02T11:08:49Z</time></trkpt>
<trkpt lat="42.269207" lon="3.216337"><ele>373.7</ele><time>2011-01-02T11:08:54Z</time></trkpt>
<trkpt lat="42.269253" lon="3.216437"><ele>374.4</ele><time>2011-01-02T11:08:59Z</time></trkpt>
<trkpt lat="42.269302" lon="3.216533"><ele>375.1</ele><time>2011-01-02T11:09:04Z</time></trkpt>
<trkpt lat="42.269348" lon="3.216630"><ele>376</ele><time>2011-01-02T11:09:09Z</time></trkpt>
<trkpt lat="42.269393" lon="3.216725"><ele>376.9</ele><time>2011-01-02T11:09:14Z</time></trkpt>
<trkpt lat="42.269443" lon="3.216822"><ele>377.9</ele><time>2011-01-02T11:09:19Z</time></trkpt>
<trkpt lat="42.269485" lon="3.216917"><ele>378.8</ele><time>2011-01-02T11:09:24Z</time></trkpt>
<trkpt lat="42.269532" lon="3.217010"><ele>379.8</ele><time>2011-01-02T11:09:29Z</time></trkpt>
<trkpt lat="42.269577" lon="3.217112"><ele>380.4</ele><time>2011-01-02T11:09:34Z</time></trkpt>
<trkpt lat="42.269623" lon="3.217215"><ele>381.2</ele><time>2011-01-02T11:09:39Z</time></trkpt>
<trkpt lat="42.269665" lon="3.217320"><ele>382.1</ele><time>2011-01-02T11:09:44Z</time></trkpt>
<trkpt lat="42.269698" lon="3.217427"><ele>382.8</ele><time>2011-01-02T11:09:49Z</time></trkpt>
<trkpt lat="42.269722" lon="3.217535"><ele>383.4</ele><time>2011-01-02T11:09:54Z</time></trkpt>
<trkpt lat="42.269742" lon="3.217638"><ele>384.1</ele><time>2011-01-02T11:09:59Z</time></trkpt>
<trkpt lat="42.269768" lon="3.217747"><ele>384.8</ele><time>2011-01-02T11:10:04Z</time></trkpt>
<trkpt lat="42.269783" lon="3.217855"><ele>385.5</ele><time>2011-01-02T11:10:09Z</time></trkpt>
<trkpt lat="42.269807" lon="3.217967"><ele>386.3</ele><time>2011-01-02T11:10:14Z</time></trkpt>
<trkpt lat="42.269833" lon="3.218087"><ele>386.7</ele><time>2011-01-02T11:10:19Z</time></trkpt>
<trkpt lat="42.269852" lon="3.218203"><ele>387.4</ele><time>2011-01-02T11:10:24Z</time></trkpt>
<trkpt lat="42.269870" lon="3.218323"><ele>388</ele><time>2011-01-02T11:10:29Z</time></trkpt>
<trkpt lat="42.269882" lon="3.218440"><ele>388.6</ele><time>2011-01-02T11:10:34Z</time></trkpt>
<trkpt lat="42.269897" lon="3.218560"><ele>389.3</ele><time>2011-01-02T11:10:39Z</time></trkpt>
<trkpt lat="42.269913" lon="3.218680"><ele>389.9</ele><time>2011-01-02T11:10:44Z</time></trkpt>
<trkpt lat="42.269932" lon="3.218800"><ele>390.6</ele><time>2011-01-02T11:10:49Z</time></trkpt>
<trkpt lat="42.269943" lon="3.218920"><ele>391.3</ele><time>2011-01-02T11:10:54Z</time></trkpt>
<trkpt lat="42.269962" lon="3.219038"><ele>392.2</ele><time>2011-01-02T11:10:59Z</time></trkpt>
<trkpt lat="42.269993" lon="3.219163"><ele>392.8</ele><time>2011-01-02T11:11:04Z</time></trkpt>
<trkpt lat="42.270042" lon="3.219258"><ele>393.8</ele><time>2011-01-02T11:11:09Z</time></trkpt>
<trkpt lat="42.270118" lon="3.219315"><ele>395</ele><time>2011-01-02T11:11:14Z</time></trkpt>
<trkpt lat="42.270195" lon="3.219362"><ele>396.2</ele><time>2011-01-02T11:11:19Z</time></trkpt>
<trkpt lat="42.270272" lon="3.219397"><ele>397.4</ele><time>2011-01-02T11:11:24Z</time></trkpt>
<trkpt lat="42.270355" lon="3.219405"><ele>398.6</ele><time>2011-01-02T11:11:29Z</time></trkpt>
<trkpt lat="42.270438" lon="3.219407"><ele>399.7</ele><time>2011-01-02T11:11:34Z</time></trkpt>
<trkpt lat="42.270523" lon="3.219385"><ele>400.8</ele><time>2011-01-02T11:11:39Z</time></trkpt>
<trkpt lat="42.270610" lon="3.219357"><ele>401.9</ele><time>2011-01-02T11:11:44Z</time></trkpt>
<trkpt lat="42.270692" lon="3.219323"><ele>402.8</ele><time>2011-01-02T11:11:49Z</time></trkpt>
<trkpt lat="42.270775" lon="3.219280"><ele>403.8</ele><time>2011-01-02T11:11:54Z</time></trkpt>
<trkpt lat="42.270858" lon="3.219233"><ele>404.6</ele><time>2011-01-02T11:11:59Z</time></trkpt>
<trkpt lat="42.270938" lon="3.219175"><ele>405.3</ele><time>2011-01-02T11:12:04Z</time></trkpt>
<trkpt lat="42.271015" lon="3.219112"><ele>405.9</ele><time>2011-01-02T11:12:09Z</time></trkpt>
<trkpt lat="42.271088" lon="3.219047"><ele>406.6</ele><time>2011-01-02T11:12:14Z</time></trkpt>
<trkpt lat="42.271157" lon="3.218977"><ele>407.4</ele><time>2011-01-02T11:12:19Z</time></trkpt>
<trkpt lat="42.271228" lon="3.218910"><ele>408.1</ele><time>2011-01-02T11:12:24Z</time></trkpt>
<trkpt lat="42.271302" lon="3.218842"><ele>408.9</ele><time>2011-01-02T11:12:29Z</time></trkpt>
<trkpt lat="42.271373" lon="3.218770"><ele>409.9</ele><time>2011-01-02T11:12:34Z</time></trkpt>
<trkpt lat="42.271447" lon="3.218697"><ele>411</ele><time>2011-01-02T11:12:39Z</time></trkpt>
<trkpt lat="42.271518" lon="3.218630"><ele>412</ele><time>2011-01-02T11:12:44Z</time></trkpt>
<trkpt lat="42.271595" lon="3.218563"><ele>412.9</ele><time>2011-01-02T11:12:49Z</time></trkpt>
<trkpt lat="42.271663" lon="3.218492"><ele>413.9</ele><time>2011-01-02T11:12:54Z</time></trkpt>
<trkpt lat="42.271737" lon="3.218422"><ele>414.6</ele><time>2011-01-02T11:12:59Z</time></trkpt>
<trkpt lat="42.271820" lon="3.218337"><ele>415.1</ele><time>2011-01-02T11:13:04Z</time></trkpt>
<trkpt lat="42.271893" lon="3.218262"><ele>415.8</ele><time>2011-01-02T11:13:09Z</time></trkpt>
<trkpt lat="42.271973" lon="3.218193"><ele>416.3</ele><time>2011-01-02T11:13:14Z</time></trkpt>
<trkpt lat="42.272048" lon="3.218117"><ele>416.9</ele><time>2011-01-02T11:13:19Z</time></trkpt>
<trkpt lat="42.272125" lon="3.218033"><ele>417.4</ele><time>2011-01-02T11:13:24Z</time></trkpt>
<trkpt lat="42.272205" lon="3.217967"><ele>418.1</ele><time>2011-01-02T11:13:29Z</time></trkpt>
<trkpt lat="42.272290" lon="3.217918"><ele>418.6</ele><time>2011-01-02T11:13:34Z</time></trkpt>
<trkpt lat="42.272377" lon="3.217878"><ele>419.1</ele><time>2011-01-02T11:13:39Z</time></trkpt>
<trkpt lat="42.272462" lon="3.217883"><ele>420</ele><time>2011-01-02T11:13:44Z</time></trkpt>
<trkpt lat="42.272548" lon="3.217928"><ele>420.3</ele><time>2011-01-02T11:13:49Z</time></trkpt>
<trkpt lat="42.272648" lon="3.217997"><ele>420.2</ele><time>2011-01-02T11:13:54Z</time></trkpt>
<trkpt lat="42.272743" lon="3.218062"><ele>420.1</ele><time>2011-01-02T11:13:59Z</time></trkpt>
<trkpt lat="42.272838" lon="3.218132"><ele>420.1</ele><time>2011-01-02T11:14:04Z</time></trkpt>
<trkpt lat="42.272938" lon="3.218202"><ele>420.1</ele><time>2011-01-02T11:14:09Z</time></trkpt>
<trkpt lat="42.273013" lon="3.218273"><ele>420.5</ele><time>2011-01-02T11:14:14Z</time></trkpt>
<trkpt lat="42.273087" lon="3.218358"><ele>421.2</ele><time>2011-01-02T11:14:19Z</time></trkpt>
<trkpt lat="42.273152" lon="3.218455"><ele>421.8</ele><time>2011-01-02T11:14:24Z</time></trkpt>
<trkpt lat="42.273212" lon="3.218563"><ele>422.4</ele><time>2011-01-02T11:14:29Z</time></trkpt>
<trkpt lat="42.273267" lon="3.218677"><ele>423.1</ele><time>2011-01-02T11:14:34Z</time></trkpt>
<trkpt lat="42.273315" lon="3.218795"><ele>423.9</ele><time>2011-01-02T11:14:39Z</time></trkpt>
<trkpt lat="42.273353" lon="3.218920"><ele>425</ele><time>2011-01-02T11:14:44Z</time></trkpt>
<trkpt lat="42.273383" lon="3.219038"><ele>425.4</ele><time>2011-01-02T11:14:49Z</time></trkpt>
<trkpt lat="42.273415" lon="3.219160"><ele>426.1</ele><time>2011-01-02T11:14:54Z</time></trkpt>
<trkpt lat="42.273433" lon="3.219285"><ele>426.7</ele><time>2011-01-02T11:14:59Z</time></trkpt>
<trkpt lat="42.273457" lon="3.219412"><ele>427.5</ele><time>2011-01-02T11:15:04Z</time></trkpt>
<trkpt lat="42.273465" lon="3.219537"><ele>428.3</ele><time>2011-01-02T11:15:09Z</time></trkpt>
<trkpt lat="42.273468" lon="3.219662"><ele>429</ele><time>2011-01-02T11:15:14Z</time></trkpt>
<trkpt lat="42.273457" lon="3.219790"><ele>429.7</ele><time>2011-01-02T11:15:19Z</time></trkpt>
<trkpt lat="42.273442" lon="3.219922"><ele>430.5</ele><time>2011-01-02T11:15:24Z</time></trkpt>
<trkpt lat="42.273427" lon="3.220050"><ele>431.4</ele><time>2011-01-02T11:15:29Z</time></trkpt>
<trkpt lat="42.273395" lon="3.220173"><ele>431.9</ele><time>2011-01-02T11:15:34Z</time></trkpt>
<trkpt lat="42.273362" lon="3.220298"><ele>432.8</ele><time>2011-01-02T11:15:39Z</time></trkpt>
<trkpt lat="42.273303" lon="3.220408"><ele>433.7</ele><time>2011-01-02T11:15:44Z</time></trkpt>
<trkpt lat="42.273250" lon="3.220518"><ele>434.6</ele><time>2011-01-02T11:15:49Z</time></trkpt>
<trkpt lat="42.273197" lon="3.220627"><ele>435.5</ele><time>2011-01-02T11:15:54Z</time></trkpt>
<trkpt lat="42.273137" lon="3.220735"><ele>436.5</ele><time>2011-01-02T11:15:59Z</time></trkpt>
<trkpt lat="42.273067" lon="3.220837"><ele>437.3</ele><time>2011-01-02T11:16:04Z</time></trkpt>
<trkpt lat="42.273003" lon="3.220942"><ele>438.1</ele><time>2011-01-02T11:16:09Z</time></trkpt>
<trkpt lat="42.272938" lon="3.221052"><ele>438.6</ele><time>2011-01-02T11:16:14Z</time></trkpt>
<trkpt lat="42.272873" lon="3.221168"><ele>439</ele><time>2011-01-02T11:16:19Z</time></trkpt>
<trkpt lat="42.272800" lon="3.221285"><ele>439.3</ele><time>2011-01-02T11:16:24Z</time></trkpt>
<trkpt lat="42.272740" lon="3.221408"><ele>439.6</ele><time>2011-01-02T11:16:29Z</time></trkpt>
<trkpt lat="42.272670" lon="3.221535"><ele>440.1</ele><time>2011-01-02T11:16:34Z</time></trkpt>
<trkpt lat="42.272587" lon="3.221682"><ele>440.2</ele><time>2011-01-02T11:16:39Z</time></trkpt>
<trkpt lat="42.272507" lon="3.221803"><ele>440.8</ele><time>2011-01-02T11:16:44Z</time></trkpt>
<trkpt lat="42.272412" lon="3.221913"><ele>441.4</ele><time>2011-01-02T11:16:49Z</time></trkpt>
<trkpt lat="42.272320" lon="3.222015"><ele>442.2</ele><time>2011-01-02T11:16:54Z</time></trkpt>
<trkpt lat="42.272228" lon="3.222115"><ele>443</ele><time>2011-01-02T11:16:59Z</time></trkpt>
<trkpt lat="42.272140" lon="3.222217"><ele>443.9</ele><time>2011-01-02T11:17:04Z</time></trkpt>
<trkpt lat="42.272057" lon="3.222327"><ele>444.7</ele><time>2011-01-02T11:17:09Z</time></trkpt>
<trkpt lat="42.271973" lon="3.222467"><ele>444.9</ele><time>2011-01-02T11:17:14Z</time></trkpt>
<trkpt lat="42.271912" lon="3.222622"><ele>445.1</ele><time>2011-01-02T11:17:19Z</time></trkpt>
<trkpt lat="42.271873" lon="3.222777"><ele>445.2</ele><time>2011-01-02T11:17:24Z</time></trkpt>
<trkpt lat="42.271858" lon="3.222937"><ele>445.4</ele><time>2011-01-02T11:17:29Z</time></trkpt>
<trkpt lat="42.271828" lon="3.223075"><ele>445.9</ele><time>2011-01-02T11:17:34Z</time></trkpt>
<trkpt lat="42.271785" lon="3.223162"><ele>446.7</ele><time>2011-01-02T11:17:39Z</time></trkpt>
<trkpt lat="42.271775" lon="3.223238"><ele>447.5</ele><time>2011-01-02T11:17:44Z</time></trkpt>
<trkpt lat="42.271793" lon="3.223282"><ele>447.8</ele><time>2011-01-02T11:17:49Z</time></trkpt>
<trkpt lat="42.271793" lon="3.223295"><ele>447.9</ele><time>2011-01-02T11:17:54Z</time></trkpt>
<trkpt lat="42.271763" lon="3.223352"><ele>448.6</ele><time>2011-01-02T11:17:59Z</time></trkpt>
<trkpt lat="42.271722" lon="3.223428"><ele>449.8</ele><time>2011-01-02T11:18:04Z</time></trkpt>
<trkpt lat="42.271660" lon="3.223475"><ele>450.7</ele><time>2011-01-02T11:18:09Z</time></trkpt>
<trkpt lat="42.271598" lon="3.223480"><ele>451</ele><time>2011-01-02T11:18:14Z</time></trkpt>
<trkpt lat="42.271557" lon="3.223393"><ele>451.1</ele><time>2011-01-02T11:18:19Z</time></trkpt>
<trkpt lat="42.271542" lon="3.223285"><ele>451.9</ele><time>2011-01-02T11:18:24Z</time></trkpt>
<trkpt lat="42.271533" lon="3.223177"><ele>452.8</ele><time>2011-01-02T11:18:29Z</time></trkpt>
<trkpt lat="42.271533" lon="3.223063"><ele>453.7</ele><time>2011-01-02T11:18:34Z</time></trkpt>
<trkpt lat="42.271542" lon="3.222950"><ele>454.5</ele><time>2011-01-02T11:18:39Z</time></trkpt>
<trkpt lat="42.271545" lon="3.222843"><ele>455.4</ele><time>2011-01-02T11:18:44Z</time></trkpt>
<trkpt lat="42.271542" lon="3.222747"><ele>456.2</ele><time>2011-01-02T11:18:49Z</time></trkpt>
<trkpt lat="42.271553" lon="3.222655"><ele>456.9</ele><time>2011-01-02T11:18:54Z</time></trkpt>
<trkpt lat="42.271568" lon="3.222565"><ele>457.7</ele><time>2011-01-02T11:18:59Z</time></trkpt>
<trkpt lat="42.271592" lon="3.222468"><ele>458.6</ele><time>2011-01-02T11:19:04Z</time></trkpt>
<trkpt lat="42.271607" lon="3.222380"><ele>459.6</ele><time>2011-01-02T11:19:09Z</time></trkpt>
<trkpt lat="42.271625" lon="3.222282"><ele>460.6</ele><time>2011-01-02T11:19:14Z</time></trkpt>
<trkpt lat="42.271633" lon="3.222187"><ele>461.8</ele><time>2011-01-02T11:19:19Z</time></trkpt>
<trkpt lat="42.271618" lon="3.222090"><ele>463</ele><time>2011-01-02T11:19:24Z</time></trkpt>
<trkpt lat="42.271583" lon="3.222003"><ele>464.4</ele><time>2011-01-02T11:19:29Z</time></trkpt>
<trkpt lat="42.271568" lon="3.221908"><ele>466</ele><time>2011-01-02T11:19:34Z</time></trkpt>
<trkpt lat="42.271553" lon="3.221817"><ele>467.5</ele><time>2011-01-02T11:19:39Z</time></trkpt>
<trkpt lat="42.271580" lon="3.221727"><ele>468.6</ele><time>2011-01-02T11:19:44Z</time></trkpt>
<trkpt lat="42.271630" lon="3.221645"><ele>469.5</ele><time>2011-01-02T11:19:49Z</time></trkpt>
<trkpt lat="42.271672" lon="3.221567"><ele>470.4</ele><time>2011-01-02T11:19:54Z</time></trkpt>
<trkpt lat="42.271702" lon="3.221465"><ele>471.2</ele><time>2011-01-02T11:19:59Z</time></trkpt>
<trkpt lat="42.271732" lon="3.221350"><ele>471.9</ele><time>2011-01-02T11:20:04Z</time></trkpt>
<trkpt lat="42.271770" lon="3.221237"><ele>472.3</ele><time>2011-01-02T11:20:09Z</time></trkpt>
<trkpt lat="42.271843" lon="3.221120"><ele>472.4</ele><time>2011-01-02T11:20:14Z</time></trkpt>
<trkpt lat="42.271935" lon="3.221008"><ele>472.7</ele><time>2011-01-02T11:20:19Z</time></trkpt>
<trkpt lat="42.272003" lon="3.220865"><ele>472.6</ele><time>2011-01-02T11:20:24Z</time></trkpt>
<trkpt lat="42.272092" lon="3.220687"><ele>471.4</ele><time>2011-01-02T11:20:29Z</time></trkpt>
<trkpt lat="42.272187" lon="3.220457"><ele>471</ele><time>2011-01-02T11:20:34Z</time></trkpt>
<trkpt lat="42.272278" lon="3.220323"><ele>470.9</ele><time>2011-01-02T11:20:39Z</time></trkpt>
<trkpt lat="42.272373" lon="3.220160"><ele>470.8</ele><time>2011-01-02T11:20:44Z</time></trkpt>
<trkpt lat="42.272438" lon="3.220032"><ele>471.1</ele><time>2011-01-02T11:20:49Z</time></trkpt>
<trkpt lat="42.272488" lon="3.219935"><ele>471</ele><time>2011-01-02T11:20:54Z</time></trkpt>
<trkpt lat="42.272545" lon="3.219847"><ele>470.5</ele><time>2011-01-02T11:20:59Z</time></trkpt>
<trkpt lat="42.272545" lon="3.219768"><ele>470.2</ele><time>2011-01-02T11:21:04Z</time></trkpt>
<trkpt lat="42.272545" lon="3.219770"><ele>470.1</ele><time>2011-01-02T11:21:09Z</time></trkpt>
<trkpt lat="42.272548" lon="3.219768"><ele>469.9</ele><time>2011-01-02T11:21:14Z</time></trkpt>
<trkpt lat="42.272542" lon="3.219763"><ele>469.8</ele><time>2011-01-02T11:21:19Z</time></trkpt>
<trkpt lat="42.272503" lon="3.219783"><ele>469.3</ele><time>2011-01-02T11:21:24Z</time></trkpt>
<trkpt lat="42.272480" lon="3.219882"><ele>469.7</ele><time>2011-01-02T11:21:29Z</time></trkpt>
<trkpt lat="42.272457" lon="3.219995"><ele>469.5</ele><time>2011-01-02T11:21:34Z</time></trkpt>
<trkpt lat="42.272408" lon="3.220087"><ele>469.2</ele><time>2011-01-02T11:21:39Z</time></trkpt>
<trkpt lat="42.272353" lon="3.220200"><ele>468.7</ele><time>2011-01-02T11:21:44Z</time></trkpt>
<trkpt lat="42.272308" lon="3.220288"><ele>468.5</ele><time>2011-01-02T11:21:49Z</time></trkpt>
<trkpt lat="42.272255" lon="3.220375"><ele>468.4</ele><time>2011-01-02T11:21:54Z</time></trkpt>
<trkpt lat="42.272232" lon="3.220427"><ele>468.2</ele><time>2011-01-02T11:21:59Z</time></trkpt>
<trkpt lat="42.272237" lon="3.220428"><ele>467.8</ele><time>2011-01-02T11:22:04Z</time></trkpt>
<trkpt lat="42.272237" lon="3.220433"><ele>467.2</ele><time>2011-01-02T11:22:09Z</time></trkpt>
<trkpt lat="42.272237" lon="3.220438"><ele>466.5</ele><time>2011-01-02T11:22:14Z</time></trkpt>
<trkpt lat="42.272240" lon="3.220443"><ele>465.9</ele><time>2011-01-02T11:22:19Z</time></trkpt>
<trkpt lat="42.272240" lon="3.220447"><ele>465.6</ele><time>2011-01-02T11:22:24Z</time></trkpt>
<trkpt lat="42.272243" lon="3.220450"><ele>465.2</ele><time>2011-01-02T11:22:29Z</time></trkpt>
<trkpt lat="42.272243" lon="3.220452"><ele>464.9</ele><time>2011-01-02T11:22:34Z</time></trkpt>
<trkpt lat="42.272247" lon="3.220457"><ele>464.3</ele><time>2011-01-02T11:22:39Z</time></trkpt>
<trkpt lat="42.272240" lon="3.220447"><ele>465.6</ele><time>2011-01-02T11:22:44Z</time></trkpt>
<trkpt lat="42.272240" lon="3.220443"><ele>466</ele><time>2011-01-02T11:22:49Z</time></trkpt>
<trkpt lat="42.272240" lon="3.220450"><ele>465.2</ele><time>2011-01-02T11:22:54Z</time></trkpt>
<trkpt lat="42.272243" lon="3.220455"><ele>464.6</ele><time>2011-01-02T11:22:59Z</time></trkpt>
<trkpt lat="42.272243" lon="3.220457"><ele>464.3</ele><time>2011-01-02T11:23:04Z</time></trkpt>
<trkpt lat="42.272247" lon="3.220457"><ele>464.2</ele><time>2011-01-02T11:23:09Z</time></trkpt>
<trkpt lat="42.272247" lon="3.220458"><ele>463.9</ele><time>2011-01-02T11:23:14Z</time></trkpt>
<trkpt lat="42.272247" lon="3.220463"><ele>463.5</ele><time>2011-01-02T11:23:19Z</time></trkpt>
<trkpt lat="42.272252" lon="3.220468"><ele>463</ele><time>2011-01-02T11:23:24Z</time></trkpt>
<trkpt lat="42.272252" lon="3.220473"><ele>462.5</ele><time>2011-01-02T11:23:29Z</time></trkpt>
<trkpt lat="42.272252" lon="3.220477"><ele>462</ele><time>2011-01-02T11:23:34Z</time></trkpt>
<trkpt lat="42.272252" lon="3.220480"><ele>461.7</ele><time>2011-01-02T11:23:39Z</time></trkpt>
<trkpt lat="42.272252" lon="3.220483"><ele>461.4</ele><time>2011-01-02T11:23:44Z</time></trkpt>
<trkpt lat="42.272252" lon="3.220483"><ele>461.3</ele><time>2011-01-02T11:23:49Z</time></trkpt>
<trkpt lat="42.272252" lon="3.220483"><ele>461.3</ele><time>2011-01-02T11:23:54Z</time></trkpt>
<trkpt lat="42.272252" lon="3.220483"><ele>461.3</ele><time>2011-01-02T11:23:59Z</time></trkpt>
<trkpt lat="42.272252" lon="3.220485"><ele>461.1</ele><time>2011-01-02T11:24:04Z</time></trkpt>
<trkpt lat="42.272255" lon="3.220485"><ele>461</ele><time>2011-01-02T11:24:09Z</time></trkpt>
<trkpt lat="42.272252" lon="3.220483"><ele>461.2</ele><time>2011-01-02T11:24:14Z</time></trkpt>
<trkpt lat="42.272252" lon="3.220477"><ele>461.7</ele><time>2011-01-02T11:24:19Z</time></trkpt>
<trkpt lat="42.272252" lon="3.220480"><ele>461.5</ele><time>2011-01-02T11:24:24Z</time></trkpt>
<trkpt lat="42.272252" lon="3.220480"><ele>461.3</ele><time>2011-01-02T11:24:29Z</time></trkpt>
<trkpt lat="42.272252" lon="3.220482"><ele>461.3</ele><time>2011-01-02T11:24:34Z</time></trkpt>
<trkpt lat="42.272252" lon="3.220483"><ele>461.1</ele><time>2011-01-02T11:24:39Z</time></trkpt>
<trkpt lat="42.272252" lon="3.220485"><ele>460.9</ele><time>2011-01-02T11:24:44Z</time></trkpt>
<trkpt lat="42.272255" lon="3.220485"><ele>460.7</ele><time>2011-01-02T11:24:49Z</time></trkpt>
<trkpt lat="42.272255" lon="3.220487"><ele>460.6</ele><time>2011-01-02T11:24:54Z</time></trkpt>
<trkpt lat="42.272255" lon="3.220488"><ele>460.3</ele><time>2011-01-02T11:24:59Z</time></trkpt>
<trkpt lat="42.272252" lon="3.220482"><ele>461.2</ele><time>2011-01-02T11:25:04Z</time></trkpt>
<trkpt lat="42.272252" lon="3.220473"><ele>462.1</ele><time>2011-01-02T11:25:09Z</time></trkpt>
<trkpt lat="42.272247" lon="3.220468"><ele>462.6</ele><time>2011-01-02T11:25:14Z</time></trkpt>
<trkpt lat="42.272247" lon="3.220472"><ele>462.3</ele><time>2011-01-02T11:25:19Z</time></trkpt>
<trkpt lat="42.272247" lon="3.220468"><ele>462.8</ele><time>2011-01-02T11:25:24Z</time></trkpt>
<trkpt lat="42.272243" lon="3.220465"><ele>463</ele><time>2011-01-02T11:25:29Z</time></trkpt>
<trkpt lat="42.272243" lon="3.220462"><ele>463.4</ele><time>2011-01-02T11:25:34Z</time></trkpt>
<trkpt lat="42.272243" lon="3.220462"><ele>463.3</ele><time>2011-01-02T11:25:39Z</time></trkpt>
<trkpt lat="42.272237" lon="3.220447"><ele>465.2</ele><time>2011-01-02T11:25:44Z</time></trkpt>
<trkpt lat="42.272237" lon="3.220447"><ele>465.2</ele><time>2011-01-02T11:25:49Z</time></trkpt>
<trkpt lat="42.272237" lon="3.220450"><ele>464.9</ele><time>2011-01-02T11:25:54Z</time></trkpt>
<trkpt lat="42.272240" lon="3.220453"><ele>464.5</ele><time>2011-01-02T11:25:59Z</time></trkpt>
<trkpt lat="42.272237" lon="3.220450"><ele>465</ele><time>2011-01-02T11:26:04Z</time></trkpt>
<trkpt lat="42.272240" lon="3.220453"><ele>464.7</ele><time>2011-01-02T11:26:09Z</time></trkpt>
<trkpt lat="42.272240" lon="3.220457"><ele>464.1</ele><time>2011-01-02T11:26:14Z</time></trkpt>
<trkpt lat="42.272243" lon="3.220462"><ele>463.5</ele><time>2011-01-02T11:26:19Z</time></trkpt>
<trkpt lat="42.272247" lon="3.220463"><ele>463.3</ele><time>2011-01-02T11:26:24Z</time></trkpt>
<trkpt lat="42.272247" lon="3.220465"><ele>463</ele><time>2011-01-02T11:26:29Z</time></trkpt>
<trkpt lat="42.272252" lon="3.220465"><ele>462.6</ele><time>2011-01-02T11:26:34Z</time></trkpt>
<trkpt lat="42.272243" lon="3.220452"><ele>464.4</ele><time>2011-01-02T11:26:39Z</time></trkpt>
<trkpt lat="42.272243" lon="3.220450"><ele>464.6</ele><time>2011-01-02T11:26:44Z</time></trkpt>
<trkpt lat="42.272243" lon="3.220450"><ele>464.6</ele><time>2011-01-02T11:26:49Z</time></trkpt>
<trkpt lat="42.272243" lon="3.220450"><ele>464.5</ele><time>2011-01-02T11:26:54Z</time></trkpt>
<trkpt lat="42.272243" lon="3.220452"><ele>464.3</ele><time>2011-01-02T11:26:59Z</time></trkpt>
<trkpt lat="42.272243" lon="3.220450"><ele>464.3</ele><time>2011-01-02T11:27:04Z</time></trkpt>
<trkpt lat="42.272243" lon="3.220452"><ele>464.3</ele><time>2011-01-02T11:27:09Z</time></trkpt>
<trkpt lat="42.272240" lon="3.220452"><ele>464.2</ele><time>2011-01-02T11:27:14Z</time></trkpt>
<trkpt lat="42.272240" lon="3.220452"><ele>464.1</ele><time>2011-01-02T11:27:19Z</time></trkpt>
<trkpt lat="42.272240" lon="3.220452"><ele>464.2</ele><time>2011-01-02T11:27:24Z</time></trkpt>
<trkpt lat="42.272240" lon="3.220452"><ele>464.3</ele><time>2011-01-02T11:27:29Z</time></trkpt>
<trkpt lat="42.272240" lon="3.220452"><ele>464.3</ele><time>2011-01-02T11:27:34Z</time></trkpt>
<trkpt lat="42.272243" lon="3.220452"><ele>464.3</ele><time>2011-01-02T11:27:39Z</time></trkpt>
<trkpt lat="42.272237" lon="3.220447"><ele>466.5</ele><time>2011-01-02T11:27:44Z</time></trkpt>
<trkpt lat="42.272228" lon="3.220440"><ele>467.9</ele><time>2011-01-02T11:27:49Z</time></trkpt>
<trkpt lat="42.272228" lon="3.220437"><ele>468.6</ele><time>2011-01-02T11:27:54Z</time></trkpt>
<trkpt lat="42.272228" lon="3.220433"><ele>469</ele><time>2011-01-02T11:27:59Z</time></trkpt>
<trkpt lat="42.272225" lon="3.220433"><ele>469.2</ele><time>2011-01-02T11:28:04Z</time></trkpt>
<trkpt lat="42.272225" lon="3.220428"><ele>469.3</ele><time>2011-01-02T11:28:09Z</time></trkpt>
<trkpt lat="42.272225" lon="3.220427"><ele>469.4</ele><time>2011-01-02T11:28:14Z</time></trkpt>
<trkpt lat="42.272225" lon="3.220425"><ele>469.5</ele><time>2011-01-02T11:28:19Z</time></trkpt>
<trkpt lat="42.272220" lon="3.220425"><ele>469.5</ele><time>2011-01-02T11:28:24Z</time></trkpt>
<trkpt lat="42.272220" lon="3.220425"><ele>469.6</ele><time>2011-01-02T11:28:29Z</time></trkpt>
<trkpt lat="42.272220" lon="3.220418"><ele>469.4</ele><time>2011-01-02T11:28:34Z</time></trkpt>
<trkpt lat="42.272225" lon="3.220417"><ele>469</ele><time>2011-01-02T11:28:39Z</time></trkpt>
<trkpt lat="42.272225" lon="3.220420"><ele>468.7</ele><time>2011-01-02T11:28:44Z</time></trkpt>
<trkpt lat="42.272228" lon="3.220425"><ele>468.1</ele><time>2011-01-02T11:28:49Z</time></trkpt>
<trkpt lat="42.272228" lon="3.220428"><ele>467.5</ele><time>2011-01-02T11:28:54Z</time></trkpt>
<trkpt lat="42.272232" lon="3.220433"><ele>466.8</ele><time>2011-01-02T11:28:59Z</time></trkpt>
<trkpt lat="42.272237" lon="3.220438"><ele>466.1</ele><time>2011-01-02T11:29:04Z</time></trkpt>
<trkpt lat="42.272240" lon="3.220443"><ele>465.4</ele><time>2011-01-02T11:29:09Z</time></trkpt>
<trkpt lat="42.272240" lon="3.220447"><ele>464.9</ele><time>2011-01-02T11:29:14Z</time></trkpt>
<trkpt lat="42.272243" lon="3.220448"><ele>464.6</ele><time>2011-01-02T11:29:19Z</time></trkpt>
<trkpt lat="42.272243" lon="3.220450"><ele>464.2</ele><time>2011-01-02T11:29:24Z</time></trkpt>
<trkpt lat="42.272243" lon="3.220453"><ele>463.8</ele><time>2011-01-02T11:29:29Z</time></trkpt>
<trkpt lat="42.272243" lon="3.220452"><ele>463.8</ele><time>2011-01-02T11:29:34Z</time></trkpt>
<trkpt lat="42.272243" lon="3.220452"><ele>463.6</ele><time>2011-01-02T11:29:39Z</time></trkpt>
<trkpt lat="42.272243" lon="3.220453"><ele>463.4</ele><time>2011-01-02T11:29:44Z</time></trkpt>
<trkpt lat="42.272247" lon="3.220453"><ele>463.2</ele><time>2011-01-02T11:29:49Z</time></trkpt>
<trkpt lat="42.272247" lon="3.220455"><ele>463</ele><time>2011-01-02T11:29:54Z</time></trkpt>
<trkpt lat="42.272247" lon="3.220458"><ele>462.6</ele><time>2011-01-02T11:29:59Z</time></trkpt>
<trkpt lat="42.272252" lon="3.220460"><ele>462.3</ele><time>2011-01-02T11:30:04Z</time></trkpt>
<trkpt lat="42.272240" lon="3.220450"><ele>465.4</ele><time>2011-01-02T11:30:09Z</time></trkpt>
<trkpt lat="42.272237" lon="3.220442"><ele>466.9</ele><time>2011-01-02T11:30:14Z</time></trkpt>
<trkpt lat="42.272232" lon="3.220437"><ele>467.6</ele><time>2011-01-02T11:30:19Z</time></trkpt>
<trkpt lat="42.272232" lon="3.220432"><ele>467.9</ele><time>2011-01-02T11:30:24Z</time></trkpt>
<trkpt lat="42.272228" lon="3.220425"><ele>468.1</ele><time>2011-01-02T11:30:29Z</time></trkpt>
<trkpt lat="42.272228" lon="3.220420"><ele>467.9</ele><time>2011-01-02T11:30:34Z</time></trkpt>
<trkpt lat="42.272225" lon="3.220418"><ele>468</ele><time>2011-01-02T11:30:39Z</time></trkpt>
<trkpt lat="42.272220" lon="3.220433"><ele>468.2</ele><time>2011-01-02T11:30:44Z</time></trkpt>
<trkpt lat="42.272220" lon="3.220435"><ele>468.3</ele><time>2011-01-02T11:30:49Z</time></trkpt>
<trkpt lat="42.272220" lon="3.220435"><ele>468.4</ele><time>2011-01-02T11:30:54Z</time></trkpt>
<trkpt lat="42.272220" lon="3.220430"><ele>468.6</ele><time>2011-01-02T11:30:59Z</time></trkpt>
<trkpt lat="42.272225" lon="3.220425"><ele>468.7</ele><time>2011-01-02T11:31:04Z</time></trkpt>
<trkpt lat="42.272220" lon="3.220420"><ele>468.5</ele><time>2011-01-02T11:31:09Z</time></trkpt>
<trkpt lat="42.272193" lon="3.220493"><ele>468.4</ele><time>2011-01-02T11:31:14Z</time></trkpt>
<trkpt lat="42.272128" lon="3.220623"><ele>467.9</ele><time>2011-01-02T11:31:19Z</time></trkpt>
<trkpt lat="42.272057" lon="3.220762"><ele>468.6</ele><time>2011-01-02T11:31:24Z</time></trkpt>
<trkpt lat="42.271988" lon="3.220920"><ele>469.3</ele><time>2011-01-02T11:31:29Z</time></trkpt>
<trkpt lat="42.271897" lon="3.221087"><ele>469.2</ele><time>2011-01-02T11:31:34Z</time></trkpt>
<trkpt lat="42.271797" lon="3.221252"><ele>469.1</ele><time>2011-01-02T11:31:39Z</time></trkpt>
<trkpt lat="42.271722" lon="3.221425"><ele>468.7</ele><time>2011-01-02T11:31:44Z</time></trkpt>
<trkpt lat="42.271640" lon="3.221643"><ele>466.9</ele><time>2011-01-02T11:31:49Z</time></trkpt>
<trkpt lat="42.271557" lon="3.221872"><ele>464.4</ele><time>2011-01-02T11:31:54Z</time></trkpt>
<trkpt lat="42.271603" lon="3.222163"><ele>459.9</ele><time>2011-01-02T11:31:59Z</time></trkpt>
<trkpt lat="42.271587" lon="3.222507"><ele>456.1</ele><time>2011-01-02T11:32:04Z</time></trkpt>
<trkpt lat="42.271527" lon="3.222870"><ele>453.5</ele><time>2011-01-02T11:32:09Z</time></trkpt>
<trkpt lat="42.271542" lon="3.223255"><ele>451.1</ele><time>2011-01-02T11:32:14Z</time></trkpt>
<trkpt lat="42.271645" lon="3.223482"><ele>450.4</ele><time>2011-01-02T11:32:19Z</time></trkpt>
<trkpt lat="42.271778" lon="3.223355"><ele>448.6</ele><time>2011-01-02T11:32:24Z</time></trkpt>
<trkpt lat="42.271873" lon="3.223255"><ele>446.1</ele><time>2011-01-02T11:32:29Z</time></trkpt>
<trkpt lat="42.271947" lon="3.223402"><ele>444.5</ele><time>2011-01-02T11:32:34Z</time></trkpt>
<trkpt lat="42.271992" lon="3.223745"><ele>442</ele><time>2011-01-02T11:32:39Z</time></trkpt>
<trkpt lat="42.271938" lon="3.224240"><ele>438.1</ele><time>2011-01-02T11:32:44Z</time></trkpt>
<trkpt lat="42.271870" lon="3.224818"><ele>433</ele><time>2011-01-02T11:32:49Z</time></trkpt>
<trkpt lat="42.272018" lon="3.225318"><ele>429.6</ele><time>2011-01-02T11:32:54Z</time></trkpt>
<trkpt lat="42.272392" lon="3.225653"><ele>426</ele><time>2011-01-02T11:32:59Z</time></trkpt>
<trkpt lat="42.272847" lon="3.225900"><ele>422.1</ele><time>2011-01-02T11:33:04Z</time></trkpt>
<trkpt lat="42.273297" lon="3.226178"><ele>418.9</ele><time>2011-01-02T11:33:09Z</time></trkpt>
<trkpt lat="42.273720" lon="3.226492"><ele>415.7</ele><time>2011-01-02T11:33:14Z</time></trkpt>
<trkpt lat="42.274152" lon="3.226808"><ele>412</ele><time>2011-01-02T11:33:19Z</time></trkpt>
<trkpt lat="42.274483" lon="3.227122"><ele>409.9</ele><time>2011-01-02T11:33:24Z</time></trkpt>
<trkpt lat="42.274555" lon="3.227455"><ele>409.6</ele><time>2011-01-02T11:33:29Z</time></trkpt>
<trkpt lat="42.274567" lon="3.227615"><ele>410.8</ele><time>2011-01-02T11:33:34Z</time></trkpt>
<trkpt lat="42.274578" lon="3.227693"><ele>411.2</ele><time>2011-01-02T11:33:39Z</time></trkpt>
<trkpt lat="42.274585" lon="3.227832"><ele>411.9</ele><time>2011-01-02T11:33:44Z</time></trkpt>
<trkpt lat="42.274567" lon="3.227990"><ele>413.3</ele><time>2011-01-02T11:33:49Z</time></trkpt>
<trkpt lat="42.274558" lon="3.228162"><ele>414.7</ele><time>2011-01-02T11:33:54Z</time></trkpt>
<trkpt lat="42.274540" lon="3.228333"><ele>415.8</ele><time>2011-01-02T11:33:59Z</time></trkpt>
<trkpt lat="42.274513" lon="3.228497"><ele>416.7</ele><time>2011-01-02T11:34:04Z</time></trkpt>
<trkpt lat="42.274490" lon="3.228667"><ele>417.8</ele><time>2011-01-02T11:34:09Z</time></trkpt>
<trkpt lat="42.274460" lon="3.228848"><ele>418.9</ele><time>2011-01-02T11:34:14Z</time></trkpt>
<trkpt lat="42.274410" lon="3.229052"><ele>419.4</ele><time>2011-01-02T11:34:19Z</time></trkpt>
<trkpt lat="42.274357" lon="3.229273"><ele>419</ele><time>2011-01-02T11:34:24Z</time></trkpt>
<trkpt lat="42.274250" lon="3.229498"><ele>417.5</ele><time>2011-01-02T11:34:29Z</time></trkpt>
<trkpt lat="42.274070" lon="3.229750"><ele>414.3</ele><time>2011-01-02T11:34:34Z</time></trkpt>
<trkpt lat="42.273888" lon="3.229892"><ele>411.7</ele><time>2011-01-02T11:34:39Z</time></trkpt>
<trkpt lat="42.273673" lon="3.229932"><ele>408.5</ele><time>2011-01-02T11:34:44Z</time></trkpt>
<trkpt lat="42.273472" lon="3.229978"><ele>404.3</ele><time>2011-01-02T11:34:49Z</time></trkpt>
<trkpt lat="42.273238" lon="3.230020"><ele>399.1</ele><time>2011-01-02T11:34:54Z</time></trkpt>
<trkpt lat="42.272927" lon="3.230035"><ele>392.4</ele><time>2011-01-02T11:34:59Z</time></trkpt>
<trkpt lat="42.272580" lon="3.230062"><ele>386.1</ele><time>2011-01-02T11:35:04Z</time></trkpt>
<trkpt lat="42.272290" lon="3.230072"><ele>381.2</ele><time>2011-01-02T11:35:09Z</time></trkpt>
<trkpt lat="42.272000" lon="3.229950"><ele>374.5</ele><time>2011-01-02T11:35:14Z</time></trkpt>
<trkpt lat="42.271675" lon="3.229603"><ele>370.1</ele><time>2011-01-02T11:35:19Z</time></trkpt>
<trkpt lat="42.271438" lon="3.229443"><ele>370.8</ele><time>2011-01-02T11:35:24Z</time></trkpt>
<trkpt lat="42.271267" lon="3.229380"><ele>372.7</ele><time>2011-01-02T11:35:29Z</time></trkpt>
<trkpt lat="42.271057" lon="3.229457"><ele>371.5</ele><time>2011-01-02T11:35:34Z</time></trkpt>
<trkpt lat="42.270752" lon="3.229590"><ele>368.7</ele><time>2011-01-02T11:35:39Z</time></trkpt>
<trkpt lat="42.270438" lon="3.229613"><ele>368.2</ele><time>2011-01-02T11:35:44Z</time></trkpt>
<trkpt lat="42.270207" lon="3.229633"><ele>368.7</ele><time>2011-01-02T11:35:49Z</time></trkpt>
<trkpt lat="42.269997" lon="3.229675"><ele>369.5</ele><time>2011-01-02T11:35:54Z</time></trkpt>
<trkpt lat="42.269763" lon="3.229740"><ele>366.8</ele><time>2011-01-02T11:35:59Z</time></trkpt>
<trkpt lat="42.269512" lon="3.229890"><ele>362.2</ele><time>2011-01-02T11:36:04Z</time></trkpt>
<trkpt lat="42.269103" lon="3.230067"><ele>354.9</ele><time>2011-01-02T11:36:09Z</time></trkpt>
<trkpt lat="42.268608" lon="3.230247"><ele>348.5</ele><time>2011-01-02T11:36:14Z</time></trkpt>
<trkpt lat="42.268112" lon="3.230522"><ele>343.1</ele><time>2011-01-02T11:36:19Z</time></trkpt>
<trkpt lat="42.267617" lon="3.230725"><ele>337.1</ele><time>2011-01-02T11:36:24Z</time></trkpt>
<trkpt lat="42.267087" lon="3.230772"><ele>332.1</ele><time>2011-01-02T11:36:29Z</time></trkpt>
<trkpt lat="42.266620" lon="3.230925"><ele>327.9</ele><time>2011-01-02T11:36:34Z</time></trkpt>
<trkpt lat="42.266190" lon="3.231075"><ele>322.6</ele><time>2011-01-02T11:36:39Z</time></trkpt>
<trkpt lat="42.265827" lon="3.231065"><ele>315.6</ele><time>2011-01-02T11:36:44Z</time></trkpt>
<trkpt lat="42.265488" lon="3.230667"><ele>310.7</ele><time>2011-01-02T11:36:49Z</time></trkpt>
<trkpt lat="42.265107" lon="3.230358"><ele>307.7</ele><time>2011-01-02T11:36:54Z</time></trkpt>
<trkpt lat="42.264710" lon="3.230167"><ele>304.3</ele><time>2011-01-02T11:36:59Z</time></trkpt>
<trkpt lat="42.264340" lon="3.229995"><ele>303.4</ele><time>2011-01-02T11:37:04Z</time></trkpt>
<trkpt lat="42.264103" lon="3.229857"><ele>303.8</ele><time>2011-01-02T11:37:09Z</time></trkpt>
<trkpt lat="42.264035" lon="3.229810"><ele>303.6</ele><time>2011-01-02T11:37:14Z</time></trkpt>
<trkpt lat="42.264038" lon="3.229805"><ele>303.9</ele><time>2011-01-02T11:37:19Z</time></trkpt>
<trkpt lat="42.264038" lon="3.229807"><ele>304</ele><time>2011-01-02T11:37:24Z</time></trkpt>
<trkpt lat="42.263912" lon="3.229755"><ele>302.8</ele><time>2011-01-02T11:37:29Z</time></trkpt>
<trkpt lat="42.263553" lon="3.229698"><ele>298.3</ele><time>2011-01-02T11:37:34Z</time></trkpt>
<trkpt lat="42.263123" lon="3.229672"><ele>294.4</ele><time>2011-01-02T11:37:39Z</time></trkpt>
<trkpt lat="42.262668" lon="3.229620"><ele>288.2</ele><time>2011-01-02T11:37:44Z</time></trkpt>
<trkpt lat="42.262142" lon="3.229688"><ele>284.3</ele><time>2011-01-02T11:37:49Z</time></trkpt>
<trkpt lat="42.261742" lon="3.229830"><ele>283.7</ele><time>2011-01-02T11:37:54Z</time></trkpt>
<trkpt lat="42.261353" lon="3.230043"><ele>278.6</ele><time>2011-01-02T11:37:59Z</time></trkpt>
<trkpt lat="42.260955" lon="3.230313"><ele>277.1</ele><time>2011-01-02T11:38:04Z</time></trkpt>
<trkpt lat="42.260693" lon="3.230573"><ele>276.8</ele><time>2011-01-02T11:38:09Z</time></trkpt>
<trkpt lat="42.260398" lon="3.230775"><ele>274.5</ele><time>2011-01-02T11:38:14Z</time></trkpt>
<trkpt lat="42.260067" lon="3.231028"><ele>271.1</ele><time>2011-01-02T11:38:19Z</time></trkpt>
<trkpt lat="42.259655" lon="3.231282"><ele>264.5</ele><time>2011-01-02T11:38:24Z</time></trkpt>
<trkpt lat="42.259148" lon="3.231532"><ele>258.8</ele><time>2011-01-02T11:38:29Z</time></trkpt>
<trkpt lat="42.258705" lon="3.231547"><ele>256.4</ele><time>2011-01-02T11:38:34Z</time></trkpt>
<trkpt lat="42.258282" lon="3.231465"><ele>251.3</ele><time>2011-01-02T11:38:39Z</time></trkpt>
<trkpt lat="42.257908" lon="3.231413"><ele>248.2</ele><time>2011-01-02T11:38:44Z</time></trkpt>
<trkpt lat="42.257657" lon="3.231545"><ele>247.7</ele><time>2011-01-02T11:38:49Z</time></trkpt>
<trkpt lat="42.257503" lon="3.231828"><ele>245.2</ele><time>2011-01-02T11:38:54Z</time></trkpt>
<trkpt lat="42.257415" lon="3.232150"><ele>240.9</ele><time>2011-01-02T11:38:59Z</time></trkpt>
<trkpt lat="42.257317" lon="3.232528"><ele>234</ele><time>2011-01-02T11:39:04Z</time></trkpt>
<trkpt lat="42.257160" lon="3.232970"><ele>226.9</ele><time>2011-01-02T11:39:09Z</time></trkpt>
<trkpt lat="42.257210" lon="3.233480"><ele>219.2</ele><time>2011-01-02T11:39:14Z</time></trkpt>
<trkpt lat="42.257207" lon="3.234072"><ele>210.1</ele><time>2011-01-02T11:39:19Z</time></trkpt>
<trkpt lat="42.257130" lon="3.234680"><ele>205.6</ele><time>2011-01-02T11:39:24Z</time></trkpt>
<trkpt lat="42.257042" lon="3.235282"><ele>198.6</ele><time>2011-01-02T11:39:29Z</time></trkpt>
<trkpt lat="42.256955" lon="3.235968"><ele>192.2</ele><time>2011-01-02T11:39:34Z</time></trkpt>
<trkpt lat="42.256772" lon="3.236587"><ele>187.9</ele><time>2011-01-02T11:39:39Z</time></trkpt>
<trkpt lat="42.256660" lon="3.237280"><ele>179.5</ele><time>2011-01-02T11:39:44Z</time></trkpt>
<trkpt lat="42.256462" lon="3.237953"><ele>175.3</ele><time>2011-01-02T11:39:49Z</time></trkpt>
<trkpt lat="42.256257" lon="3.238387"><ele>175.9</ele><time>2011-01-02T11:39:54Z</time></trkpt>
<trkpt lat="42.256115" lon="3.238723"><ele>175.2</ele><time>2011-01-02T11:39:59Z</time></trkpt>
<trkpt lat="42.255962" lon="3.239037"><ele>174.3</ele><time>2011-01-02T11:40:04Z</time></trkpt>
<trkpt lat="42.255813" lon="3.239322"><ele>173.3</ele><time>2011-01-02T11:40:09Z</time></trkpt>
<trkpt lat="42.255650" lon="3.239615"><ele>171.5</ele><time>2011-01-02T11:40:14Z</time></trkpt>
<trkpt lat="42.255443" lon="3.239928"><ele>167.2</ele><time>2011-01-02T11:40:19Z</time></trkpt>
<trkpt lat="42.255322" lon="3.240400"><ele>162.6</ele><time>2011-01-02T11:40:24Z</time></trkpt>
<trkpt lat="42.255352" lon="3.240912"><ele>161.7</ele><time>2011-01-02T11:40:29Z</time></trkpt>
<trkpt lat="42.255337" lon="3.241293"><ele>162</ele><time>2011-01-02T11:40:34Z</time></trkpt>
<trkpt lat="42.255398" lon="3.241618"><ele>161.5</ele><time>2011-01-02T11:40:39Z</time></trkpt>
<trkpt lat="42.255527" lon="3.242043"><ele>158.1</ele><time>2011-01-02T11:40:44Z</time></trkpt>
<trkpt lat="42.255730" lon="3.242497"><ele>155</ele><time>2011-01-02T11:40:49Z</time></trkpt>
<trkpt lat="42.255810" lon="3.242987"><ele>149.4</ele><time>2011-01-02T11:40:54Z</time></trkpt>
<trkpt lat="42.255680" lon="3.243452"><ele>143</ele><time>2011-01-02T11:40:59Z</time></trkpt>
<trkpt lat="42.255642" lon="3.244002"><ele>134.9</ele><time>2011-01-02T11:41:04Z</time></trkpt>
<trkpt lat="42.255565" lon="3.244455"><ele>130.5</ele><time>2011-01-02T11:41:09Z</time></trkpt>
<trkpt lat="42.255215" lon="3.244770"><ele>126.3</ele><time>2011-01-02T11:41:14Z</time></trkpt>
<trkpt lat="42.254895" lon="3.245122"><ele>123.7</ele><time>2011-01-02T11:41:19Z</time></trkpt>
<trkpt lat="42.254665" lon="3.245557"><ele>121.4</ele><time>2011-01-02T11:41:24Z</time></trkpt>
<trkpt lat="42.254505" lon="3.245997"><ele>119.6</ele><time>2011-01-02T11:41:29Z</time></trkpt>
<trkpt lat="42.254372" lon="3.246398"><ele>119</ele><time>2011-01-02T11:41:34Z</time></trkpt>
<trkpt lat="42.254295" lon="3.246767"><ele>117.4</ele><time>2011-01-02T11:41:39Z</time></trkpt>
<trkpt lat="42.254288" lon="3.247225"><ele>115</ele><time>2011-01-02T11:41:44Z</time></trkpt>
<trkpt lat="42.254128" lon="3.247703"><ele>113.2</ele><time>2011-01-02T11:41:49Z</time></trkpt>
<trkpt lat="42.253990" lon="3.248153"><ele>111.8</ele><time>2011-01-02T11:41:54Z</time></trkpt>
<trkpt lat="42.254005" lon="3.248650"><ele>107</ele><time>2011-01-02T11:41:59Z</time></trkpt>
<trkpt lat="42.253940" lon="3.248975"><ele>103.7</ele><time>2011-01-02T11:42:04Z</time></trkpt>
<trkpt lat="42.253830" lon="3.248938"><ele>102.4</ele><time>2011-01-02T11:42:09Z</time></trkpt>
<trkpt lat="42.253757" lon="3.248845"><ele>100.9</ele><time>2011-01-02T11:42:14Z</time></trkpt>
<trkpt lat="42.253750" lon="3.248957"><ele>101.2</ele><time>2011-01-02T11:42:19Z</time></trkpt>
<trkpt lat="42.253875" lon="3.249128"><ele>102</ele><time>2011-01-02T11:42:24Z</time></trkpt>
<trkpt lat="42.254028" lon="3.249360"><ele>101.3</ele><time>2011-01-02T11:42:29Z</time></trkpt>
<trkpt lat="42.254223" lon="3.249537"><ele>99.5</ele><time>2011-01-02T11:42:34Z</time></trkpt>
<trkpt lat="42.254470" lon="3.249558"><ele>98.4</ele><time>2011-01-02T11:42:39Z</time></trkpt>
<trkpt lat="42.254765" lon="3.249478"><ele>96.6</ele><time>2011-01-02T11:42:44Z</time></trkpt>
<trkpt lat="42.255108" lon="3.249295"><ele>94.2</ele><time>2011-01-02T11:42:49Z</time></trkpt>
<trkpt lat="42.255443" lon="3.248990"><ele>91.5</ele><time>2011-01-02T11:42:54Z</time></trkpt>
<trkpt lat="42.255807" lon="3.248712"><ele>88.4</ele><time>2011-01-02T11:42:59Z</time></trkpt>
<trkpt lat="42.256150" lon="3.248560"><ele>85</ele><time>2011-01-02T11:43:04Z</time></trkpt>
<trkpt lat="42.256408" lon="3.248772"><ele>82.9</ele><time>2011-01-02T11:43:09Z</time></trkpt>
<trkpt lat="42.256577" lon="3.249178"><ele>79.9</ele><time>2011-01-02T11:43:14Z</time></trkpt>
<trkpt lat="42.256908" lon="3.249318"><ele>77.5</ele><time>2011-01-02T11:43:19Z</time></trkpt>
<trkpt lat="42.257210" lon="3.249025"><ele>75.3</ele><time>2011-01-02T11:43:24Z</time></trkpt>
<trkpt lat="42.257480" lon="3.248663"><ele>73.3</ele><time>2011-01-02T11:43:29Z</time></trkpt>
<trkpt lat="42.257740" lon="3.248360"><ele>72.9</ele><time>2011-01-02T11:43:34Z</time></trkpt>
<trkpt lat="42.257927" lon="3.248085"><ele>73</ele><time>2011-01-02T11:43:39Z</time></trkpt>
<trkpt lat="42.258145" lon="3.247887"><ele>71.5</ele><time>2011-01-02T11:43:44Z</time></trkpt>
<trkpt lat="42.258442" lon="3.247762"><ele>69.6</ele><time>2011-01-02T11:43:49Z</time></trkpt>
<trkpt lat="42.258793" lon="3.247722"><ele>66.2</ele><time>2011-01-02T11:43:54Z</time></trkpt>
<trkpt lat="42.259152" lon="3.247543"><ele>61.5</ele><time>2011-01-02T11:43:59Z</time></trkpt>
<trkpt lat="42.259212" lon="3.247062"><ele>57.3</ele><time>2011-01-02T11:44:04Z</time></trkpt>
<trkpt lat="42.259158" lon="3.246513"><ele>53.4</ele><time>2011-01-02T11:44:09Z</time></trkpt>
<trkpt lat="42.259060" lon="3.246000"><ele>50.2</ele><time>2011-01-02T11:44:14Z</time></trkpt>
<trkpt lat="42.258892" lon="3.245608"><ele>47.4</ele><time>2011-01-02T11:44:19Z</time></trkpt>
<trkpt lat="42.259105" lon="3.245460"><ele>46</ele><time>2011-01-02T11:44:24Z</time></trkpt>
<trkpt lat="42.259380" lon="3.245588"><ele>45.5</ele><time>2011-01-02T11:44:29Z</time></trkpt>
<trkpt lat="42.259655" lon="3.245512"><ele>44.8</ele><time>2011-01-02T11:44:34Z</time></trkpt>
<trkpt lat="42.259880" lon="3.245242"><ele>43.7</ele><time>2011-01-02T11:44:39Z</time></trkpt>
<trkpt lat="42.260055" lon="3.244960"><ele>43.4</ele><time>2011-01-02T11:44:44Z</time></trkpt>
<trkpt lat="42.260242" lon="3.244727"><ele>41.9</ele><time>2011-01-02T11:44:49Z</time></trkpt>
<trkpt lat="42.260297" lon="3.244987"><ele>40.5</ele><time>2011-01-02T11:44:54Z</time></trkpt>
<trkpt lat="42.260087" lon="3.245333"><ele>38.2</ele><time>2011-01-02T11:44:59Z</time></trkpt>
<trkpt lat="42.259827" lon="3.245623"><ele>36.7</ele><time>2011-01-02T11:45:04Z</time></trkpt>
<trkpt lat="42.259773" lon="3.246043"><ele>35</ele><time>2011-01-02T11:45:09Z</time></trkpt>
<trkpt lat="42.259892" lon="3.246388"><ele>35.4</ele><time>2011-01-02T11:45:14Z</time></trkpt>
<trkpt lat="42.259983" lon="3.246603"><ele>37</ele><time>2011-01-02T11:45:19Z</time></trkpt>
<trkpt lat="42.260108" lon="3.246695"><ele>38.2</ele><time>2011-01-02T11:45:24Z</time></trkpt>
<trkpt lat="42.260247" lon="3.246713"><ele>39.7</ele><time>2011-01-02T11:45:29Z</time></trkpt>
<trkpt lat="42.260265" lon="3.246705"><ele>40.1</ele><time>2011-01-02T11:45:34Z</time></trkpt>
<trkpt lat="42.260277" lon="3.246713"><ele>40.4</ele><time>2011-01-02T11:45:39Z</time></trkpt>
<trkpt lat="42.260297" lon="3.246722"><ele>41.2</ele><time>2011-01-02T11:45:44Z</time></trkpt>
<trkpt lat="42.260327" lon="3.246752"><ele>41.9</ele><time>2011-01-02T11:45:49Z</time></trkpt>
<trkpt lat="42.260430" lon="3.246800"><ele>42.3</ele><time>2011-01-02T11:45:54Z</time></trkpt>
<trkpt lat="42.260543" lon="3.246858"><ele>43.2</ele><time>2011-01-02T11:45:59Z</time></trkpt>
<trkpt lat="42.260647" lon="3.246903"><ele>44.1</ele><time>2011-01-02T11:46:04Z</time></trkpt>
<trkpt lat="42.260727" lon="3.246937"><ele>45</ele><time>2011-01-02T11:46:09Z</time></trkpt>
<trkpt lat="42.260812" lon="3.246998"><ele>45.9</ele><time>2011-01-02T11:46:14Z</time></trkpt>
<trkpt lat="42.260875" lon="3.247100"><ele>46.6</ele><time>2011-01-02T11:46:19Z</time></trkpt>
<trkpt lat="42.260922" lon="3.247225"><ele>47.3</ele><time>2011-01-02T11:46:24Z</time></trkpt>
<trkpt lat="42.260940" lon="3.247365"><ele>47.9</ele><time>2011-01-02T11:46:29Z</time></trkpt>
<trkpt lat="42.260972" lon="3.247507"><ele>48.4</ele><time>2011-01-02T11:46:34Z</time></trkpt>
<trkpt lat="42.261020" lon="3.247635"><ele>49.1</ele><time>2011-01-02T11:46:39Z</time></trkpt>
<trkpt lat="42.261078" lon="3.247752"><ele>49.8</ele><time>2011-01-02T11:46:44Z</time></trkpt>
<trkpt lat="42.261135" lon="3.247865"><ele>50.6</ele><time>2011-01-02T11:46:49Z</time></trkpt>
<trkpt lat="42.261188" lon="3.247980"><ele>51.4</ele><time>2011-01-02T11:46:54Z</time></trkpt>
<trkpt lat="42.261242" lon="3.248093"><ele>52.2</ele><time>2011-01-02T11:46:59Z</time></trkpt>
<trkpt lat="42.261238" lon="3.248227"><ele>52.9</ele><time>2011-01-02T11:47:04Z</time></trkpt>
<trkpt lat="42.261182" lon="3.248338"><ele>53.3</ele><time>2011-01-02T11:47:09Z</time></trkpt>
<trkpt lat="42.261085" lon="3.248397"><ele>53.8</ele><time>2011-01-02T11:47:14Z</time></trkpt>
<trkpt lat="42.260990" lon="3.248457"><ele>54.4</ele><time>2011-01-02T11:47:19Z</time></trkpt>
<trkpt lat="42.260895" lon="3.248533"><ele>54.8</ele><time>2011-01-02T11:47:24Z</time></trkpt>
<trkpt lat="42.260812" lon="3.248627"><ele>55.4</ele><time>2011-01-02T11:47:29Z</time></trkpt>
<trkpt lat="42.260723" lon="3.248733"><ele>55.6</ele><time>2011-01-02T11:47:34Z</time></trkpt>
<trkpt lat="42.260635" lon="3.248830"><ele>56.3</ele><time>2011-01-02T11:47:39Z</time></trkpt>
<trkpt lat="42.260540" lon="3.248900"><ele>56.9</ele><time>2011-01-02T11:47:44Z</time></trkpt>
<trkpt lat="42.260448" lon="3.248958"><ele>57.5</ele><time>2011-01-02T11:47:49Z</time></trkpt>
<trkpt lat="42.260353" lon="3.249017"><ele>58.3</ele><time>2011-01-02T11:47:54Z</time></trkpt>
<trkpt lat="42.260262" lon="3.249080"><ele>59.4</ele><time>2011-01-02T11:47:59Z</time></trkpt>
<trkpt lat="42.260188" lon="3.249152"><ele>60.4</ele><time>2011-01-02T11:48:04Z</time></trkpt>
<trkpt lat="42.260108" lon="3.249242"><ele>61.3</ele><time>2011-01-02T11:48:09Z</time></trkpt>
<trkpt lat="42.260078" lon="3.249355"><ele>62.3</ele><time>2011-01-02T11:48:14Z</time></trkpt>
<trkpt lat="42.260147" lon="3.249417"><ele>63.4</ele><time>2011-01-02T11:48:19Z</time></trkpt>
<trkpt lat="42.260223" lon="3.249332"><ele>64.5</ele><time>2011-01-02T11:48:24Z</time></trkpt>
<trkpt lat="42.260297" lon="3.249245"><ele>66</ele><time>2011-01-02T11:48:29Z</time></trkpt>
<trkpt lat="42.260387" lon="3.249190"><ele>67</ele><time>2011-01-02T11:48:34Z</time></trkpt>
<trkpt lat="42.260483" lon="3.249157"><ele>67.4</ele><time>2011-01-02T11:48:39Z</time></trkpt>
<trkpt lat="42.260590" lon="3.249137"><ele>67.7</ele><time>2011-01-02T11:48:44Z</time></trkpt>
<trkpt lat="42.260685" lon="3.249093"><ele>68.5</ele><time>2011-01-02T11:48:49Z</time></trkpt>
<trkpt lat="42.260777" lon="3.249023"><ele>69.6</ele><time>2011-01-02T11:48:54Z</time></trkpt>
<trkpt lat="42.260860" lon="3.248943"><ele>70.6</ele><time>2011-01-02T11:48:59Z</time></trkpt>
<trkpt lat="42.260940" lon="3.248868"><ele>71.9</ele><time>2011-01-02T11:49:04Z</time></trkpt>
<trkpt lat="42.261028" lon="3.248807"><ele>73.4</ele><time>2011-01-02T11:49:09Z</time></trkpt>
<trkpt lat="42.261117" lon="3.248758"><ele>74.7</ele><time>2011-01-02T11:49:14Z</time></trkpt>
<trkpt lat="42.261215" lon="3.248750"><ele>75.4</ele><time>2011-01-02T11:49:19Z</time></trkpt>
<trkpt lat="42.261315" lon="3.248727"><ele>75.9</ele><time>2011-01-02T11:49:24Z</time></trkpt>
<trkpt lat="42.261410" lon="3.248685"><ele>76.3</ele><time>2011-01-02T11:49:29Z</time></trkpt>
<trkpt lat="42.261505" lon="3.248643"><ele>77.1</ele><time>2011-01-02T11:49:34Z</time></trkpt>
<trkpt lat="42.261608" lon="3.248625"><ele>77.8</ele><time>2011-01-02T11:49:39Z</time></trkpt>
<trkpt lat="42.261712" lon="3.248630"><ele>78.2</ele><time>2011-01-02T11:49:44Z</time></trkpt>
<trkpt lat="42.261818" lon="3.248600"><ele>78.4</ele><time>2011-01-02T11:49:49Z</time></trkpt>
<trkpt lat="42.261905" lon="3.248523"><ele>79</ele><time>2011-01-02T11:49:54Z</time></trkpt>
<trkpt lat="42.261948" lon="3.248400"><ele>80.1</ele><time>2011-01-02T11:49:59Z</time></trkpt>
<trkpt lat="42.261932" lon="3.248262"><ele>81</ele><time>2011-01-02T11:50:04Z</time></trkpt>
<trkpt lat="42.261878" lon="3.248135"><ele>81.7</ele><time>2011-01-02T11:50:09Z</time></trkpt>
<trkpt lat="42.261822" lon="3.248018"><ele>82.3</ele><time>2011-01-02T11:50:14Z</time></trkpt>
<trkpt lat="42.261772" lon="3.247898"><ele>83</ele><time>2011-01-02T11:50:19Z</time></trkpt>
<trkpt lat="42.261733" lon="3.247772"><ele>83.9</ele><time>2011-01-02T11:50:24Z</time></trkpt>
<trkpt lat="42.261703" lon="3.247647"><ele>84.9</ele><time>2011-01-02T11:50:29Z</time></trkpt>
<trkpt lat="42.261688" lon="3.247520"><ele>85.9</ele><time>2011-01-02T11:50:34Z</time></trkpt>
<trkpt lat="42.261688" lon="3.247382"><ele>86.6</ele><time>2011-01-02T11:50:39Z</time></trkpt>
<trkpt lat="42.261697" lon="3.247250"><ele>87.5</ele><time>2011-01-02T11:50:44Z</time></trkpt>
<trkpt lat="42.261707" lon="3.247118"><ele>88.4</ele><time>2011-01-02T11:50:49Z</time></trkpt>
<trkpt lat="42.261697" lon="3.246988"><ele>89.3</ele><time>2011-01-02T11:50:54Z</time></trkpt>
<trkpt lat="42.261685" lon="3.246857"><ele>90.3</ele><time>2011-01-02T11:50:59Z</time></trkpt>
<trkpt lat="42.261680" lon="3.246725"><ele>91.1</ele><time>2011-01-02T11:51:04Z</time></trkpt>
<trkpt lat="42.261700" lon="3.246595"><ele>91.8</ele><time>2011-01-02T11:51:09Z</time></trkpt>
<trkpt lat="42.261723" lon="3.246467"><ele>92.5</ele><time>2011-01-02T11:51:14Z</time></trkpt>
<trkpt lat="42.261700" lon="3.246340"><ele>93.4</ele><time>2011-01-02T11:51:19Z</time></trkpt>
<trkpt lat="42.261635" lon="3.246248"><ele>94.3</ele><time>2011-01-02T11:51:24Z</time></trkpt>
<trkpt lat="42.261552" lon="3.246188"><ele>95.1</ele><time>2011-01-02T11:51:29Z</time></trkpt>
<trkpt lat="42.261463" lon="3.246128"><ele>95.8</ele><time>2011-01-02T11:51:34Z</time></trkpt>
<trkpt lat="42.261383" lon="3.246060"><ele>96.5</ele><time>2011-01-02T11:51:39Z</time></trkpt>
<trkpt lat="42.261315" lon="3.245965"><ele>97</ele><time>2011-01-02T11:51:44Z</time></trkpt>
<trkpt lat="42.261265" lon="3.245853"><ele>97.8</ele><time>2011-01-02T11:51:49Z</time></trkpt>
<trkpt lat="42.261253" lon="3.245722"><ele>98.6</ele><time>2011-01-02T11:51:54Z</time></trkpt>
<trkpt lat="42.261265" lon="3.245585"><ele>99.3</ele><time>2011-01-02T11:51:59Z</time></trkpt>
<trkpt lat="42.261298" lon="3.245458"><ele>100.2</ele><time>2011-01-02T11:52:04Z</time></trkpt>
<trkpt lat="42.261345" lon="3.245343"><ele>101.3</ele><time>2011-01-02T11:52:09Z</time></trkpt>
<trkpt lat="42.261387" lon="3.245227"><ele>102.6</ele><time>2011-01-02T11:52:14Z</time></trkpt>
<trkpt lat="42.261425" lon="3.245093"><ele>103.3</ele><time>2011-01-02T11:52:19Z</time></trkpt>
<trkpt lat="42.261463" lon="3.244982"><ele>104.7</ele><time>2011-01-02T11:52:24Z</time></trkpt>
<trkpt lat="42.261505" lon="3.244868"><ele>105.9</ele><time>2011-01-02T11:52:29Z</time></trkpt>
<trkpt lat="42.261552" lon="3.244760"><ele>107</ele><time>2011-01-02T11:52:34Z</time></trkpt>
<trkpt lat="42.261593" lon="3.244648"><ele>108.1</ele><time>2011-01-02T11:52:39Z</time></trkpt>
<trkpt lat="42.261635" lon="3.244533"><ele>109.3</ele><time>2011-01-02T11:52:44Z</time></trkpt>
<trkpt lat="42.261680" lon="3.244418"><ele>110.3</ele><time>2011-01-02T11:52:49Z</time></trkpt>
<trkpt lat="42.261727" lon="3.244305"><ele>111.3</ele><time>2011-01-02T11:52:54Z</time></trkpt>
<trkpt lat="42.261787" lon="3.244208"><ele>112.2</ele><time>2011-01-02T11:52:59Z</time></trkpt>
<trkpt lat="42.261878" lon="3.244135"><ele>112.6</ele><time>2011-01-02T11:53:04Z</time></trkpt>
<trkpt lat="42.261975" lon="3.244103"><ele>113</ele><time>2011-01-02T11:53:09Z</time></trkpt>
<trkpt lat="42.262055" lon="3.244093"><ele>113.8</ele><time>2011-01-02T11:53:14Z</time></trkpt>
<trkpt lat="42.262138" lon="3.244053"><ele>114.2</ele><time>2011-01-02T11:53:19Z</time></trkpt>
<trkpt lat="42.262218" lon="3.243992"><ele>114.9</ele><time>2011-01-02T11:53:24Z</time></trkpt>
<trkpt lat="42.262287" lon="3.243937"><ele>115.9</ele><time>2011-01-02T11:53:29Z</time></trkpt>
<trkpt lat="42.262352" lon="3.243875"><ele>116.9</ele><time>2011-01-02T11:53:34Z</time></trkpt>
<trkpt lat="42.262425" lon="3.243822"><ele>118</ele><time>2011-01-02T11:53:39Z</time></trkpt>
<trkpt lat="42.262505" lon="3.243780"><ele>118.4</ele><time>2011-01-02T11:53:44Z</time></trkpt>
<trkpt lat="42.262588" lon="3.243753"><ele>118.9</ele><time>2011-01-02T11:53:49Z</time></trkpt>
<trkpt lat="42.262665" lon="3.243782"><ele>119.5</ele><time>2011-01-02T11:53:54Z</time></trkpt>
<trkpt lat="42.262683" lon="3.243873"><ele>120.4</ele><time>2011-01-02T11:53:59Z</time></trkpt>
<trkpt lat="42.262618" lon="3.243950"><ele>121.1</ele><time>2011-01-02T11:54:04Z</time></trkpt>
<trkpt lat="42.262538" lon="3.243997"><ele>121.7</ele><time>2011-01-02T11:54:09Z</time></trkpt>
<trkpt lat="42.262458" lon="3.244067"><ele>122.4</ele><time>2011-01-02T11:54:14Z</time></trkpt>
<trkpt lat="42.262398" lon="3.244158"><ele>123</ele><time>2011-01-02T11:54:19Z</time></trkpt>
<trkpt lat="42.262352" lon="3.244260"><ele>123.6</ele><time>2011-01-02T11:54:24Z</time></trkpt>
<trkpt lat="42.262302" lon="3.244360"><ele>123.9</ele><time>2011-01-02T11:54:29Z</time></trkpt>
<trkpt lat="42.262233" lon="3.244433"><ele>124.6</ele><time>2011-01-02T11:54:34Z</time></trkpt>
<trkpt lat="42.262168" lon="3.244508"><ele>125.4</ele><time>2011-01-02T11:54:39Z</time></trkpt>
<trkpt lat="42.262108" lon="3.244593"><ele>126.1</ele><time>2011-01-02T11:54:44Z</time></trkpt>
<trkpt lat="42.262055" lon="3.244692"><ele>126.7</ele><time>2011-01-02T11:54:49Z</time></trkpt>
<trkpt lat="42.262023" lon="3.244805"><ele>127.3</ele><time>2011-01-02T11:54:54Z</time></trkpt>
<trkpt lat="42.262008" lon="3.244925"><ele>127.9</ele><time>2011-01-02T11:54:59Z</time></trkpt>
<trkpt lat="42.262017" lon="3.245045"><ele>128.5</ele><time>2011-01-02T11:55:04Z</time></trkpt>
<trkpt lat="42.262055" lon="3.245162"><ele>129.2</ele><time>2011-01-02T11:55:09Z</time></trkpt>
<trkpt lat="42.262100" lon="3.245267"><ele>129.9</ele><time>2011-01-02T11:55:14Z</time></trkpt>
<trkpt lat="42.262153" lon="3.245360"><ele>130.8</ele><time>2011-01-02T11:55:19Z</time></trkpt>
<trkpt lat="42.262222" lon="3.245435"><ele>131.9</ele><time>2011-01-02T11:55:24Z</time></trkpt>
<trkpt lat="42.262310" lon="3.245507"><ele>132.5</ele><time>2011-01-02T11:55:29Z</time></trkpt>
<trkpt lat="42.262390" lon="3.245555"><ele>133.3</ele><time>2011-01-02T11:55:34Z</time></trkpt>
<trkpt lat="42.262473" lon="3.245592"><ele>134.1</ele><time>2011-01-02T11:55:39Z</time></trkpt>
<trkpt lat="42.262558" lon="3.245633"><ele>134.8</ele><time>2011-01-02T11:55:44Z</time></trkpt>
<trkpt lat="42.262642" lon="3.245678"><ele>135.6</ele><time>2011-01-02T11:55:49Z</time></trkpt>
<trkpt lat="42.262725" lon="3.245727"><ele>136.2</ele><time>2011-01-02T11:55:54Z</time></trkpt>
<trkpt lat="42.262798" lon="3.245792"><ele>137</ele><time>2011-01-02T11:55:59Z</time></trkpt>
<trkpt lat="42.262863" lon="3.245875"><ele>138</ele><time>2011-01-02T11:56:04Z</time></trkpt>
<trkpt lat="42.262917" lon="3.245975"><ele>138.9</ele><time>2011-01-02T11:56:09Z</time></trkpt>
<trkpt lat="42.262958" lon="3.246087"><ele>139.8</ele><time>2011-01-02T11:56:14Z</time></trkpt>
<trkpt lat="42.262982" lon="3.246200"><ele>140.8</ele><time>2011-01-02T11:56:19Z</time></trkpt>
<trkpt lat="42.262982" lon="3.246337"><ele>141.3</ele><time>2011-01-02T11:56:24Z</time></trkpt>
<trkpt lat="42.262962" lon="3.246457"><ele>142.2</ele><time>2011-01-02T11:56:29Z</time></trkpt>
<trkpt lat="42.262943" lon="3.246575"><ele>143.1</ele><time>2011-01-02T11:56:34Z</time></trkpt>
<trkpt lat="42.262928" lon="3.246700"><ele>143.8</ele><time>2011-01-02T11:56:39Z</time></trkpt>
<trkpt lat="42.262928" lon="3.246823"><ele>144.5</ele><time>2011-01-02T11:56:44Z</time></trkpt>
<trkpt lat="42.262955" lon="3.246943"><ele>145.2</ele><time>2011-01-02T11:56:49Z</time></trkpt>
<trkpt lat="42.263008" lon="3.247038"><ele>145.9</ele><time>2011-01-02T11:56:54Z</time></trkpt>
<trkpt lat="42.263092" lon="3.247093"><ele>146.7</ele><time>2011-01-02T11:56:59Z</time></trkpt>
<trkpt lat="42.263172" lon="3.247138"><ele>147.5</ele><time>2011-01-02T11:57:04Z</time></trkpt>
<trkpt lat="42.263257" lon="3.247187"><ele>148.4</ele><time>2011-01-02T11:57:09Z</time></trkpt>
<trkpt lat="42.263337" lon="3.247245"><ele>149.3</ele><time>2011-01-02T11:57:14Z</time></trkpt>
<trkpt lat="42.263412" lon="3.247318"><ele>150.1</ele><time>2011-01-02T11:57:19Z</time></trkpt>
<trkpt lat="42.263493" lon="3.247367"><ele>151.1</ele><time>2011-01-02T11:57:24Z</time></trkpt>
<trkpt lat="42.263580" lon="3.247403"><ele>151.8</ele><time>2011-01-02T11:57:29Z</time></trkpt>
<trkpt lat="42.263668" lon="3.247433"><ele>152.5</ele><time>2011-01-02T11:57:34Z</time></trkpt>
<trkpt lat="42.263755" lon="3.247453"><ele>153.3</ele><time>2011-01-02T11:57:39Z</time></trkpt>
<trkpt lat="42.263843" lon="3.247473"><ele>154.2</ele><time>2011-01-02T11:57:44Z</time></trkpt>
<trkpt lat="42.263943" lon="3.247488"><ele>154.9</ele><time>2011-01-02T11:57:49Z</time></trkpt>
<trkpt lat="42.264050" lon="3.247505"><ele>155.4</ele><time>2011-01-02T11:57:54Z</time></trkpt>
<trkpt lat="42.264145" lon="3.247565"><ele>156.1</ele><time>2011-01-02T11:57:59Z</time></trkpt>
<trkpt lat="42.264183" lon="3.247695"><ele>157.1</ele><time>2011-01-02T11:58:04Z</time></trkpt>
<trkpt lat="42.264157" lon="3.247837"><ele>158</ele><time>2011-01-02T11:58:09Z</time></trkpt>
<trkpt lat="42.264133" lon="3.247977"><ele>158.8</ele><time>2011-01-02T11:58:14Z</time></trkpt>
<trkpt lat="42.264118" lon="3.248100"><ele>159.8</ele><time>2011-01-02T11:58:19Z</time></trkpt>
<trkpt lat="42.264122" lon="3.248220"><ele>160.8</ele><time>2011-01-02T11:58:24Z</time></trkpt>
<trkpt lat="42.264153" lon="3.248333"><ele>161.3</ele><time>2011-01-02T11:58:29Z</time></trkpt>
<trkpt lat="42.264207" lon="3.248422"><ele>162.2</ele><time>2011-01-02T11:58:34Z</time></trkpt>
<trkpt lat="42.264278" lon="3.248488"><ele>162.9</ele><time>2011-01-02T11:58:39Z</time></trkpt>
<trkpt lat="42.264352" lon="3.248553"><ele>163.7</ele><time>2011-01-02T11:58:44Z</time></trkpt>
<trkpt lat="42.264423" lon="3.248622"><ele>164.6</ele><time>2011-01-02T11:58:49Z</time></trkpt>
<trkpt lat="42.264492" lon="3.248692"><ele>165.5</ele><time>2011-01-02T11:58:54Z</time></trkpt>
<trkpt lat="42.264560" lon="3.248768"><ele>166.4</ele><time>2011-01-02T11:58:59Z</time></trkpt>
<trkpt lat="42.264622" lon="3.248853"><ele>167.2</ele><time>2011-01-02T11:59:04Z</time></trkpt>
<trkpt lat="42.264687" lon="3.248940"><ele>167.8</ele><time>2011-01-02T11:59:09Z</time></trkpt>
<trkpt lat="42.264752" lon="3.249025"><ele>168.6</ele><time>2011-01-02T11:59:14Z</time></trkpt>
<trkpt lat="42.264817" lon="3.249110"><ele>169.4</ele><time>2011-01-02T11:59:19Z</time></trkpt>
<trkpt lat="42.264882" lon="3.249197"><ele>170.2</ele><time>2011-01-02T11:59:24Z</time></trkpt>
<trkpt lat="42.264947" lon="3.249277"><ele>171</ele><time>2011-01-02T11:59:29Z</time></trkpt>
<trkpt lat="42.265015" lon="3.249360"><ele>171.8</ele><time>2011-01-02T11:59:34Z</time></trkpt>
<trkpt lat="42.265087" lon="3.249433"><ele>172.6</ele><time>2011-01-02T11:59:39Z</time></trkpt>
<trkpt lat="42.265172" lon="3.249503"><ele>173.4</ele><time>2011-01-02T11:59:44Z</time></trkpt>
<trkpt lat="42.265278" lon="3.249553"><ele>174</ele><time>2011-01-02T11:59:49Z</time></trkpt>
<trkpt lat="42.265385" lon="3.249563"><ele>174.6</ele><time>2011-01-02T11:59:54Z</time></trkpt>
<trkpt lat="42.265498" lon="3.249528"><ele>175.3</ele><time>2011-01-02T11:59:59Z</time></trkpt>
<trkpt lat="42.265602" lon="3.249480"><ele>176.1</ele><time>2011-01-02T12:00:04Z</time></trkpt>
<trkpt lat="42.265720" lon="3.249432"><ele>176.3</ele><time>2011-01-02T12:00:09Z</time></trkpt>
<trkpt lat="42.265832" lon="3.249393"><ele>177</ele><time>2011-01-02T12:00:14Z</time></trkpt>
<trkpt lat="42.265933" lon="3.249360"><ele>177.7</ele><time>2011-01-02T12:00:19Z</time></trkpt>
<trkpt lat="42.266045" lon="3.249328"><ele>178.4</ele><time>2011-01-02T12:00:24Z</time></trkpt>
<trkpt lat="42.266155" lon="3.249302"><ele>179.1</ele><time>2011-01-02T12:00:29Z</time></trkpt>
<trkpt lat="42.266267" lon="3.249273"><ele>179.9</ele><time>2011-01-02T12:00:34Z</time></trkpt>
<trkpt lat="42.266377" lon="3.249255"><ele>180.8</ele><time>2011-01-02T12:00:39Z</time></trkpt>
<trkpt lat="42.266483" lon="3.249245"><ele>181.6</ele><time>2011-01-02T12:00:44Z</time></trkpt>
<trkpt lat="42.266593" lon="3.249253"><ele>182.4</ele><time>2011-01-02T12:00:49Z</time></trkpt>
<trkpt lat="42.266700" lon="3.249263"><ele>183.2</ele><time>2011-01-02T12:00:54Z</time></trkpt>
<trkpt lat="42.266808" lon="3.249247"><ele>184.1</ele><time>2011-01-02T12:00:59Z</time></trkpt>
<trkpt lat="42.266930" lon="3.249202"><ele>184.5</ele><time>2011-01-02T12:01:04Z</time></trkpt>
<trkpt lat="42.267037" lon="3.249158"><ele>185.2</ele><time>2011-01-02T12:01:09Z</time></trkpt>
<trkpt lat="42.267152" lon="3.249118"><ele>185.9</ele><time>2011-01-02T12:01:14Z</time></trkpt>
<trkpt lat="42.267262" lon="3.249087"><ele>186.8</ele><time>2011-01-02T12:01:19Z</time></trkpt>
<trkpt lat="42.267372" lon="3.249068"><ele>187.7</ele><time>2011-01-02T12:01:24Z</time></trkpt>
<trkpt lat="42.267483" lon="3.249047"><ele>188.6</ele><time>2011-01-02T12:01:29Z</time></trkpt>
<trkpt lat="42.267590" lon="3.249090"><ele>189.3</ele><time>2011-01-02T12:01:34Z</time></trkpt>
<trkpt lat="42.267590" lon="3.249240"><ele>189.7</ele><time>2011-01-02T12:01:39Z</time></trkpt>
<trkpt lat="42.267522" lon="3.249360"><ele>190.4</ele><time>2011-01-02T12:01:44Z</time></trkpt>
<trkpt lat="42.267445" lon="3.249473"><ele>191.2</ele><time>2011-01-02T12:01:49Z</time></trkpt>
<trkpt lat="42.267377" lon="3.249592"><ele>192</ele><time>2011-01-02T12:01:54Z</time></trkpt>
<trkpt lat="42.267318" lon="3.249727"><ele>192.6</ele><time>2011-01-02T12:01:59Z</time></trkpt>
<trkpt lat="42.267268" lon="3.249860"><ele>193.2</ele><time>2011-01-02T12:02:04Z</time></trkpt>
<trkpt lat="42.267232" lon="3.249997"><ele>193.8</ele><time>2011-01-02T12:02:09Z</time></trkpt>
<trkpt lat="42.267197" lon="3.250142"><ele>194.4</ele><time>2011-01-02T12:02:14Z</time></trkpt>
<trkpt lat="42.267170" lon="3.250295"><ele>195.1</ele><time>2011-01-02T12:02:19Z</time></trkpt>
<trkpt lat="42.267193" lon="3.250448"><ele>195.6</ele><time>2011-01-02T12:02:24Z</time></trkpt>
<trkpt lat="42.267262" lon="3.250575"><ele>196.2</ele><time>2011-01-02T12:02:29Z</time></trkpt>
<trkpt lat="42.267345" lon="3.250690"><ele>196.6</ele><time>2011-01-02T12:02:34Z</time></trkpt>
<trkpt lat="42.267430" lon="3.250787"><ele>197.4</ele><time>2011-01-02T12:02:39Z</time></trkpt>
<trkpt lat="42.267505" lon="3.250888"><ele>198</ele><time>2011-01-02T12:02:44Z</time></trkpt>
<trkpt lat="42.267567" lon="3.251013"><ele>198.6</ele><time>2011-01-02T12:02:49Z</time></trkpt>
<trkpt lat="42.267632" lon="3.251133"><ele>199.3</ele><time>2011-01-02T12:02:54Z</time></trkpt>
<trkpt lat="42.267697" lon="3.251258"><ele>200</ele><time>2011-01-02T12:02:59Z</time></trkpt>
<trkpt lat="42.267777" lon="3.251375"><ele>200.4</ele><time>2011-01-02T12:03:04Z</time></trkpt>
<trkpt lat="42.267853" lon="3.251478"><ele>200.9</ele><time>2011-01-02T12:03:09Z</time></trkpt>
<trkpt lat="42.267925" lon="3.251602"><ele>201.4</ele><time>2011-01-02T12:03:14Z</time></trkpt>
<trkpt lat="42.267967" lon="3.251742"><ele>202.1</ele><time>2011-01-02T12:03:19Z</time></trkpt>
<trkpt lat="42.267972" lon="3.251892"><ele>203</ele><time>2011-01-02T12:03:24Z</time></trkpt>
<trkpt lat="42.267963" lon="3.252038"><ele>203.8</ele><time>2011-01-02T12:03:29Z</time></trkpt>
<trkpt lat="42.267945" lon="3.252188"><ele>204.5</ele><time>2011-01-02T12:03:34Z</time></trkpt>
<trkpt lat="42.267913" lon="3.252337"><ele>205.2</ele><time>2011-01-02T12:03:39Z</time></trkpt>
<trkpt lat="42.267875" lon="3.252490"><ele>205.7</ele><time>2011-01-02T12:03:44Z</time></trkpt>
<trkpt lat="42.267833" lon="3.252638"><ele>206.4</ele><time>2011-01-02T12:03:49Z</time></trkpt>
<trkpt lat="42.267795" lon="3.252782"><ele>207.3</ele><time>2011-01-02T12:03:54Z</time></trkpt>
<trkpt lat="42.267795" lon="3.252945"><ele>208</ele><time>2011-01-02T12:03:59Z</time></trkpt>
<trkpt lat="42.267842" lon="3.253098"><ele>208.3</ele><time>2011-01-02T12:04:04Z</time></trkpt>
<trkpt lat="42.267918" lon="3.253237"><ele>209.1</ele><time>2011-01-02T12:04:09Z</time></trkpt>
<trkpt lat="42.268010" lon="3.253362"><ele>209.7</ele><time>2011-01-02T12:04:14Z</time></trkpt>
<trkpt lat="42.268090" lon="3.253492"><ele>210.4</ele><time>2011-01-02T12:04:19Z</time></trkpt>
<trkpt lat="42.268165" lon="3.253630"><ele>211.2</ele><time>2011-01-02T12:04:24Z</time></trkpt>
<trkpt lat="42.268208" lon="3.253787"><ele>211.7</ele><time>2011-01-02T12:04:29Z</time></trkpt>
<trkpt lat="42.268117" lon="3.253898"><ele>212.1</ele><time>2011-01-02T12:04:34Z</time></trkpt>
<trkpt lat="42.267998" lon="3.253912"><ele>212.5</ele><time>2011-01-02T12:04:39Z</time></trkpt>
<trkpt lat="42.267875" lon="3.253935"><ele>212.6</ele><time>2011-01-02T12:04:44Z</time></trkpt>
<trkpt lat="42.267753" lon="3.253978"><ele>212.7</ele><time>2011-01-02T12:04:49Z</time></trkpt>
<trkpt lat="42.267608" lon="3.254020"><ele>213.2</ele><time>2011-01-02T12:04:54Z</time></trkpt>
<trkpt lat="42.267467" lon="3.254075"><ele>213.8</ele><time>2011-01-02T12:04:59Z</time></trkpt>
<trkpt lat="42.267330" lon="3.254187"><ele>214.1</ele><time>2011-01-02T12:05:04Z</time></trkpt>
<trkpt lat="42.267215" lon="3.254368"><ele>214.5</ele><time>2011-01-02T12:05:09Z</time></trkpt>
<trkpt lat="42.267132" lon="3.254590"><ele>214.7</ele><time>2011-01-02T12:05:14Z</time></trkpt>
<trkpt lat="42.267132" lon="3.254840"><ele>215.2</ele><time>2011-01-02T12:05:19Z</time></trkpt>
<trkpt lat="42.267117" lon="3.255083"><ele>215.6</ele><time>2011-01-02T12:05:24Z</time></trkpt>
<trkpt lat="42.266963" lon="3.255168"><ele>216.4</ele><time>2011-01-02T12:05:29Z</time></trkpt>
<trkpt lat="42.266782" lon="3.255178"><ele>216.9</ele><time>2011-01-02T12:05:34Z</time></trkpt>
<trkpt lat="42.266605" lon="3.255182"><ele>217.4</ele><time>2011-01-02T12:05:39Z</time></trkpt>
<trkpt lat="42.266427" lon="3.255248"><ele>217.8</ele><time>2011-01-02T12:05:44Z</time></trkpt>
<trkpt lat="42.266247" lon="3.255338"><ele>218.4</ele><time>2011-01-02T12:05:49Z</time></trkpt>
<trkpt lat="42.266078" lon="3.255393"><ele>218.9</ele><time>2011-01-02T12:05:54Z</time></trkpt>
<trkpt lat="42.265915" lon="3.255458"><ele>219.6</ele><time>2011-01-02T12:05:59Z</time></trkpt>
<trkpt lat="42.265793" lon="3.255620"><ele>219.8</ele><time>2011-01-02T12:06:04Z</time></trkpt>
<trkpt lat="42.265708" lon="3.255853"><ele>219.7</ele><time>2011-01-02T12:06:09Z</time></trkpt>
<trkpt lat="42.265637" lon="3.256110"><ele>219.7</ele><time>2011-01-02T12:06:14Z</time></trkpt>
<trkpt lat="42.265572" lon="3.256355"><ele>219.6</ele><time>2011-01-02T12:06:19Z</time></trkpt>
<trkpt lat="42.265507" lon="3.256587"><ele>219.5</ele><time>2011-01-02T12:06:24Z</time></trkpt>
<trkpt lat="42.265430" lon="3.256860"><ele>219.2</ele><time>2011-01-02T12:06:29Z</time></trkpt>
<trkpt lat="42.265373" lon="3.257172"><ele>219.1</ele><time>2011-01-02T12:06:34Z</time></trkpt>
<trkpt lat="42.265343" lon="3.257527"><ele>218.5</ele><time>2011-01-02T12:06:39Z</time></trkpt>
<trkpt lat="42.265335" lon="3.258248"><ele>218.1</ele><time>2011-01-02T12:06:49Z</time></trkpt>
<trkpt lat="42.265145" lon="3.258922"><ele>218.3</ele><time>2011-01-02T12:06:59Z</time></trkpt>
<trkpt lat="42.264850" lon="3.259507"><ele>218.7</ele><time>2011-01-02T12:07:09Z</time></trkpt>
<trkpt lat="42.264400" lon="3.259788"><ele>219.6</ele><time>2011-01-02T12:07:19Z</time></trkpt>
<trkpt lat="42.264255" lon="3.259960"><ele>220.4</ele><time>2011-01-02T12:07:29Z</time></trkpt>
<trkpt lat="42.264248" lon="3.259953"><ele>219.7</ele><time>2011-01-02T12:07:39Z</time></trkpt>
<trkpt lat="42.264125" lon="3.260065"><ele>220.6</ele><time>2011-01-02T12:07:57Z</time></trkpt>
</trkseg></trk></gpx>